Date StartTime U_cm/s V_cm/s W_cm/s Ustd_cm/s Vstd_cm/s Wstd_cm/s Uvar_(cm/s)^2 Vvar_(cm/s)^2 Wvar_(cm/s)^2 KE_(m/s)^2 TurbulentKE_(m/s)^2 HorizWindSpeed_cm/s FrictionSpeec_cm/s DragCoef SpeedOfSound_m/s SonicTemperature_C Pressure_mb 
09/22/2014  00:00:00     -139.072       17.973      -11.905       37.202       26.302       17.394     1383.998      691.821      302.541        1.109        0.119      140.229       12.766        0.008      341.859       16.865      863.218
09/22/2014  00:01:00      -68.180       12.497       -7.817       34.205       39.270       18.119     1169.993     1542.097      328.308        0.395        0.152       69.315       18.385        0.070      341.850       16.849      863.209
09/22/2014  00:02:00      -88.966       -5.005      -15.600       24.218       38.247       17.394      586.512     1462.802      302.552        0.527        0.118       89.106       13.294        0.022      341.915       16.958      863.218
09/22/2014  00:03:00     -113.187      -13.711      -10.978       52.871       27.180       21.587     2795.298      738.770      465.996        0.856        0.200      114.014       24.203        0.045      341.912       16.955      863.236
09/22/2014  00:04:00     -144.006      -26.552      -13.798       21.549       25.194       18.091      464.362      634.738      327.272        1.153        0.071      146.433       12.776        0.008      341.834       16.822      863.267
09/22/2014  00:05:00     -159.283      -11.683      -18.765       26.320       24.925       17.489      692.731      621.241      305.872        1.374        0.081      159.711       12.839        0.006      341.778       16.726      863.285
09/22/2014  00:06:00     -131.192       43.540      -14.306       45.868       34.612       17.611     2103.911     1198.003      310.160        1.146        0.181      138.228        5.027        0.001      341.833       16.821      863.296
09/22/2014  00:07:00      -98.357       27.798      -16.119       25.710       25.185       16.228      661.012      634.297      263.353        0.613        0.078      102.210       10.484        0.011      341.903       16.940      863.308
09/22/2014  00:08:00      -80.415       -9.863      -15.056       23.862       22.671       15.639      569.403      513.994      244.572        0.406        0.066       81.017       13.978        0.030      341.868       16.881      863.324
09/22/2014  00:09:00     -125.335      -17.464       -8.152       43.212       40.248       22.048     1867.275     1619.885      486.107        1.003        0.199      126.546       17.117        0.018      341.754       16.687      863.356
09/22/2014  00:10:00     -129.171      -27.412      -10.001       42.062       39.706       26.248     1769.182     1576.596      688.946        1.078        0.202      132.048       18.998        0.021      341.652       16.512      863.372
09/22/2014  00:11:00     -134.433       38.805      -13.238       43.223       25.825       20.963     1868.200      666.923      439.439        1.136        0.149      139.922       16.992        0.015      341.837       16.828      863.374
09/22/2014  00:12:00      -84.815       49.276      -14.985       27.102       25.939       15.609      734.538      672.819      243.639        0.575        0.083       98.091       11.600        0.014      341.965       17.044      863.383
09/22/2014  00:13:00      -71.949       33.062      -16.853       24.798       25.486       14.606      614.958      649.559      213.331        0.402        0.074       79.182       15.507        0.038      342.107       17.285      863.393
09/22/2014  00:14:00      -91.214       -9.140      -16.434       27.080       30.084       13.581      733.345      905.062      184.434        0.525        0.091       91.670       10.320        0.013      341.964       17.041      863.408
09/22/2014  00:15:00      -93.296      -23.097       -5.081       34.607       32.972       17.712     1197.641     1087.184      313.723        0.593        0.130       96.112       13.611        0.020      341.705       16.603      863.426
09/22/2014  00:16:00     -101.864       -8.893       -6.934       37.893       27.613       18.267     1435.878      762.460      333.666        0.652        0.127      102.252       15.943        0.024      341.637       16.488      863.439
09/22/2014  00:17:00      -79.934      -10.865      -13.455       39.530       31.675       16.139     1562.602     1003.285      260.464        0.476        0.141       80.669       14.778        0.034      341.738       16.659      863.437
09/22/2014  00:18:00      -78.504      -25.239       -6.007       33.069       19.007       15.783     1093.547      361.283      249.101        0.427        0.085       82.462       12.549        0.023      341.734       16.652      863.430
09/22/2014  00:19:00      -60.550      -27.534        0.470       33.100       32.479       18.688     1095.604     1054.854      349.241        0.346        0.125       66.517       14.726        0.049      341.750       16.681      863.440
09/22/2014  00:20:00      -72.369      -10.372       -5.297       25.001       25.725       14.084      625.044      661.791      198.350        0.343        0.074       73.109        9.396        0.017      341.790       16.749      863.442
09/22/2014  00:21:00      -12.699      -11.319        4.801       27.259       17.669       13.421      743.053      312.205      180.115        0.077        0.062       17.011       12.245        0.518      341.828       16.811      863.430
09/22/2014  00:22:00        7.069        1.653        3.560       13.601       13.364        8.444      184.986      178.593       71.294        0.025        0.022        7.260        6.720        0.857      341.920       16.969      863.420
09/22/2014  00:23:00      -17.113        8.693       -9.637        9.945       19.215       11.292       98.911      369.200      127.515        0.053        0.030       19.195        9.844        0.263      341.909       16.950      863.425
09/22/2014  00:24:00      -44.154      -14.384       -6.085       16.713       12.919       10.534      279.323      166.901      110.961        0.138        0.028       46.438        6.872        0.022      341.894       16.924      863.413
09/22/2014  00:25:00      -25.245      -15.422        1.458        8.672        6.714        6.360       75.209       45.074       40.450        0.052        0.008       29.583        3.061        0.011      341.849       16.846      863.391
09/22/2014  00:26:00      -42.072      -13.202       -6.915        9.355       14.068        9.757       87.522      197.899       95.192        0.119        0.019       44.094        6.193        0.020      341.901       16.936      863.373
09/22/2014  00:27:00      -34.138       13.115       -4.840       15.565       20.735       10.311      242.284      429.958      106.325        0.107        0.039       36.571        8.985        0.060      342.059       17.204      863.363
09/22/2014  00:28:00       -3.109       35.576        2.091       17.875       23.430       11.431      319.526      548.972      130.674        0.114        0.050       35.711       10.094        0.080      342.025       17.146      863.344
09/22/2014  00:29:00       -3.754       54.084       -2.050       14.788       35.895       16.402      218.675     1288.466      269.027        0.236        0.089       54.215       20.555        0.144      341.997       17.098      863.329
09/22/2014  00:30:00      -43.733       17.653      -11.486       20.045       33.881       13.446      401.793     1147.904      180.792        0.204        0.087       47.161       13.521        0.082      341.879       16.899      863.330
09/22/2014  00:31:00      -53.397      -24.411       -8.496       14.943       11.934       10.859      223.281      142.429      117.916        0.200        0.024       58.712        4.183        0.005      341.730       16.646      863.335
09/22/2014  00:32:00      -70.954      -32.740      -13.240       17.457       12.311        8.279      304.742      151.568       68.540        0.340        0.026       78.144        4.782        0.004      341.802       16.766      863.343
09/22/2014  00:33:00     -132.100      -54.317       -9.178       22.282       17.883       11.855      496.485      319.810      140.534        1.072        0.048      142.831        9.427        0.004      341.759       16.694      863.335
09/22/2014  00:34:00      -75.634      -53.486        1.619       31.608       20.295       16.208      999.064      411.889      262.701        0.513        0.084       92.635       10.958        0.014      341.678       16.558      863.324
09/22/2014  00:35:00      -43.997      -20.888       -9.262       23.718       16.428       15.168      562.524      269.879      230.079        0.176        0.053       48.703       10.375        0.045      341.724       16.636      863.310
09/22/2014  00:36:00      -67.450      -42.036       -0.198       34.125       28.601       15.971     1164.531      818.025      255.085        0.428        0.112       79.476       10.395        0.017      341.631       16.480      863.313
09/22/2014  00:37:00      -75.992      -15.225       -6.083       23.665       26.195       13.911      560.009      686.181      193.521        0.374        0.072       77.502       10.552        0.019      341.633       16.481      863.324
09/22/2014  00:38:00      -26.260       -3.763       -5.782       27.159       13.935       12.736      737.633      194.171      162.217        0.092        0.055       26.529       11.137        0.176      341.673       16.548      863.310
09/22/2014  00:39:00      -26.123      -15.066      -10.521       14.644       19.444       12.369      214.439      378.081      152.987        0.088        0.037       30.156        5.862        0.038      341.825       16.806      863.300
09/22/2014  00:40:00      -79.121      -28.797       -7.210       22.998       20.479       12.137      528.914      419.370      147.296        0.412        0.055       84.199        3.630        0.002      341.728       16.642      863.303
09/22/2014  00:41:00      -66.493      -21.260       -2.345       45.635       39.635       15.168     2082.551     1570.920      230.076        0.438        0.194       69.809        9.686        0.019      341.529       16.305      863.321
09/22/2014  00:42:00     -142.697       29.749      -12.161       45.452       38.120       27.369     2065.927     1453.114      749.068        1.283        0.213      145.765       21.207        0.021      341.654       16.517      863.331
09/22/2014  00:43:00     -168.524       48.093      -22.444       65.656       37.110       22.919     4310.715     1377.148      525.284        1.871        0.311      175.252       14.061        0.006      341.592       16.409      863.323
09/22/2014  00:44:00      -99.880       40.823       -6.077       48.587       34.130       28.486     2360.738     1164.826      811.438        0.801        0.217      107.901       29.354        0.074      341.596       16.418      863.310
09/22/2014  00:45:00      -52.845       13.655       -9.131       25.642       21.538       11.102      657.521      463.901      123.246        0.215        0.062       54.581        6.163        0.013      341.736       16.655      863.303
09/22/2014  00:46:00      -39.105      -29.142      -12.018       34.105       24.130       15.586     1163.152      582.273      242.922        0.226        0.099       48.769       13.386        0.075      341.656       16.521      863.307
09/22/2014  00:47:00     -126.962      -64.146       -4.126       38.878       48.954       22.901     1511.472     2396.522      524.439        1.234        0.222      142.247       18.962        0.018      341.484       16.229      863.304
09/22/2014  00:48:00     -159.245      -21.995       -7.930       41.391       33.702       23.981     1713.200     1135.820      575.104        1.466        0.171      160.757       21.631        0.018      341.391       16.072      863.320
09/22/2014  00:49:00      -63.590       -5.847       -3.187       45.315       28.742       22.662     2053.420      826.120      513.568        0.374        0.170       63.858       25.240        0.156      341.365       16.028      863.319
09/22/2014  00:50:00      -39.123       -5.833       -3.548       20.299       23.511       16.420      412.029      552.787      269.619        0.141        0.062       39.555       14.688        0.138      341.356       16.012      863.310
09/22/2014  00:51:00     -106.161       16.181      -17.359       46.163       36.212       19.151     2131.037     1311.320      366.760        0.782        0.190      107.387       12.847        0.014      341.324       15.957      863.312
09/22/2014  00:52:00     -102.073       23.696       -9.946       34.964       22.091       16.373     1222.506      488.008      268.059        0.653        0.099      104.787       10.144        0.009      341.538       16.320      863.316
09/22/2014  00:53:00      -30.262       16.977       -3.512       16.148       13.260       11.017      260.758      175.831      121.369        0.089        0.028       34.699        7.398        0.045      341.665       16.534      863.318
09/22/2014  00:54:00       -7.156       29.019       -1.420       24.605       17.477       13.588      605.383      305.461      184.647        0.100        0.055       29.888       16.665        0.311      341.833       16.820      863.313
09/22/2014  00:55:00       23.894        8.334        5.228       13.793       14.024        9.259      190.257      196.664       85.724        0.057        0.024       25.306        7.274        0.083      341.942       17.005      863.314
09/22/2014  00:56:00     -103.873      -31.658       -6.872       57.126       19.727       14.926     3263.396      389.170      222.785        0.786        0.194      108.590       14.710        0.018      341.571       16.376      863.338
09/22/2014  00:57:00      -97.932      -39.615        0.212       43.351       31.127       16.456     1879.305      968.875      270.786        0.714        0.156      105.641       20.431        0.037      341.276       15.876      863.350
09/22/2014  00:58:00      -89.189       -1.497       -2.420       24.448       26.416       14.303      597.693      697.795      204.566        0.473        0.075       89.202       13.412        0.023      341.413       16.110      863.355
09/22/2014  00:59:00      -37.144        8.151      -12.503       33.423       10.755        8.401     1117.065      115.675       70.576        0.145        0.065       38.028        4.971        0.017      341.638       16.490      863.359
09/22/2014  01:00:00       33.180       14.130        4.810       20.141       13.754       14.522      405.679      189.165      210.894        0.106        0.040       36.064       12.749        0.125      341.977       17.064      863.356
09/22/2014  01:01:00        8.359       39.002       58.118       23.435       25.928       16.889      549.182      672.287      285.241        0.324        0.075       39.888       16.177        0.164      341.783       16.735      863.349
09/22/2014  01:02:00       -6.562       31.306       52.376       13.555       30.116       18.863      183.732      906.971      355.798        0.261        0.072       31.986       19.559        0.374      341.683       16.567      863.356
09/22/2014  01:03:00      -33.415       14.907        4.965       32.014       27.627       18.451     1024.867      763.254      340.454        0.175        0.106       36.590       22.933        0.393      341.586       16.400      863.374
09/22/2014  01:04:00      -59.244       -7.901        1.006       38.273       35.601       23.139     1464.797     1267.423      535.431        0.342        0.163       59.768       18.005        0.091      341.252       15.836      863.395
09/22/2014  01:05:00      -68.387      -23.142      -16.028       51.348       26.343       18.505     2636.641      693.966      342.421        0.457        0.184       72.197       23.108        0.102      341.288       15.897      863.411
09/22/2014  01:06:00       28.488      -25.089       -8.981       14.659       13.891       10.715      214.887      192.973      114.817        0.102        0.026       37.961        6.380        0.028      341.513       16.278      863.412
09/22/2014  01:07:00       -0.703       -0.956       -7.241       10.035       17.443       12.571      100.709      304.260      158.023        0.031        0.028        1.187        8.704       53.792      341.627       16.471      863.408
09/22/2014  01:08:00      -22.846      -10.485       -4.037       15.020       10.297        8.883      225.608      106.023       78.914        0.053        0.021       25.137        6.869        0.075      341.700       16.595      863.415
09/22/2014  01:09:00      -53.132       -7.020       -5.283       28.530        8.171       11.731      813.954       66.758      137.625        0.196        0.051       53.594       14.768        0.076      341.521       16.293      863.422
09/22/2014  01:10:00       15.400       20.221       -2.433       10.788       10.319        5.926      116.385      106.474       35.118        0.045        0.013       25.418        5.380        0.045      341.860       16.868      863.430
09/22/2014  01:11:00       33.474       14.447       -0.433        7.257        9.309        5.658       52.667       86.655       32.008        0.075        0.009       36.459        3.465        0.009      341.803       16.770      863.431
09/22/2014  01:12:00        1.952       -1.889        9.847       12.758       22.202       14.982      162.777      492.925      224.475        0.049        0.044        2.717       14.347       27.892      341.667       16.539      863.430
09/22/2014  01:13:00       17.366       -2.715       12.752       23.875       34.398       25.276      570.035     1183.193      638.867        0.143        0.120       17.577       14.203        0.653      341.535       16.317      863.424
09/22/2014  01:14:00       17.432      -36.052       23.620       27.323       31.532       27.243      746.546      994.284      742.173        0.232        0.124       40.045       17.238        0.185      341.607       16.437      863.433
09/22/2014  01:15:00       14.872      -81.510       -9.840       22.976       31.070       18.635      527.917      965.340      347.270        0.440        0.092       82.856       19.173        0.054      341.834       16.821      863.475
09/22/2014  01:16:00      -14.512       -7.873      -13.365       15.241       23.318        9.946      232.274      543.715       98.932        0.066        0.044       16.510        6.165        0.139      341.645       16.502      863.510
09/22/2014  01:17:00      -30.521       13.586        7.832       26.046       26.618       13.914      678.397      708.522      193.607        0.138        0.079       33.408       16.559        0.246      341.457       16.183      863.534
09/22/2014  01:18:00      -58.093       39.371       -7.613       29.645       24.251       15.810      878.810      588.110      249.969        0.335        0.086       70.177       14.428        0.042      341.382       16.055      863.544
09/22/2014  01:19:00      -49.889       18.887       -6.051       24.099       17.691       11.339      580.784      312.984      128.562        0.195        0.051       53.345       11.653        0.048      341.443       16.159      863.553
09/22/2014  01:20:00      -47.425        8.126       -6.697       15.665       14.641        9.996      245.379      214.367       99.923        0.146        0.028       48.117        9.196        0.037      341.461       16.189      863.564
09/22/2014  01:21:00      -56.279        6.123       -8.215       11.769       14.349        8.546      138.516      205.898       73.026        0.184        0.021       56.611        5.862        0.011      341.472       16.208      863.579
09/22/2014  01:22:00      -62.483       -4.136        2.415       30.950       20.119       15.298      957.907      404.766      234.025        0.276        0.080       62.619       13.899        0.049      341.347       15.995      863.584
09/22/2014  01:23:00      -56.289      -20.026       -1.770       36.272       26.823       16.135     1315.635      719.451      260.337        0.293        0.115       59.745       13.950        0.055      341.324       15.957      863.571
09/22/2014  01:24:00      -35.104      -21.794       -7.416       26.485       19.057       10.163      701.452      363.173      103.283        0.146        0.058       41.320        8.058        0.038      341.351       16.003      863.570
09/22/2014  01:25:00      -72.000      -25.288       -8.849       16.773       22.024       10.099      281.348      485.038      101.999        0.338        0.043       76.311        7.388        0.009      341.380       16.054      863.579
09/22/2014  01:26:00      -65.158       -4.161       -2.970       22.152       19.732       13.389      490.724      389.344      179.264        0.267        0.053       65.291        6.806        0.011      341.330       15.968      863.581
09/22/2014  01:27:00      -61.748       -4.074        2.015       38.503       18.047       17.056     1482.471      325.706      290.904        0.297        0.105       61.882       20.269        0.107      341.329       15.966      863.581
09/22/2014  01:28:00      -25.481      -11.927        1.137       12.245       14.167        9.703      149.944      200.702       94.143        0.062        0.022       28.135        5.484        0.038      341.281       15.884      863.575
09/22/2014  01:29:00      -11.983       -3.421        0.167       15.000        7.090        6.074      225.014       50.263       36.891        0.023        0.016       12.462        1.248        0.010      341.381       16.054      863.575
09/22/2014  01:30:00      -19.650      -11.276       -6.371       10.532        7.447        8.798      110.915       55.457       77.406        0.040        0.012       22.656        5.011        0.049      341.460       16.186      863.574
09/22/2014  01:31:00      -72.312      -13.353       -9.909       19.798       10.762        8.641      391.973      115.821       74.669        0.304        0.029       73.534        3.653        0.002      341.424       16.125      863.581
09/22/2014  01:32:00      -87.334      -20.563       -6.874       15.792       13.202       11.203      249.377      174.284      125.513        0.432        0.027       89.722        8.651        0.009      341.276       15.876      863.592
09/22/2014  01:33:00      -89.358      -30.949      -12.411       11.683       13.386        9.360      136.492      179.184       87.618        0.475        0.020       94.566        5.361        0.003      341.265       15.858      863.611
09/22/2014  01:34:00      -72.879      -27.684       -6.144       13.805       15.056        7.660      190.589      226.675       58.682        0.330        0.024       77.960        6.842        0.008      341.234       15.806      863.629
09/22/2014  01:35:00      -94.723      -28.029       -5.236       19.189       15.957       12.902      368.200      254.628      166.456        0.529        0.039       98.783        8.913        0.008      341.211       15.768      863.642
09/22/2014  01:36:00      -87.754      -21.776       -8.151       14.716       18.190       10.748      216.557      330.877      115.515        0.445        0.033       90.416        6.465        0.005      341.187       15.728      863.657
09/22/2014  01:37:00      -97.172        3.397      -12.956       12.676       11.677        9.887      160.689      136.361       97.757        0.501        0.020       97.231        5.339        0.003      341.164       15.687      863.666
09/22/2014  01:38:00      -61.004       -4.314       -7.087       24.603       19.033       17.088      605.309      362.253      292.014        0.252        0.063       61.156       14.079        0.053      341.113       15.601      863.666
09/22/2014  01:39:00      -63.761      -16.438       -4.720       22.486       22.290       11.029      505.638      496.864      121.628        0.274        0.056       65.846        9.755        0.022      341.136       15.640      863.666
09/22/2014  01:40:00      -58.800      -12.481       -7.510       20.944       12.267       11.091      438.659      150.485      123.002        0.219        0.036       60.110       10.728        0.032      341.161       15.681      863.659
09/22/2014  01:41:00      -31.479      -11.393       -9.517       12.584       15.252        9.841      158.366      232.611       96.848        0.085        0.024       33.478        9.633        0.083      341.135       15.638      863.654
09/22/2014  01:42:00      -36.243       -8.089      -15.221        8.762       13.125        6.632       76.775      172.253       43.984        0.095        0.015       37.135        4.811        0.017      341.268       15.863      863.654
09/22/2014  01:43:00      -30.208      -12.655       -6.452        9.098       10.993        6.681       82.779      120.840       44.635        0.068        0.012       32.752        2.784        0.007      341.581       16.393      863.666
09/22/2014  01:44:00      -49.611      -30.585      -10.094       14.451       13.322        7.541      208.827      177.487       56.870        0.197        0.022       58.281        6.060        0.011      341.330       15.968      863.676
09/22/2014  01:45:00      -58.147      -26.240       -8.274       11.659        8.655        8.585      135.930       74.908       73.695        0.221        0.014       63.794        4.508        0.005      341.186       15.724      863.686
09/22/2014  01:46:00      -60.380      -19.725       -4.634        8.869       12.046        7.565       78.664      145.101       57.227        0.217        0.014       63.520        6.875        0.012      341.223       15.787      863.688
09/22/2014  01:47:00      -50.426        0.917       -7.843        8.079        6.739        5.142       65.276       45.420       26.438        0.137        0.007       50.435        2.138        0.002      341.265       15.856      863.677
09/22/2014  01:48:00      -45.660        1.113      -10.395        6.059        6.506        4.321       36.705       42.329       18.674        0.115        0.005       45.674        2.060        0.002      341.306       15.926      863.674
09/22/2014  01:49:00      -41.259       -4.197       -5.921        6.879        6.567        5.834       47.316       43.125       34.030        0.094        0.006       41.471        3.886        0.009      341.334       15.973      863.670
09/22/2014  01:50:00      -53.490      -19.819      -13.206       10.203        7.896        7.977      104.101       62.341       63.633        0.183        0.012       57.044        4.045        0.005      341.257       15.846      863.682
09/22/2014  01:51:00      -40.576      -19.630      -11.125        8.155        6.849        5.621       66.500       46.909       31.591        0.115        0.007       45.074        4.298        0.009      341.287       15.894      863.685
09/22/2014  01:52:00      -26.103      -21.865      -10.687       12.176        6.277        6.107      148.261       39.394       37.292        0.075        0.011       34.051        5.462        0.026      341.291       15.900      863.675
09/22/2014  01:53:00      -57.798      -24.003       -9.649        8.044       14.511        6.236       64.710      210.583       38.884        0.216        0.016       62.584        1.890        0.001      341.333       15.974      863.672
09/22/2014  01:54:00      -74.299      -17.497      -14.154       13.387       11.852       11.784      179.215      140.479      138.870        0.324        0.023       76.332        5.338        0.005      341.026       15.452      863.677
09/22/2014  01:55:00      -74.436       -4.916      -11.093       23.011       14.125       11.295      529.497      199.517      127.572        0.327        0.043       74.598       11.219        0.023      340.970       15.357      863.681
09/22/2014  01:56:00      -20.615        4.178       -2.882       20.217       20.608       11.121      408.741      424.675      123.668        0.070        0.048       21.034        8.378        0.159      340.863       15.178      863.677
09/22/2014  01:57:00      -55.819        9.363      -12.551       31.412       22.657       17.916      986.688      513.341      321.000        0.259        0.091       56.598       17.909        0.100      340.949       15.323      863.668
09/22/2014  01:58:00      -22.120      -31.508       -4.554       21.397       14.361       12.501      457.815      206.230      156.277        0.116        0.041       38.497        1.942        0.003      340.964       15.347      863.656
09/22/2014  01:59:00       -8.538      -18.905       -8.656       16.233       18.875       11.469      263.509      356.247      131.547        0.063        0.038       20.743       12.311        0.352      341.079       15.543      863.645
09/22/2014  02:00:00      -43.137      -11.163      -14.480       27.405       11.311        8.402      751.044      127.934       70.602        0.157        0.047       44.558        7.168        0.026      341.160       15.681      863.651
09/22/2014  02:01:00      -95.764      -36.295       -9.358       18.682       23.787       15.017      349.015      565.825      225.517        0.586        0.057      102.411       10.012        0.010      340.976       15.369      863.663
09/22/2014  02:02:00      -86.796      -28.812       -4.336       29.654       32.816       18.305      879.343     1076.885      335.078        0.534        0.115       91.453       11.493        0.016      340.834       15.128      863.667
09/22/2014  02:03:00      -28.056        4.081       -0.767       27.921       21.883       15.218      779.605      478.883      231.586        0.115        0.075       28.351        9.665        0.116      340.897       15.235      863.656
09/22/2014  02:04:00      -13.646       -3.903       -5.202       15.800       25.222       10.671      249.655      636.167      113.864        0.061        0.050       14.193        6.789        0.229      341.032       15.463      863.645
09/22/2014  02:05:00      -52.535      -16.366      -12.445       17.114       15.966       17.659      292.875      254.929      311.841        0.202        0.043       55.025        9.441        0.029      341.076       15.538      863.640
09/22/2014  02:06:00     -141.845      -37.116      -11.261       39.424       27.871       19.094     1554.282      776.802      364.599        1.216        0.135      146.621       14.957        0.010      340.865       15.180      863.657
09/22/2014  02:07:00      -87.066        8.814       -4.917       42.186       41.282       24.544     1779.685     1704.215      602.417        0.588        0.204       87.511       23.793        0.074      340.705       14.912      863.655
09/22/2014  02:08:00      -50.714        2.360       -1.521       32.148       20.829       15.466     1033.468      433.850      239.201        0.214        0.085       50.769       14.142        0.078      340.794       15.059      863.643
09/22/2014  02:09:00      -18.883       -5.548       -2.830       14.969       10.616        9.997      224.077      112.691       99.941        0.042        0.022       19.681        5.172        0.069      340.875       15.198      863.638
09/22/2014  02:10:00      -27.013      -25.634       -3.008       21.206       11.541       12.409      449.676      133.206      153.979        0.107        0.037       37.240        7.393        0.039      340.886       15.216      863.649
09/22/2014  02:11:00      -52.058      -27.217       -2.911       23.598       16.648       13.145      556.853      277.145      172.787        0.223        0.050       58.744        7.488        0.016      340.802       15.073      863.669
09/22/2014  02:12:00     -126.441      -33.040       -0.412       69.565       50.900       28.964     4839.349     2590.770      838.907        1.267        0.413      130.686       25.319        0.038      340.697       14.896      863.680
09/22/2014  02:13:00     -116.177      -26.519       -8.373       36.308       37.165       18.148     1318.253     1381.268      329.341        0.865        0.151      119.165       14.105        0.014      340.616       14.760      863.692
09/22/2014  02:14:00      -33.836      -29.720       -2.037       43.561       25.393       18.639     1897.598      644.785      347.421        0.246        0.144       45.035       22.974        0.260      340.674       14.858      863.692
09/22/2014  02:15:00     -129.583      -53.581       -6.015       16.847       20.048       11.645      283.833      401.919      135.611        1.026        0.041      140.223        7.178        0.003      340.703       14.908      863.693
09/22/2014  02:16:00     -130.509      -11.636      -16.619       31.943       32.710       18.247     1020.346     1069.927      332.946        0.993        0.121      131.026       13.802        0.011      340.652       14.822      863.699
09/22/2014  02:17:00     -119.921       31.776       -4.960       34.554       29.496       16.070     1194.008      870.026      258.253        0.887        0.116      124.059       14.343        0.013      340.696       14.895      863.690
09/22/2014  02:18:00     -111.896       32.578       -5.055       33.290       21.254       14.861     1108.231      451.739      220.861        0.769        0.089      116.542       11.939        0.010      340.767       15.016      863.675
09/22/2014  02:19:00      -47.887       -4.942       -4.103       24.289       15.125       13.032      589.958      228.775      169.837        0.166        0.049       48.141       10.691        0.049      340.790       15.052      863.663
09/22/2014  02:20:00      -48.916      -27.748      -12.906       24.050       12.874       13.860      578.424      165.749      192.101        0.213        0.047       56.238       12.075        0.046      340.851       15.156      863.661
09/22/2014  02:21:00      -66.877      -36.412      -11.168       32.196       20.182       12.984     1036.569      407.294      168.576        0.377        0.081       76.146        9.394        0.015      340.816       15.098      863.665
09/22/2014  02:22:00      -48.203      -32.196       -5.404       27.746       15.433       11.264      769.839      238.180      126.887        0.226        0.057       57.966        7.576        0.017      340.751       14.988      863.673
09/22/2014  02:23:00      -82.701      -42.040      -14.050       16.831       12.339       10.827      283.279      152.259      117.215        0.468        0.028       92.773        9.718        0.011      340.756       14.995      863.673
09/22/2014  02:24:00     -112.800      -37.984      -13.194       18.001       14.408       12.266      324.020      207.598      150.448        0.751        0.034      119.024        6.579        0.003      340.739       14.968      863.669
09/22/2014  02:25:00     -130.577      -55.406      -12.152       28.532       22.146       17.353      814.084      490.426      301.127        1.094        0.080      141.845       13.694        0.009      340.706       14.911      863.679
09/22/2014  02:26:00      -54.238      -52.047       19.267       67.195       35.302       29.083     4515.142     1246.266      845.812        0.631        0.330       75.171       34.650        0.212      340.650       14.816      863.703
09/22/2014  02:27:00     -101.129      -30.563      -10.607       24.656       23.129       13.788      607.928      534.932      190.116        0.630        0.067      105.646       12.021        0.013      340.650       14.817      863.709
09/22/2014  02:28:00      -78.895      -19.931       -8.702       34.854       30.515       20.119     1214.786      931.183      404.784        0.462        0.128       81.374       16.795        0.043      340.544       14.638      863.710
09/22/2014  02:29:00      -75.385      -18.841       -6.405       50.697       30.805       18.823     2570.163      948.973      354.311        0.498        0.194       77.704       24.268        0.098      340.570       14.681      863.722
09/22/2014  02:30:00      -86.729      -18.708       -1.990       40.481       40.814       20.456     1638.722     1665.797      418.463        0.580        0.186       88.724       22.297        0.063      340.568       14.679      863.748
09/22/2014  02:31:00      -69.100      -23.906       -5.406       20.941       28.274       13.396      438.536      799.417      179.444        0.340        0.071       73.119        8.873        0.015      340.591       14.718      863.754
09/22/2014  02:32:00      -87.896       -6.061       -7.038       23.641       23.646       17.192      558.921      559.127      295.571        0.461        0.071       88.105       13.808        0.025      340.593       14.719      863.753
09/22/2014  02:33:00      -64.498      -17.992       -1.033       21.934       17.397       14.738      481.112      302.670      217.207        0.274        0.050       66.960       13.202        0.039      340.582       14.702      863.758
09/22/2014  02:34:00      -77.710      -27.864       -5.136       16.470       18.994       11.581      271.251      360.774      134.109        0.380        0.038       82.554        5.745        0.005      340.622       14.770      863.771
09/22/2014  02:35:00     -120.371      -44.803       -5.304       26.042       30.276       17.667      678.195      916.654      312.122        0.922        0.095      128.439        8.295        0.004      340.611       14.752      863.782
09/22/2014  02:36:00      -81.626      -11.219        2.961       46.853       32.367       24.109     2195.242     1047.635      581.237        0.531        0.191       82.393       22.802        0.077      340.490       14.546      863.781
09/22/2014  02:37:00      -83.214      -10.973       -6.483       31.745       31.328       22.004     1007.774      981.447      484.185        0.478        0.124       83.934       18.416        0.048      340.468       14.508      863.794
09/22/2014  02:38:00     -122.602        1.933      -12.670       31.617       27.411       21.609      999.618      751.353      466.954        0.871        0.111      122.617       14.734        0.014      340.473       14.518      863.798
09/22/2014  02:39:00     -128.379       27.660       -8.483       31.042       30.179       24.737      963.635      910.773      611.935        0.990        0.124      131.325       19.515        0.022      340.453       14.484      863.800
09/22/2014  02:40:00     -137.024       21.475      -13.904       27.292       29.065       13.330      744.838      844.764      177.698        1.060        0.088      138.696        7.214        0.003      340.533       14.619      863.801
09/22/2014  02:41:00      -94.116        0.183       -4.411       42.821       31.962       16.986     1833.608     1021.582      288.524        0.601        0.157       94.116       18.318        0.038      340.556       14.658      863.806
09/22/2014  02:42:00      -65.002      -31.713       -4.994       23.739       20.039       14.751      563.557      401.576      217.597        0.322        0.059       72.326        4.162        0.003      340.539       14.630      863.806
09/22/2014  02:43:00     -109.152      -10.646      -11.434       19.614       20.292       13.187      384.729      411.781      173.890        0.656        0.049      109.670       10.968        0.010      340.535       14.623      863.793
09/22/2014  02:44:00      -91.718       -9.051       -4.943       27.999       16.220       17.293      783.943      263.089      299.048        0.493        0.067       92.163       15.870        0.030      340.517       14.592      863.774
09/22/2014  02:45:00     -104.399       -3.270      -11.299       35.038       27.891       22.065     1227.685      777.904      486.886        0.676        0.125      104.450       22.140        0.045      340.472       14.516      863.761
09/22/2014  02:46:00     -103.842        3.063       -5.196       51.627       29.026       23.311     2665.305      842.499      543.383        0.743        0.203      103.887       26.030        0.063      340.588       14.712      863.756
09/22/2014  02:47:00     -186.732       37.563      -15.403       21.410       23.836       14.469      458.377      568.140      209.346        1.888        0.062      190.473        9.225        0.002      340.585       14.707      863.759
09/22/2014  02:48:00     -149.509       24.081       -9.006       28.500       36.612       19.257      812.227     1340.432      370.843        1.277        0.126      151.436        8.879        0.003      340.507       14.572      863.756
09/22/2014  02:49:00     -135.778       -9.850      -14.198       35.956       33.593       21.698     1292.834     1128.465      470.787        1.081        0.145      136.135       13.817        0.010      340.542       14.635      863.751
09/22/2014  02:50:00     -125.991       -3.780      -14.556       35.017       31.161       24.547     1226.186      971.024      602.554        0.945        0.140      126.048       20.568        0.027      340.543       14.636      863.735
09/22/2014  02:51:00      -84.534      -13.317       -2.544       49.997       44.532       27.361     2499.718     1983.079      748.646        0.628        0.262       85.576       15.704        0.034      340.511       14.579      863.730
09/22/2014  02:52:00     -102.578       23.841      -27.441       33.463       43.820       17.338     1119.783     1920.177      300.594        0.759        0.167      105.312       13.021        0.015      340.481       14.529      863.724
09/22/2014  02:53:00      -53.273       -4.829       -8.879       40.490       20.520       15.812     1639.441      421.068      250.010        0.262        0.116       53.491       16.790        0.099      340.569       14.682      863.710
09/22/2014  02:54:00      -41.545       10.410      -13.267       17.375       20.702       11.583      301.894      428.587      134.164        0.144        0.043       42.829        6.581        0.024      340.583       14.704      863.692
09/22/2014  02:55:00      -72.484      -15.096      -17.982       13.772       17.393       13.933      189.659      302.532      194.116        0.325        0.034       74.040        5.417        0.005      340.561       14.666      863.701
09/22/2014  02:56:00      -77.852      -45.622      -11.426       20.748       18.737       13.339      430.488      351.076      177.918        0.462        0.048       90.234        8.803        0.010      340.495       14.555      863.710
09/22/2014  02:57:00      -65.414       -4.426       -8.621       28.528       24.840       16.916      813.843      617.033      286.164        0.304        0.086       65.563       12.444        0.036      340.497       14.560      863.720
09/22/2014  02:58:00      -40.622       22.219       -3.756       22.800       31.574       16.920      519.830      996.931      286.280        0.198        0.090       46.301       16.214        0.123      340.548       14.645      863.716
09/22/2014  02:59:00       -3.878       70.869       -7.408       38.989       24.817       15.289     1520.148      615.886      233.742        0.373        0.118       70.975       14.481        0.042      340.797       15.065      863.692
09/22/2014  03:00:00      -37.907       79.326       -7.692       35.172       53.775       20.703     1237.081     2891.790      428.596        0.617        0.228       87.918       22.283        0.064      340.857       15.169      863.691
09/22/2014  03:01:00      -71.275      -10.507       -4.629       50.103       32.602       18.169     2510.328     1062.905      330.116        0.456        0.195       72.045        4.063        0.003      340.779       15.036      863.704
09/22/2014  03:02:00      -93.428      -50.874       -9.459       39.118       23.665       18.884     1530.255      560.042      356.596        0.693        0.122      106.381       12.387        0.014      340.543       14.637      863.706
09/22/2014  03:03:00      -57.555      -44.030        0.354       26.734       17.295       14.581      714.723      299.108      212.599        0.324        0.061       72.465        9.284        0.016      340.585       14.707      863.707
09/22/2014  03:04:00      -67.396      -30.685       -2.530       29.260       20.487       12.730      856.156      419.713      162.051        0.346        0.072       74.053       14.128        0.036      340.627       14.778      863.695
09/22/2014  03:05:00     -117.854      -62.698       -3.745       34.833       36.650       17.886     1213.325     1343.259      319.921        1.036        0.144      133.494       17.697        0.018      340.630       14.784      863.670
09/22/2014  03:06:00     -105.666      -59.390       -3.073       53.026       28.453       21.044     2811.725      809.550      442.861        0.938        0.203      121.213       21.529        0.032      340.584       14.704      863.652
09/22/2014  03:07:00      -75.047      -73.985       -2.878       50.769       41.865       23.602     2577.447     1752.654      557.031        0.800        0.244      105.384       23.457        0.050      340.567       14.678      863.636
09/22/2014  03:08:00      -32.441      -54.629       -2.600       32.328       16.372       16.834     1045.083      268.027      283.375        0.282        0.080       63.536       13.102        0.043      340.720       14.935      863.600
09/22/2014  03:09:00        1.237      -28.965       -2.282        7.953       13.144        9.120       63.254      172.761       83.174        0.058        0.016       28.991        6.125        0.045      340.871       15.191      863.567
09/22/2014  03:10:00       -7.718      -23.777        1.159        7.021        8.926       10.262       49.292       79.676      105.309        0.043        0.012       24.998        5.310        0.045      341.067       15.522      863.542
09/22/2014  03:11:00      -58.438      -13.254       -7.559       24.025       16.901       10.208      577.184      285.634      104.210        0.231        0.048       59.922        8.545        0.020      340.947       15.320      863.542
09/22/2014  03:12:00      -83.645       -6.161       -8.111       22.396       15.134        9.808      501.568      229.028       96.204        0.396        0.041       83.872        7.802        0.009      340.694       14.891      863.542
09/22/2014  03:13:00      -65.054        8.729       -8.883       14.193        8.674        5.536      201.444       75.243       30.644        0.235        0.015       65.638        1.764        0.001      340.870       15.190      863.529
09/22/2014  03:14:00      -49.329       -8.265       -7.022       11.245       19.333        7.580      126.441      373.746       57.456        0.155        0.028       50.016        3.405        0.005      341.055       15.505      863.524
09/22/2014  03:15:00     -137.116      -49.162      -10.036       27.629       19.841       13.938      763.371      393.668      194.265        1.133        0.068      145.663        5.312        0.001      340.638       14.796      863.518
09/22/2014  03:16:00     -118.012      -33.198      -11.213       41.287       29.803       21.859     1704.583      888.244      477.835        0.911        0.154      122.592       22.713        0.034      340.589       14.714      863.519
09/22/2014  03:17:00     -109.097      -12.492       -5.225       28.282       19.561       16.214      799.896      382.615      262.902        0.677        0.072      109.810       16.950        0.024      340.621       14.768      863.517
09/22/2014  03:18:00      -62.751       46.410      -14.108       23.127       16.414       12.893      534.839      269.428      166.217        0.363        0.049       78.049        9.323        0.014      340.933       15.297      863.513
09/22/2014  03:19:00     -104.658      -37.473       -5.484       54.111       30.768       12.646     2928.043      946.662      159.931        0.821        0.202      111.164       10.967        0.010      340.845       15.147      863.514
09/22/2014  03:20:00     -114.879      -84.728       -4.847       55.220       21.293       19.022     3049.231      453.400      361.824        1.213        0.193      142.744       14.137        0.010      340.644       14.806      863.516
09/22/2014  03:21:00      -69.070      -43.342       -3.243       18.037       17.615       12.547      325.324      310.303      157.424        0.373        0.040       81.543        7.384        0.008      340.667       14.846      863.522
09/22/2014  03:22:00     -117.047      -90.369       -3.089       63.283       41.443       29.002     4004.749     1717.518      841.111        1.422        0.328      147.874       25.773        0.030      340.615       14.757      863.538
09/22/2014  03:23:00     -124.508      -65.897       -4.392       45.312       31.033       22.575     2053.211      963.045      509.636        1.169        0.176      140.871       17.645        0.016      340.590       14.715      863.550
09/22/2014  03:24:00      -81.220      -35.465       -3.556       24.608       12.505        9.165      605.578      156.384       83.991        0.436        0.042       88.625        4.796        0.003      340.702       14.907      863.546
09/22/2014  03:25:00      -62.056      -41.608        3.341       35.977       25.970       15.270     1294.338      674.433      233.174        0.390        0.110       74.714       16.699        0.050      340.637       14.795      863.544
09/22/2014  03:26:00      -52.620      -41.242        7.770       42.057       33.256       22.854     1768.756     1105.971      522.296        0.396        0.170       66.856       15.765        0.056      340.536       14.623      863.541
09/22/2014  03:27:00      -75.869      -67.376        4.421       40.002       29.583       16.236     1600.133      875.130      263.613        0.653        0.137      101.467       20.451        0.041      340.573       14.686      863.550
09/22/2014  03:28:00      -85.045      -45.395       -3.590       29.842       23.002       12.654      890.525      529.076      160.112        0.544        0.079       96.402        4.738        0.002      340.601       14.736      863.540
09/22/2014  03:29:00     -124.331      -77.839        0.001       30.631       23.712       21.314      938.238      562.258      454.303        1.174        0.098      146.687       18.475        0.016      340.630       14.784      863.544
09/22/2014  03:30:00      -92.085      -61.378        7.306       46.796       36.271       23.745     2189.875     1315.566      563.807        0.818        0.203      110.665       20.013        0.033      340.581       14.702      863.549
09/22/2014  03:31:00      -57.171      -36.526        6.706       49.921       34.653       25.168     2492.103     1200.812      633.423        0.449        0.216       67.843       28.995        0.183      340.595       14.723      863.553
09/22/2014  03:32:00      -93.861      -83.807        3.141       38.391       28.284       24.546     1473.904      799.978      602.504        0.936        0.144      125.831       19.786        0.025      340.663       14.839      863.551
09/22/2014  03:33:00      -99.570      -87.697        7.708       62.739       45.212       38.923     3936.125     2044.114     1514.990        1.258        0.375      132.684       40.713        0.094      340.562       14.666      863.560
09/22/2014  03:34:00      -90.564      -85.502       -8.309       55.232       41.388       33.204     3050.529     1712.951     1102.519        1.072        0.293      124.549       19.701        0.025      340.599       14.731      863.569
09/22/2014  03:35:00     -113.950      -79.731       -8.120       64.503       39.937       33.555     4160.662     1594.964     1125.956        1.314        0.344      139.074       35.027        0.063      340.497       14.559      863.581
09/22/2014  03:36:00     -129.391      -97.806       -6.098       50.719       36.351       32.546     2572.383     1321.376     1059.262        1.565        0.248      162.197       25.254        0.024      340.509       14.578      863.597
09/22/2014  03:37:00     -118.292      -56.502        0.652       34.624       36.178       22.087     1198.849     1308.814      487.847        1.009        0.150      131.093       16.676        0.016      340.531       14.617      863.608
09/22/2014  03:38:00     -128.237      -68.494       -9.676       30.605       24.987       20.919      936.679      624.365      437.622        1.161        0.100      145.383       14.077        0.009      340.557       14.660      863.610
09/22/2014  03:39:00     -113.748      -53.609       -6.048       29.665       24.270       20.293      880.039      589.043      411.818        0.886        0.094      125.748       10.491        0.007      340.549       14.646      863.630
09/22/2014  03:40:00      -76.752      -34.332       -0.043       28.492       23.342       12.954      811.790      544.865      167.799        0.430        0.076       84.081       11.999        0.020      340.530       14.615      863.647
09/22/2014  03:41:00      -54.676      -23.860       -8.128       28.377       16.822        9.864      805.280      282.965       97.296        0.240        0.059       59.656        9.928        0.028      340.468       14.511      863.662
09/22/2014  03:42:00      -51.408      -10.216       -6.701       27.961       13.357        8.325      781.823      178.411       69.309        0.191        0.051       52.413        4.936        0.009      340.438       14.458      863.670
09/22/2014  03:43:00      -67.726      -14.923       -6.037       16.241       13.869       10.948      263.759      192.353      119.862        0.271        0.029       69.351        6.574        0.009      340.433       14.450      863.681
09/22/2014  03:44:00      -44.455      -23.732       -0.800       15.018       12.228       12.793      225.531      149.524      163.669        0.154        0.027       50.393        2.980        0.003      340.430       14.445      863.679
09/22/2014  03:45:00      -39.919      -25.160        8.681       34.802       14.544       14.200     1211.168      211.520      201.638        0.196        0.081       47.186       15.824        0.112      340.440       14.461      863.670
09/22/2014  03:46:00      -29.362      -26.317        6.383       31.330       16.313       13.899      981.591      266.102      193.182        0.152        0.072       39.430       17.424        0.195      340.490       14.547      863.654
09/22/2014  03:47:00      -24.787      -26.678        7.920       35.258       15.720       13.237     1243.127      247.108      175.225        0.153        0.083       36.416       18.541        0.259      340.557       14.660      863.648
09/22/2014  03:48:00      -49.096      -29.663       -2.844       26.183       19.828       16.012      685.572      393.142      256.389        0.232        0.067       57.361       16.027        0.078      340.636       14.793      863.642
09/22/2014  03:49:00      -75.133      -24.584        0.395       25.478       23.200       12.144      649.114      538.236      147.481        0.379        0.067       79.053       11.578        0.021      340.494       14.553      863.637
09/22/2014  03:50:00      -56.497      -31.587       -0.351       32.963       24.400       14.200     1086.557      595.357      201.632        0.304        0.094       64.727       14.863        0.053      340.561       14.666      863.634
09/22/2014  03:51:00      -51.621      -18.118        3.240       27.244       20.844       15.249      742.209      434.480      232.530        0.221        0.070       54.708       11.697        0.046      340.396       14.387      863.638
09/22/2014  03:52:00      -53.033       -0.294        4.489       29.385       23.384       16.929      863.477      546.832      286.595        0.226        0.085       53.034       13.995        0.070      340.253       14.144      863.645
09/22/2014  03:53:00      -53.545       -6.367       -5.977       26.609       19.982       14.680      708.065      399.297      215.488        0.213        0.066       53.922       16.232        0.091      340.230       14.106      863.646
09/22/2014  03:54:00      -58.206      -18.406       -3.184       19.007       18.826       15.285      361.275      354.408      233.626        0.234        0.047       61.047       12.486        0.042      340.325       14.266      863.645
09/22/2014  03:55:00      -57.539      -29.638       -0.921       16.289       13.607       11.366      265.323      185.163      129.179        0.238        0.029       64.724        7.670        0.014      340.413       14.416      863.624
09/22/2014  03:56:00      -57.522      -38.946       -1.069       24.957       19.985       15.899      622.863      399.390      252.772        0.305        0.064       69.466       15.250        0.048      340.359       14.325      863.613
09/22/2014  03:57:00      -81.978      -35.513       -9.965       15.185       16.167        9.488      230.580      261.372       90.026        0.433        0.029       89.340        5.139        0.003      340.281       14.192      863.617
09/22/2014  03:58:00      -70.920      -13.877       -5.571       20.087       18.353       12.070      403.504      336.849      145.680        0.307        0.044       72.265       10.283        0.020      340.194       14.045      863.609
09/22/2014  03:59:00      -66.901      -11.238       -2.906       25.613       17.353       13.921      656.038      301.114      193.797        0.288        0.058       67.838       14.067        0.043      340.161       13.991      863.610
09/22/2014  04:00:00      -34.288      -32.029        3.641       38.336       15.041       13.705     1469.672      226.245      187.834        0.205        0.094       46.921       19.898        0.180      340.218       14.086      863.625
09/22/2014  04:01:00      -62.981      -26.322        1.416       22.689       13.405       14.274      514.811      179.689      203.744        0.278        0.045       68.260        9.808        0.021      340.288       14.204      863.639
09/22/2014  04:02:00      -66.607      -34.928       -4.376       16.751       15.106       12.434      280.580      228.182      154.594        0.317        0.033       75.209        9.084        0.015      340.367       14.338      863.646
09/22/2014  04:03:00      -14.077      -27.454        2.146       18.574       20.292       13.805      344.982      411.746      190.587        0.095        0.047       30.852       10.035        0.106      340.337       14.289      863.664
09/22/2014  04:04:00      -28.067      -33.611       -2.574       20.464       23.161       10.801      418.756      536.432      116.657        0.150        0.054       43.789        5.684        0.017      340.442       14.466      863.672
09/22/2014  04:05:00      -37.730      -50.382       -2.643       28.304       22.948       10.061      801.105      526.589      101.230        0.270        0.071       62.943        7.315        0.014      340.475       14.521      863.682
09/22/2014  04:06:00      -42.237      -34.141        3.000       30.683       35.535       15.500      941.416     1262.730      240.247        0.270        0.122       54.310       13.155        0.059      340.445       14.469      863.690
09/22/2014  04:07:00      -27.272      -30.039        7.130       22.278       21.709       10.561      496.320      471.275      111.538        0.139        0.054       40.572        5.680        0.020      340.415       14.420      863.696
09/22/2014  04:08:00      -77.848      -19.829       -5.956       21.757       21.122       10.137      473.355      446.142      102.761        0.376        0.051       80.334        9.999        0.015      340.453       14.483      863.684
09/22/2014  04:09:00      -76.124      -29.807       -7.440       18.052       21.317       16.957      325.874      454.423      287.525        0.390        0.053       81.752       10.896        0.018      340.413       14.417      863.667
09/22/2014  04:10:00      -62.614      -28.966       -5.398       14.014       14.568       11.910      196.392      212.235      141.847        0.267        0.028       68.989        7.958        0.013      340.399       14.393      863.653
09/22/2014  04:11:00      -57.096      -33.598       -0.454       20.655       14.356       10.239      426.649      206.095      104.830        0.256        0.037       66.248        5.871        0.008      340.395       14.388      863.640
09/22/2014  04:12:00      -38.646      -28.135        5.588       30.993       19.184       18.451      960.578      368.008      340.449        0.199        0.083       47.803       13.542        0.080      340.353       14.316      863.631
09/22/2014  04:13:00      -56.888      -50.370       -0.400       21.278       27.569       12.173      452.759      760.042      148.173        0.357        0.068       75.983        8.501        0.013      340.372       14.348      863.631
09/22/2014  04:14:00      -41.941      -44.671        3.464       32.623       21.312       19.643     1064.230      454.201      385.832        0.284        0.095       61.274       17.720        0.084      340.361       14.330      863.638
09/22/2014  04:15:00      -46.707      -48.867        3.239       30.563       23.230       13.920      934.125      539.620      193.773        0.312        0.083       67.598       13.727        0.041      340.359       14.326      863.646
09/22/2014  04:16:00      -58.372      -51.743        1.904       29.051       18.518       18.118      843.973      342.928      328.261        0.380        0.076       78.004       13.728        0.031      340.365       14.337      863.658
09/22/2014  04:17:00      -38.987      -51.194        1.004       38.532       29.558       16.885     1484.723      873.685      285.110        0.339        0.132       64.349       20.400        0.101      340.321       14.261      863.665
09/22/2014  04:18:00      -16.912      -31.424        7.231       26.648       25.444       19.822      710.091      647.384      392.916        0.154        0.088       35.686       18.570        0.271      340.330       14.278      863.661
09/22/2014  04:19:00      -24.750      -39.014        4.757       32.039       20.880       17.693     1026.524      435.995      313.030        0.197        0.089       46.203       13.282        0.083      340.264       14.164      863.647
09/22/2014  04:20:00      -31.746      -30.181        6.534       29.237       24.521       17.286      854.791      601.275      298.789        0.186        0.088       43.803       13.264        0.092      340.237       14.119      863.630
09/22/2014  04:21:00      -16.021      -28.877        5.157       28.161       26.152       15.676      793.053      683.905      245.723        0.142        0.086       33.024       13.948        0.178      340.246       14.134      863.612
09/22/2014  04:22:00      -18.543      -35.767        8.295       30.377       24.411       19.700      922.737      595.883      388.108        0.180        0.095       40.288       15.959        0.157      340.237       14.119      863.587
09/22/2014  04:23:00      -20.668      -54.699        6.127       28.710       30.391       19.899      824.289      923.638      395.970        0.280        0.107       58.473       21.115        0.130      340.290       14.209      863.563
09/22/2014  04:24:00      -17.545      -35.219        8.889       33.447       18.766       17.565     1118.693      352.161      308.519        0.170        0.089       39.347        7.757        0.039      340.310       14.241      863.541
09/22/2014  04:25:00      -32.694      -31.701        1.713       36.922       23.395       18.892     1363.231      547.311      356.910        0.217        0.113       45.540       17.849        0.154      340.253       14.146      863.528
09/22/2014  04:26:00      -24.498      -12.523        4.748       22.077       14.840        9.961      487.396      220.213       99.219        0.079        0.040       27.513        8.595        0.098      340.155       13.982      863.520
09/22/2014  04:27:00      -32.646      -28.064        1.597       21.504       18.703       12.998      462.438      349.797      168.936        0.142        0.049       43.051        9.517        0.049      340.251       14.141      863.526
09/22/2014  04:28:00      -23.788      -28.535        6.297       24.534       18.600       16.647      601.919      345.969      277.134        0.132        0.061       37.150       13.355        0.129      340.244       14.131      863.531
09/22/2014  04:29:00      -46.171      -30.067        5.903       25.500       19.052       14.562      650.266      362.990      212.053        0.215        0.061       55.098        9.592        0.030      340.206       14.067      863.531
09/22/2014  04:30:00      -11.418      -31.773       -5.818       19.281       15.118        8.204      371.763      228.539       67.298        0.092        0.033       33.762        6.178        0.033      340.248       14.137      863.522
09/22/2014  04:31:00      -32.287      -18.669        1.646       31.568       20.595       12.918      996.533      424.154      166.869        0.149        0.079       37.296       11.406        0.094      340.239       14.123      863.528
09/22/2014  04:32:00      -13.001      -13.726        9.094       24.011       15.307       12.292      576.514      234.289      151.082        0.070        0.048       18.906       16.082        0.724      340.138       13.952      863.525
09/22/2014  04:33:00        3.994       -1.299        7.181       11.356        7.204        6.209      128.963       51.903       38.557        0.014        0.011        4.200        3.867        0.848      340.090       13.872      863.536
09/22/2014  04:34:00        9.317        6.652       -3.547       12.914        5.725        3.981      166.764       32.776       15.847        0.018        0.011       11.448        3.041        0.071      340.212       14.076      863.551
09/22/2014  04:35:00      -38.569      -17.010       -2.110       14.547       14.720        7.002      211.610      216.688       49.035        0.113        0.024       42.154        4.189        0.010      340.184       14.027      863.567
09/22/2014  04:36:00      -40.973      -18.988        4.661       28.449       18.594       11.578      809.343      345.723      134.039        0.167        0.064       45.159       10.095        0.050      340.068       13.835      863.572
09/22/2014  04:37:00      -31.385      -47.568        1.396       26.269       27.355       15.803      690.066      748.272      249.733        0.247        0.084       56.989       12.691        0.050      340.187       14.034      863.577
09/22/2014  04:38:00      -41.206      -64.321        7.166       28.971       29.582       24.870      839.332      875.119      618.514        0.411        0.117       76.388       19.541        0.065      340.226       14.101      863.584
09/22/2014  04:39:00      -53.638      -69.741        4.049       26.169       32.276       16.214      684.826     1041.713      262.907        0.487        0.099       87.982       14.396        0.027      340.189       14.039      863.604
09/22/2014  04:40:00      -70.721      -59.974       -4.339       42.978       21.502       16.228     1847.099      462.316      263.338        0.559        0.129       92.727       10.147        0.012      340.175       14.013      863.617
09/22/2014  04:41:00      -72.816      -73.024       -3.096       32.704       32.175       21.982     1069.520     1035.201      483.188        0.662        0.129      103.125       16.954        0.027      340.146       13.966      863.619
09/22/2014  04:42:00      -89.960     -103.865       -2.851       32.952       33.637       25.790     1085.836     1131.437      665.114        1.089        0.144      137.407       19.842        0.021      340.158       13.987      863.632
09/22/2014  04:43:00      -68.643      -78.367        5.249       41.079       33.973       26.856     1687.485     1154.171      721.231        0.722        0.178      104.179       18.160        0.030      340.118       13.918      863.646
09/22/2014  04:44:00      -56.474      -52.170        5.450       38.136       35.401       22.007     1454.390     1253.239      484.321        0.457        0.160       76.883       22.436        0.085      340.139       13.954      863.662
09/22/2014  04:45:00      -56.367      -20.611       10.024       55.374       34.053       23.800     3066.334     1159.602      566.425        0.425        0.240       60.017       28.084        0.219      340.037       13.782      863.671
09/22/2014  04:46:00      -99.278      -52.502      -10.322       36.905       20.412       20.559     1361.961      416.658      422.687        0.746        0.110      112.306       14.165        0.016      340.092       13.873      863.670
09/22/2014  04:47:00      -82.403      -36.370        1.528       34.467       36.257       21.180     1187.948     1314.569      448.581        0.553        0.148       90.072       19.510        0.047      339.995       13.711      863.674
09/22/2014  04:48:00      -53.389      -47.095        5.656       41.666       32.579       22.651     1736.086     1061.362      513.085        0.420        0.166       71.192       20.805        0.085      340.098       13.884      863.665
09/22/2014  04:49:00     -120.715      -46.949       -6.181       50.470       35.537       31.564     2547.246     1262.899      996.287        1.081        0.240      129.523       33.033        0.065      340.014       13.744      863.654
09/22/2014  04:50:00      -74.538      -88.206        3.950       56.859       54.580       25.220     3232.947     2978.962      636.053        1.010        0.342      115.483       24.412        0.045      340.044       13.793      863.641
09/22/2014  04:51:00      -70.096      -26.579        3.108       28.672       24.793       17.514      822.078      614.678      306.752        0.369        0.087       74.966       12.027        0.026      339.978       13.682      863.638
09/22/2014  04:52:00      -17.109      -34.251       12.708       27.004       28.131       18.918      729.226      791.346      357.883        0.175        0.094       38.287       12.624        0.109      340.055       13.812      863.654
09/22/2014  04:53:00      -45.175      -43.788       -1.934       45.782       24.915       16.905     2096.000      620.743      285.762        0.348        0.150       62.914       17.707        0.079      340.010       13.736      863.663
09/22/2014  04:54:00      -63.268      -40.312       -2.087       39.642       43.562       19.753     1571.495     1897.664      390.198        0.475        0.193       75.019       15.967        0.045      340.006       13.731      863.680
09/22/2014  04:55:00      -41.403      -44.031        0.841       20.287       26.846       15.100      411.580      720.688      228.004        0.251        0.068       60.439        7.642        0.016      340.074       13.845      863.700
09/22/2014  04:56:00      -63.117       10.036       -0.072       13.579       23.838        9.762      184.401      568.269       95.302        0.247        0.042       63.910       10.258        0.026      339.892       13.537      863.728
09/22/2014  04:57:00      -41.858       19.177       -4.962       15.898       15.867       10.900      252.742      251.761      118.807        0.138        0.031       46.042       10.854        0.056      339.704       13.219      863.747
09/22/2014  04:58:00      -75.420       14.131       -6.511       28.633       17.650       12.359      819.840      311.506      152.742        0.361        0.064       76.733       13.849        0.033      339.753       13.302      863.767
09/22/2014  04:59:00      -66.276       -2.734       -8.196       27.921       18.289       11.645      779.568      334.503      135.595        0.286        0.062       66.332        5.643        0.007      339.630       13.097      863.770
09/22/2014  05:00:00      -94.321      -21.127       -4.451       30.110       27.004       19.166      906.613      729.229      367.352        0.568        0.100       96.658       15.249        0.025      339.585       13.021      863.769
09/22/2014  05:01:00     -107.327        1.079       -5.501       37.608       24.862       20.180     1414.332      618.110      407.222        0.699        0.122      107.332       19.209        0.032      339.535       12.934      863.762
09/22/2014  05:02:00      -59.637      -13.327        0.340       35.922       30.911       18.438     1290.369      955.483      339.963        0.316        0.129       61.108       11.774        0.037      339.492       12.862      863.745
09/22/2014  05:03:00      -76.960      -12.519       -3.511       32.816       27.427       18.732     1076.864      752.233      350.894        0.414        0.109       77.972       19.591        0.063      339.476       12.834      863.733
09/22/2014  05:04:00      -54.879      -24.445       -0.748       31.397       29.954       13.091      985.748      897.238      171.377        0.283        0.103       60.078       12.288        0.042      339.520       12.911      863.726
09/22/2014  05:05:00      -60.134      -14.886       -1.160       31.694       25.114       16.322     1004.494      630.737      266.409        0.287        0.095       61.949       14.504        0.055      339.465       12.818      863.714
09/22/2014  05:06:00      -77.807      -37.381       -6.072       24.442       21.385        9.416      597.425      457.314       88.669        0.432        0.057       86.321        8.194        0.009      339.568       12.991      863.709
09/22/2014  05:07:00      -79.250      -15.411        1.759       24.313       29.511       16.092      591.127      870.909      258.952        0.412        0.086       80.734       10.881        0.018      339.515       12.899      863.713
09/22/2014  05:08:00      -82.308      -14.794       -3.550       33.973       23.011       16.522     1154.163      529.501      272.984        0.448        0.098       83.627       16.429        0.039      339.474       12.831      863.725
09/22/2014  05:09:00      -81.321      -13.712       -1.016       26.563       17.523       13.226      705.571      307.049      174.915        0.399        0.059       82.469       11.803        0.020      339.419       12.740      863.720
09/22/2014  05:10:00      -64.776      -14.959       -1.993       23.394       26.959       14.979      547.269      726.808      224.372        0.296        0.075       66.481       11.617        0.031      339.459       12.807      863.711
09/22/2014  05:11:00      -81.333       -4.085       -9.406       23.797       23.698       13.916      566.317      561.607      193.653        0.402        0.066       81.435       11.056        0.018      339.534       12.933      863.699
09/22/2014  05:12:00      -72.424      -10.857       -1.361       29.515       24.117       13.370      871.156      581.630      178.758        0.350        0.082       73.233       14.380        0.039      339.523       12.916      863.695
09/22/2014  05:13:00      -73.209      -26.675        1.527       27.880       24.053       14.031      777.274      578.559      196.859        0.381        0.078       77.917       12.692        0.027      339.519       12.906      863.700
09/22/2014  05:14:00      -76.876      -32.656       -1.778       23.511       20.342       13.588      552.758      413.810      184.645        0.407        0.058       83.524       13.214        0.025      339.515       12.901      863.694
09/22/2014  05:15:00      -97.300      -29.407       -6.980       16.539       18.938       12.216      273.528      358.649      149.232        0.558        0.039      101.647        8.836        0.008      339.563       12.982      863.689
09/22/2014  05:16:00      -99.176      -41.641       -1.012       19.575       13.844       14.007      383.187      191.651      196.201        0.617        0.039      107.564       11.301        0.011      339.579       13.009      863.689
09/22/2014  05:17:00      -86.753      -34.937       -2.846       24.228       16.541       14.223      587.007      273.595      202.282        0.491        0.053       93.523       12.841        0.019      339.600       13.043      863.700
09/22/2014  05:18:00      -79.669      -27.464       -4.039       20.110       21.422       12.993      404.407      458.893      168.830        0.407        0.052       84.270        9.503        0.013      339.625       13.088      863.699
09/22/2014  05:19:00      -80.723      -28.785       -0.212       26.077       21.651       13.094      679.990      468.760      171.449        0.433        0.066       85.701        7.750        0.008      339.675       13.171      863.702
09/22/2014  05:20:00      -87.202      -25.674       -9.087       21.054       24.490       15.088      443.259      599.755      227.643        0.481        0.064       90.903        7.926        0.008      339.657       13.139      863.704
09/22/2014  05:21:00      -56.740      -21.679        3.539       24.640       20.433       17.394      607.128      417.518      302.562        0.251        0.066       60.740       16.244        0.072      339.604       13.051      863.711
09/22/2014  05:22:00      -79.129      -18.261        4.883       32.297       23.418       15.115     1043.126      548.414      228.472        0.422        0.091       81.209       15.321        0.036      339.578       13.007      863.722
09/22/2014  05:23:00      -65.704      -18.440        0.743       30.197       20.583       10.993      911.841      423.646      120.847        0.306        0.073       68.243       11.117        0.027      339.526       12.919      863.720
09/22/2014  05:24:00      -90.119      -32.073        5.001       41.491       32.929       20.499     1721.495     1084.344      420.192        0.620        0.161       95.657       23.859        0.062      339.576       13.004      863.725
09/22/2014  05:25:00      -67.638      -30.384       -5.951       43.102       23.865       17.526     1857.804      569.529      307.145        0.413        0.137       74.149       17.896        0.058      339.643       13.117      863.726
09/22/2014  05:26:00      -65.532      -26.724       -4.621       24.097       20.744       14.084      580.679      430.317      198.354        0.312        0.060       70.772       13.648        0.037      339.591       13.029      863.723
09/22/2014  05:27:00      -82.995      -17.258       -9.233       29.687       23.013       12.564      881.327      529.596      157.864        0.442        0.078       84.770        7.294        0.007      339.575       13.004      863.724
09/22/2014  05:28:00     -106.816       -7.946       -7.645       19.819       19.769       12.404      392.779      390.804      153.857        0.623        0.047      107.111       10.077        0.009      339.436       12.768      863.723
09/22/2014  05:29:00      -77.164      -22.864       -7.650       20.442       23.136       11.488      417.874      535.262      131.975        0.381        0.054       80.480        7.341        0.008      339.496       12.868      863.730
09/22/2014  05:30:00      -93.584      -23.358       -3.950       27.749       21.499       17.025      769.998      462.219      289.837        0.542        0.076       96.455       15.538        0.026      339.564       12.984      863.749
09/22/2014  05:31:00      -80.365      -17.713       -1.105       34.697       26.041       13.163     1203.885      678.145      173.261        0.441        0.103       82.294       12.117        0.022      339.572       12.997      863.772
09/22/2014  05:32:00      -94.133       24.137       -4.723       16.381       15.095        9.426      268.350      227.855       88.849        0.503        0.029       97.178        3.463        0.001      339.422       12.745      863.777
09/22/2014  05:33:00      -66.984        8.251       -8.335       14.424       21.684       12.977      208.040      470.202      168.411        0.274        0.042       67.490        7.676        0.013      339.364       12.646      863.802
09/22/2014  05:34:00      -45.565      -21.800        2.183       22.087       12.693       12.494      487.815      161.124      156.091        0.168        0.040       50.511        5.332        0.011      339.239       12.435      863.813
09/22/2014  05:35:00      -53.554      -15.898       -9.330       20.957       22.227        9.175      439.181      494.048       84.172        0.211        0.051       55.864        8.266        0.022      339.266       12.481      863.830
09/22/2014  05:36:00      -27.822      -12.044       -0.379       20.919       20.360       10.768      437.595      414.526      115.953        0.094        0.048       30.317        6.741        0.049      339.204       12.379      863.839
09/22/2014  05:37:00      -60.919      -19.937       -4.840       24.770       18.420       13.767      613.572      339.304      189.529        0.264        0.057       64.099       12.023        0.035      339.259       12.470      863.835
09/22/2014  05:38:00     -109.343      -30.970      -16.999       16.905       17.052       15.877      285.784      290.772      252.084        0.702        0.041      113.644        6.694        0.003      339.205       12.379      863.844
09/22/2014  05:39:00     -107.844      -20.761      -11.307       44.557       24.068       19.508     1985.367      579.274      380.574        0.757        0.147      109.824       21.545        0.038      339.044       12.106      863.852
09/22/2014  05:40:00      -40.337       -8.622        4.638       48.368       36.375       30.291     2339.442     1323.150      917.515        0.315        0.229       41.248       26.441        0.411      339.041       12.101      863.866
09/22/2014  05:41:00      -40.160        0.632       -6.773       28.877       30.688       19.798      833.909      941.758      391.977        0.191        0.108       40.165       12.380        0.095      339.097       12.196      863.869
09/22/2014  05:42:00      -20.182        4.871       -2.150       16.084       20.892       10.969      258.680      436.460      120.325        0.063        0.041       20.761        5.380        0.067      339.170       12.320      863.880
09/22/2014  05:43:00      -49.159      -14.651       -8.430       15.303       12.041        9.050      234.196      144.993       81.903        0.158        0.023       51.295        6.267        0.015      339.232       12.425      863.882
09/22/2014  05:44:00      -77.571       -8.998       -7.617       28.681       13.500       14.001      822.601      182.242      196.033        0.368        0.060       78.091       15.132        0.038      339.253       12.460      863.891
09/22/2014  05:45:00      -59.412      -12.531       -9.043       25.484       16.889       12.978      649.434      285.236      168.430        0.244        0.055       60.719       12.274        0.041      339.185       12.345      863.893
09/22/2014  05:46:00      -43.677      -21.924       -9.589       21.467       11.017       13.208      460.823      121.383      174.462        0.162        0.038       48.871       13.211        0.073      339.183       12.341      863.892
09/22/2014  05:47:00      -42.655      -41.862       -3.404       22.488       16.477       12.160      505.702      271.483      147.870        0.225        0.046       59.765       11.158        0.035      339.314       12.562      863.906
09/22/2014  05:48:00      -66.176      -17.442       -0.945       23.269       26.710       13.027      541.433      713.408      169.715        0.305        0.071       68.436       11.477        0.028      339.252       12.458      863.917
09/22/2014  05:49:00      -52.300      -11.458       -7.388       14.218       14.220        8.773      202.153      202.207       76.960        0.170        0.024       53.541        7.118        0.018      339.227       12.417      863.929
09/22/2014  05:50:00      -38.909      -13.585       -6.996       12.857       11.914        5.508      165.293      141.945       30.341        0.104        0.017       41.213        2.330        0.003      339.237       12.432      863.931
09/22/2014  05:51:00        8.414      -13.613        2.967        7.938       11.538        9.334       63.016      133.129       87.126        0.027        0.014       16.003        5.100        0.102      339.391       12.691      863.926
09/22/2014  05:52:00       11.734       10.277       -2.742        8.028        9.677       10.210       64.451       93.638      104.236        0.026        0.013       15.598        4.971        0.102      339.518       12.908      863.931
09/22/2014  05:53:00       21.385        8.484        2.418        9.165       12.606       10.930       84.004      158.904      119.455        0.045        0.018       23.007        8.507        0.137      339.651       13.131      863.936
09/22/2014  05:54:00      -20.918        6.867       -5.654        9.605        4.587        3.308       92.260       21.044       10.942        0.032        0.006       22.016        1.123        0.003      339.481       12.843      863.938
09/22/2014  05:55:00      -10.281       -5.598       -1.081        9.469        8.585        5.372       89.669       73.700       28.854        0.017        0.010       11.706        2.802        0.057      339.495       12.865      863.944
09/22/2014  05:56:00      -29.903      -21.165       -3.642       18.685        7.819        7.919      349.135       61.140       62.707        0.091        0.024       36.635        9.530        0.068      339.472       12.829      863.942
09/22/2014  05:57:00      -68.106      -18.755       -5.854       13.943       13.993        8.495      194.414      195.816       72.164        0.274        0.023       70.641        5.260        0.006      339.341       12.608      863.965
09/22/2014  05:58:00      -44.202      -17.428       -4.964       22.341       12.918        7.320      499.121      166.865       53.587        0.150        0.036       47.514        6.362        0.018      339.252       12.459      863.980
09/22/2014  05:59:00      -27.434      -13.022        2.991       21.062       12.603       12.139      443.611      158.832      147.355        0.084        0.037       30.367       13.109        0.186      339.314       12.562      863.975
09/22/2014  06:00:00      -67.480      -14.284       -9.328       10.465        9.088        6.741      109.516       82.591       45.439        0.254        0.012       68.975        2.913        0.002      339.374       12.662      864.005
09/22/2014  06:01:00      -73.964      -15.655      -10.232       10.562       10.278        6.360      111.554      105.644       40.455        0.304        0.013       75.602        3.102        0.002      339.417       12.736      864.024
09/22/2014  06:02:00      -49.666       -8.582       -7.322       12.586       11.702        6.279      158.416      136.928       39.424        0.146        0.017       50.402        5.519        0.012      339.468       12.821      864.040
09/22/2014  06:03:00      -47.937       -3.815       -9.076        6.267       11.597        5.965       39.276      134.494       35.587        0.130        0.010       48.089        5.928        0.015      339.454       12.799      864.054
09/22/2014  06:04:00      -26.665       -7.255       -1.160       12.811        9.762       10.292      164.115       95.300      105.935        0.057        0.018       27.634        7.829        0.080      339.458       12.804      864.065
09/22/2014  06:05:00      -40.387      -19.130       -3.450       10.967        9.528        8.197      120.271       90.781       67.186        0.114        0.014       44.689        5.601        0.016      339.475       12.833      864.079
09/22/2014  06:06:00      -30.852      -27.900        3.348       26.924       14.533       10.762      724.875      211.195      115.819        0.140        0.053       41.596       10.724        0.066      339.413       12.730      864.100
09/22/2014  06:07:00       -5.832      -31.092        6.200       23.145       17.130       12.537      535.671      293.448      157.175        0.101        0.049       31.634        8.151        0.066      339.460       12.807      864.104
09/22/2014  06:08:00      -16.671       -3.011       -4.885       10.953        9.547        8.450      119.962       91.140       71.400        0.030        0.014       16.941        6.055        0.128      339.471       12.828      864.101
09/22/2014  06:09:00       -3.541       15.797      -11.575        6.942       14.211        5.670       48.189      201.941       32.153        0.034        0.014       16.189        4.314        0.071      339.457       12.805      864.099
09/22/2014  06:10:00       -2.106       11.086       -2.719        7.417       11.650        4.440       55.012      135.722       19.714        0.017        0.011       11.285        4.832        0.183      339.537       12.936      864.098
09/22/2014  06:11:00      -25.855       -7.333       -2.214       14.679        5.641        3.929      215.484       31.817       15.440        0.049        0.013       26.875        5.509        0.042      339.554       12.968      864.094
09/22/2014  06:12:00      -54.874      -39.642       -4.371       32.618       16.176       11.599     1063.962      261.664      134.534        0.303        0.073       67.695       11.725        0.030      339.461       12.810      864.097
09/22/2014  06:13:00      -38.325      -47.734        1.484       34.440       25.012       20.443     1186.129      625.610      417.918        0.299        0.111       61.215       23.113        0.143      339.465       12.815      864.114
09/22/2014  06:14:00      -51.912      -52.507       -2.137       29.958       24.228       13.919      897.479      587.017      193.752        0.357        0.084       73.837       13.789        0.035      339.434       12.765      864.116
09/22/2014  06:15:00      -70.916      -34.505        0.618       27.863       18.054       13.292      776.347      325.957      176.690        0.375        0.064       78.864       10.700        0.018      339.470       12.825      864.116
09/22/2014  06:16:00     -107.336      -27.956      -11.266       32.177       21.096       16.003     1035.374      445.045      256.106        0.708        0.087      110.917       14.863        0.018      339.422       12.744      864.121
09/22/2014  06:17:00     -109.347      -22.951       -6.538       24.167       25.079       14.818      584.039      628.955      219.576        0.698        0.072      111.730       12.548        0.013      339.295       12.529      864.120
09/22/2014  06:18:00     -100.454      -34.203       -2.335       37.992       21.794       18.378     1443.360      474.980      337.746        0.676        0.113      106.117       22.832        0.046      339.285       12.513      864.125
09/22/2014  06:19:00      -99.679      -21.749       -6.592       33.065       25.058       15.549     1093.291      627.900      241.763        0.621        0.098      102.025       15.862        0.024      339.256       12.463      864.128
09/22/2014  06:20:00     -107.256      -38.138       -7.603       22.512       16.650       13.016      506.785      277.226      169.426        0.698        0.048      113.835       12.067        0.011      339.228       12.417      864.127
09/22/2014  06:21:00      -76.444      -46.419       -5.764       23.197       18.536       15.884      538.112      343.587      252.305        0.458        0.057       89.434       12.054        0.018      339.289       12.521      864.111
09/22/2014  06:22:00      -83.765      -37.683      -11.657       12.661       17.503       10.733      160.304      306.359      115.200        0.458        0.029       91.850        8.240        0.008      339.383       12.679      864.108
09/22/2014  06:23:00      -82.809      -38.083       -5.869       20.046       21.384       11.473      401.837      457.255      131.637        0.467        0.050       91.146       10.169        0.012      339.402       12.711      864.101
09/22/2014  06:24:00      -90.460      -40.649       -5.783       18.986       16.161       15.450      360.484      261.171      238.695        0.536        0.043       99.174       12.829        0.017      339.388       12.688      864.096
09/22/2014  06:25:00      -64.668      -36.025        2.448       31.011       23.136       19.141      961.669      535.272      366.382        0.367        0.093       74.026       18.145        0.060      339.432       12.760      864.102
09/22/2014  06:26:00      -86.717      -33.699       -2.470       24.544       24.389       19.730      602.430      594.842      389.268        0.512        0.079       93.035       14.784        0.025      339.406       12.718      864.111
09/22/2014  06:27:00      -72.588      -27.280        0.758       24.941       16.132       11.850      622.050      260.255      140.422        0.352        0.051       77.545       11.133        0.021      339.425       12.749      864.125
09/22/2014  06:28:00      -57.289      -29.522        4.759       23.367       16.174       13.631      546.006      261.590      185.792        0.258        0.050       64.448        7.341        0.013      339.468       12.821      864.144
09/22/2014  06:29:00      -67.504      -40.814       -3.449       28.728       18.313       20.592      825.304      335.382      424.017        0.391        0.079       78.884       21.621        0.075      339.438       12.773      864.162
09/22/2014  06:30:00      -78.099      -28.447       -9.945       15.710       16.116       10.896      246.808      259.724      118.724        0.382        0.031       83.118        3.806        0.002      339.452       12.794      864.171
09/22/2014  06:31:00      -82.409      -39.795       -6.169       13.570       14.000        7.184      184.139      195.994       51.614        0.442        0.022       91.514        4.125        0.002      339.515       12.901      864.171
09/22/2014  06:32:00      -94.501      -32.297        1.250       32.278       22.803       16.004     1041.900      519.956      256.138        0.590        0.091       99.868       15.628        0.024      339.398       12.704      864.172
09/22/2014  06:33:00      -92.922      -52.338       -0.321       25.716       18.096       13.124      661.306      327.476      172.244        0.627        0.058      106.648        9.221        0.007      339.391       12.693      864.179
09/22/2014  06:34:00      -89.416      -49.409        2.757       28.971       18.825       17.911      839.310      354.399      320.818        0.598        0.076      102.159       15.387        0.023      339.350       12.623      864.179
09/22/2014  06:35:00      -75.828      -31.725        0.692       34.530       25.333       18.021     1192.330      641.756      324.766        0.446        0.108       82.197       17.059        0.043      339.330       12.589      864.184
09/22/2014  06:36:00      -94.018      -32.934        3.789       22.538       22.938       16.310      507.963      526.147      266.007        0.562        0.065       99.619       10.740        0.012      339.328       12.585      864.199
09/22/2014  06:37:00      -96.291      -40.888       -0.330       25.625       20.166       14.864      656.622      406.681      220.940        0.611        0.064      104.612       12.427        0.014      339.356       12.633      864.216
09/22/2014  06:38:00      -97.779      -45.715       -4.597       24.399       27.177       16.298      595.320      738.584      265.624        0.664        0.080      107.938       12.487        0.013      339.365       12.649      864.228
09/22/2014  06:39:00      -93.542      -22.647       -6.026       27.212       22.601       15.592      740.469      510.821      243.118        0.540        0.075       96.244       14.448        0.023      339.350       12.622      864.239
09/22/2014  06:40:00      -97.771      -53.280       -3.103       32.657       23.082       16.098     1066.500      532.788      259.134        0.713        0.093      111.346       17.146        0.024      339.383       12.679      864.244
09/22/2014  06:41:00      -62.492      -51.561        0.659       43.903       30.306       14.696     1927.491      918.475      215.958        0.481        0.153       81.017       12.420        0.024      339.378       12.669      864.248
09/22/2014  06:42:00      -35.529      -28.549        7.858       42.350       24.319       23.239     1793.540      591.400      540.067        0.253        0.146       45.578       28.233        0.384      339.400       12.707      864.256
09/22/2014  06:43:00      -74.405      -77.943        7.138       47.549       33.267       24.640     2260.929     1106.679      607.126        0.782        0.199      107.755       26.374        0.060      339.523       12.915      864.261
09/22/2014  06:44:00      -70.217      -50.378        4.056       38.161       28.103       15.763     1456.227      789.759      248.460        0.499        0.125       86.420       14.351        0.028      339.501       12.879      864.260
09/22/2014  06:45:00      -49.583      -56.511       -0.500       24.968       26.474       22.128      623.394      700.855      489.652        0.373        0.091       75.180       20.320        0.073      339.528       12.922      864.255
09/22/2014  06:46:00      -19.242      -61.597       -3.707       15.295       21.222       11.953      233.950      450.359      142.873        0.250        0.041       64.532        7.868        0.015      339.677       13.174      864.249
09/22/2014  06:47:00      -32.736      -36.888       -3.267       15.419       15.057       12.721      237.747      226.702      161.814        0.153        0.031       49.319        7.325        0.022      339.650       13.127      864.263
09/22/2014  06:48:00      -25.473      -15.145       12.789       25.932       13.842       10.531      672.447      191.613      110.906        0.101        0.049       29.635        8.034        0.073      339.538       12.939      864.272
09/22/2014  06:49:00      -27.600      -19.063        4.707       28.077       12.673       12.009      788.320      160.611      144.211        0.112        0.055       33.543       12.298        0.134      339.524       12.915      864.274
09/22/2014  06:50:00      -31.424      -44.779       -2.829       31.657       28.125       11.289     1002.167      791.014      127.446        0.246        0.096       54.705        2.921        0.003      339.559       12.976      864.285
09/22/2014  06:51:00      -54.468      -41.060       -2.731       20.934       32.560       17.377      438.244     1060.147      301.948        0.323        0.090       68.211       15.963        0.055      339.564       12.983      864.290
09/22/2014  06:52:00      -29.113      -26.348        6.066       36.278       24.198       18.605     1316.117      585.542      346.134        0.191        0.112       39.266       18.097        0.212      339.522       12.913      864.301
09/22/2014  06:53:00      -47.298      -52.701       -2.027       27.357       22.400       19.789      748.384      501.746      391.606        0.333        0.082       70.813       17.786        0.063      339.517       12.902      864.313
09/22/2014  06:54:00      -50.220      -41.267        2.667       41.784       24.119       23.441     1745.935      581.745      549.466        0.355        0.144       65.000       20.390        0.098      339.557       12.973      864.321
09/22/2014  06:55:00      -40.305      -43.256        4.401       25.544       19.331       13.632      652.478      373.670      185.818        0.236        0.061       59.123       11.279        0.036      339.512       12.895      864.332
09/22/2014  06:56:00      -45.665      -44.126        3.572       24.244       23.100       17.667      587.748      533.596      312.131        0.274        0.072       63.502       14.714        0.054      339.574       13.000      864.340
09/22/2014  06:57:00      -28.551      -18.526       11.477       25.275       19.727       12.488      638.810      389.144      155.945        0.124        0.059       34.035       13.054        0.147      339.527       12.921      864.342
09/22/2014  06:58:00      -19.423      -28.582        9.096       26.012       14.680       13.911      676.612      215.494      193.511        0.118        0.054       34.557       13.577        0.154      339.556       12.970      864.342
09/22/2014  06:59:00      -50.857      -47.237        1.661       29.618       17.118       16.261      877.246      293.029      264.435        0.313        0.072       69.410       15.357        0.049      339.559       12.977      864.334
09/22/2014  07:00:00      -53.943      -42.177        6.558       33.814       21.439       17.985     1143.354      459.623      323.453        0.333        0.096       68.474       14.531        0.045      339.557       12.972      864.332
09/22/2014  07:01:00      -46.193      -32.320        2.973       32.368       27.205       18.942     1047.680      740.139      358.810        0.267        0.107       56.377       19.957        0.125      339.555       12.969      864.324
09/22/2014  07:02:00      -44.494      -46.862        9.701       36.712       22.251       19.447     1347.793      495.128      378.173        0.325        0.111       64.621       16.711        0.067      339.525       12.917      864.331
09/22/2014  07:03:00      -58.896      -70.464        6.567       31.888       31.123       21.082     1016.838      968.668      444.453        0.545        0.121       91.836       20.507        0.050      339.525       12.918      864.339
09/22/2014  07:04:00      -50.406      -67.974        0.400       33.723       25.079       19.751     1137.270      628.946      390.083        0.466        0.108       84.625       14.596        0.030      339.527       12.921      864.351
09/22/2014  07:05:00      -71.529      -56.786        1.640       29.020       27.466       19.683      842.160      754.408      387.424        0.516        0.099       91.330       18.119        0.039      339.474       12.832      864.356
09/22/2014  07:06:00      -59.314      -51.001       -0.545       30.402       20.804       17.484      924.258      432.814      305.689        0.389        0.083       78.225       15.018        0.037      339.492       12.861      864.359
09/22/2014  07:07:00      -53.293      -18.257        1.142       27.387       12.390       12.579      750.050      153.512      158.231        0.212        0.053       56.333       16.267        0.083      339.412       12.727      864.357
09/22/2014  07:08:00      -44.429      -21.450       -2.507       15.820       14.103        8.054      250.286      198.902       64.871        0.148        0.026       49.336        3.617        0.005      339.452       12.795      864.356
09/22/2014  07:09:00      -24.304      -15.408        3.696       18.034       14.117        7.655      325.226      199.295       58.600        0.071        0.029       28.776        7.623        0.070      339.519       12.909      864.357
09/22/2014  07:10:00      -34.481       -9.153        1.360       19.666       11.032       10.113      386.734      121.700      102.269        0.094        0.031       35.675        9.309        0.068      339.539       12.943      864.362
09/22/2014  07:11:00      -40.309       -9.246       -0.083       18.075       12.026        8.815      326.693      144.636       77.702        0.113        0.027       41.356        8.260        0.040      339.490       12.859      864.375
09/22/2014  07:12:00      -50.987      -25.190       -1.114       12.072       10.934        8.034      145.741      119.563       64.551        0.178        0.016       56.870        5.076        0.008      339.504       12.883      864.388
09/22/2014  07:13:00      -35.294      -14.446        2.127       16.082       11.946        9.703      258.640      142.711       94.147        0.098        0.025       38.136       10.479        0.076      339.457       12.805      864.414
09/22/2014  07:14:00      -62.020      -22.035       -8.849       13.135        9.320        6.319      172.523       86.860       39.930        0.235        0.015       65.818        5.019        0.006      339.383       12.679      864.432
09/22/2014  07:15:00      -64.096      -16.059       -4.405       19.950       15.629       12.225      398.009      244.265      149.453        0.259        0.040       66.077       11.244        0.029      339.365       12.649      864.445
09/22/2014  07:16:00      -88.544       -2.648        0.651       32.340       18.566       14.843     1045.865      344.707      220.320        0.473        0.081       88.584       15.548        0.031      339.276       12.497      864.455
09/22/2014  07:17:00      -87.085      -22.443       -5.141       27.807       15.660       15.236      773.209      245.227      232.134        0.468        0.063       89.931       15.293        0.029      339.274       12.495      864.467
09/22/2014  07:18:00     -111.135      -10.729       -8.769       23.344       19.571       13.420      544.960      383.018      180.108        0.683        0.055      111.651        9.491        0.007      339.257       12.468      864.479
09/22/2014  07:19:00      -83.332      -17.953       -1.447       24.389       18.915       14.720      594.835      357.784      216.683        0.422        0.058       85.244       12.770        0.022      339.128       12.250      864.475
09/22/2014  07:20:00      -69.243       -7.074        2.341       29.000       21.844       14.994      841.028      477.172      224.822        0.320        0.077       69.603       14.386        0.043      339.128       12.250      864.469
09/22/2014  07:21:00      -37.884       -1.797        0.741       23.301       15.181       11.544      542.919      230.449      133.271        0.117        0.045       37.927       10.559        0.078      339.115       12.228      864.468
09/22/2014  07:22:00      -75.079      -13.350       -2.407       18.598       14.162        9.720      345.882      200.563       94.473        0.323        0.032       76.257        3.725        0.002      339.266       12.481      864.474
09/22/2014  07:23:00      -67.784       -3.599       -4.126       27.256       17.877       13.657      742.865      319.596      186.521        0.294        0.062       67.880       11.722        0.030      339.275       12.496      864.481
09/22/2014  07:24:00      -90.921       -2.430       -6.637       17.499       12.005       10.895      306.221      144.130      118.691        0.444        0.028       90.953       10.334        0.013      339.295       12.532      864.488
09/22/2014  07:25:00      -82.303       -9.219       -7.074       19.171       14.356       11.853      367.536      206.087      140.503        0.381        0.036       82.817        7.215        0.008      339.308       12.554      864.494
09/22/2014  07:26:00      -50.946       -2.501        1.588       20.950       23.580       15.693      438.909      556.022      246.271        0.192        0.062       51.007       15.170        0.088      339.354       12.629      864.489
09/22/2014  07:27:00      -62.248        3.586       -1.269       20.342       16.555        9.680      413.796      274.080       93.699        0.234        0.039       62.351        6.484        0.011      339.400       12.708      864.491
09/22/2014  07:28:00      -58.126       -3.556        1.409       25.739       11.767        9.731      662.516      138.464       94.700        0.214        0.045       58.234        9.041        0.024      339.405       12.718      864.480
09/22/2014  07:29:00      -94.136      -15.969       -6.968       21.427       17.005       12.619      459.118      289.160      159.236        0.504        0.045       95.481        9.232        0.009      339.499       12.874      864.462
09/22/2014  07:30:00      -83.805      -31.240       -4.388       18.497       19.462       14.288      342.145      378.787      204.137        0.447        0.046       89.438        8.858        0.010      339.546       12.952      864.451
09/22/2014  07:31:00      -50.745      -19.352       -1.100       18.919       26.588       11.815      357.927      706.906      139.587        0.208        0.060       54.310        9.144        0.028      339.573       12.999      864.433
09/22/2014  07:32:00      -65.475       -8.186       -0.344       18.909       13.055       12.104      357.557      170.439      146.499        0.251        0.034       65.985        9.819        0.022      339.521       12.910      864.436
09/22/2014  07:33:00      -91.045       -7.565       -5.476       25.462       14.666       13.927      648.322      215.077      193.956        0.472        0.053       91.359       12.348        0.018      339.491       12.860      864.438
09/22/2014  07:34:00      -99.091       -9.964       -5.570       26.134       14.421       14.088      682.967      207.955      198.471        0.552        0.054       99.590       15.074        0.023      339.455       12.800      864.449
09/22/2014  07:35:00     -111.948        0.293      -14.030       18.295       13.087       11.863      334.711      171.260      140.738        0.669        0.032      111.949        6.963        0.004      339.416       12.737      864.466
09/22/2014  07:36:00     -103.229       -3.948      -12.077       16.905       10.397       13.095      285.769      108.100      171.471        0.569        0.028      103.305        9.627        0.009      339.425       12.748      864.477
09/22/2014  07:37:00      -83.116       -0.442       -7.073       21.744       13.580       12.535      472.815      184.406      157.121        0.389        0.041       83.117       12.803        0.024      339.431       12.761      864.491
09/22/2014  07:38:00      -58.926       -7.102       -5.030       25.242       19.183       15.359      637.150      367.980      235.895        0.239        0.062       59.352       15.243        0.066      339.512       12.895      864.493
09/22/2014  07:39:00      -67.744      -19.348       -6.905       21.714       13.862       16.312      471.506      192.168      266.094        0.297        0.046       70.453       13.329        0.036      339.535       12.935      864.510
09/22/2014  07:40:00      -79.503      -18.823      -14.481       12.314       12.303        7.757      151.635      151.368       60.179        0.362        0.018       81.700        4.797        0.003      339.586       13.022      864.512
09/22/2014  07:41:00      -65.243      -34.301      -12.549       24.910       17.749       14.182      620.492      315.022      201.143        0.336        0.057       73.710        7.082        0.009      339.640       13.112      864.519
09/22/2014  07:42:00      -81.843      -42.298       -0.576       18.758       17.431       11.174      351.871      303.842      124.861        0.463        0.039       92.127        3.423        0.001      339.679       13.180      864.519
09/22/2014  07:43:00      -76.632      -23.439        0.790       29.872       15.803       15.337      892.329      249.745      235.216        0.390        0.069       80.136       15.123        0.036      339.725       13.256      864.526
09/22/2014  07:44:00      -84.633      -21.670       -6.643       28.949       26.817       17.028      838.056      719.176      289.942        0.476        0.092       87.363       12.415        0.020      339.675       13.171      864.535
09/22/2014  07:45:00      -78.980        3.222       -1.168       24.458       19.970       16.896      598.200      398.806      285.471        0.377        0.064       79.046       14.715        0.035      339.594       13.034      864.546
09/22/2014  07:46:00      -79.754       -2.255       -4.799       21.013       14.079       11.956      441.543      198.210      142.949        0.359        0.039       79.786       12.551        0.025      339.615       13.070      864.541
09/22/2014  07:47:00      -69.957        0.440       -3.719       15.663       18.699       10.550      245.335      349.664      111.302        0.281        0.035       69.958        7.193        0.011      339.668       13.159      864.539
09/22/2014  07:48:00      -54.901        4.012       -3.273       14.241       11.288        8.396      202.798      127.419       70.489        0.172        0.020       55.047        5.559        0.010      339.717       13.243      864.553
09/22/2014  07:49:00      -37.345       12.954       -1.776       15.983       14.934       10.333      255.442      223.028      106.766        0.108        0.029       39.528        4.982        0.016      339.680       13.181      864.558
09/22/2014  07:50:00      -47.038       11.557        0.869       22.290       12.436        9.446      496.858      154.648       89.228        0.154        0.037       48.437        6.488        0.018      339.706       13.223      864.569
09/22/2014  07:51:00      -57.384        5.655        0.255       10.309       18.876       10.004      106.270      356.313      100.083        0.194        0.028       57.662        9.577        0.028      339.772       13.336      864.577
09/22/2014  07:52:00      -43.100      -21.564       -4.002       10.050       12.456        9.713      100.995      155.148       94.334        0.134        0.018       48.193        7.314        0.023      339.828       13.430      864.591
09/22/2014  07:53:00      -17.635      -23.729       -2.937       17.780       17.836       13.671      316.115      318.124      186.900        0.085        0.041       29.565       13.132        0.197      340.046       13.798      864.589
09/22/2014  07:54:00      -33.849       -1.934       -2.782       16.332       17.363       10.642      266.740      301.472      113.253        0.092        0.034       33.904       10.941        0.104      339.945       13.625      864.592
09/22/2014  07:55:00      -30.520        5.040        4.826       11.375       23.571       14.059      129.399      555.598      197.655        0.093        0.044       30.933       15.998        0.267      339.946       13.627      864.588
09/22/2014  07:56:00      -38.644        0.513        1.552       16.477       14.592        9.988      271.500      212.928       99.759        0.104        0.029       38.648        8.988        0.054      339.919       13.583      864.578
09/22/2014  07:57:00      -44.808       -2.220       -1.281       12.437       17.602       10.568      154.675      309.816      111.692        0.130        0.029       44.863        8.572        0.037      339.945       13.626      864.580
09/22/2014  07:58:00      -23.974       17.406       15.044       15.424       17.350       11.255      237.890      301.029      126.683        0.088        0.033       29.626       11.222        0.143      340.230       14.108      864.579
09/22/2014  07:59:00      -28.987        6.311        8.074       10.463        8.960       15.285      109.478       80.284      233.628        0.068        0.021       29.666       11.095        0.140      340.075       13.847      864.582
09/22/2014  08:00:00      -23.457        0.995      -12.168        5.433        5.964        5.964       29.519       35.564       35.574        0.040        0.005       23.478        2.332        0.010      340.038       13.785      864.587
09/22/2014  08:01:00      -17.537      -17.523       -4.917        9.791       13.709        8.530       95.862      187.931       72.756        0.050        0.018       24.791        5.954        0.058      340.156       13.982      864.601
09/22/2014  08:02:00      -24.312       -2.678        8.362        7.431        7.912        9.725       55.214       62.595       94.573        0.044        0.011       24.459        5.637        0.053      340.200       14.056      864.613
09/22/2014  08:03:00      -13.716       -5.776       18.070       12.270       16.360       11.815      150.543      267.646      139.592        0.055        0.028       14.883       10.063        0.457      340.445       14.471      864.624
09/22/2014  08:04:00        3.978        5.220       24.399       14.948       18.330       12.136      223.449      335.985      147.278        0.067        0.035        6.563        9.578        2.130      340.659       14.831      864.627
09/22/2014  08:05:00       -3.677        9.301       32.841        7.858       17.519       10.464       61.741      306.922      109.504        0.083        0.024       10.002        6.361        0.405      340.742       14.972      864.635
09/22/2014  08:06:00        3.653       24.986       26.705       17.664       16.276       25.544      312.030      264.917      652.520        0.129        0.061       25.251       15.284        0.366      340.489       14.545      864.644
09/22/2014  08:07:00       -7.513       15.103        9.045       20.621       15.987       18.675      425.205      255.595      348.771        0.070        0.051       16.869        8.630        0.262      340.457       14.491      864.642
09/22/2014  08:08:00      -16.405       -2.321        2.743       17.988       11.252       14.478      323.580      126.610      209.599        0.047        0.033       16.568       12.372        0.558      340.442       14.465      864.642
09/22/2014  08:09:00      -25.220        5.573       -8.451        7.348        5.699        7.714       53.987       32.482       59.500        0.044        0.007       25.828        4.266        0.027      340.300       14.223      864.642
09/22/2014  08:10:00      -28.456       -2.396       -2.846        7.722       11.808        7.598       59.623      139.426       57.725        0.054        0.013       28.557        2.612        0.008      340.339       14.290      864.646
09/22/2014  08:11:00      -36.564        9.382       -1.828       12.387       10.398        9.633      153.440      108.112       92.801        0.089        0.018       37.749        5.708        0.023      340.337       14.288      864.648
09/22/2014  08:12:00      -33.729        2.407       -9.574       13.228        9.043       12.492      174.984       81.769      156.057        0.082        0.021       33.815        8.286        0.060      340.385       14.370      864.654
09/22/2014  08:13:00      -31.963       -3.021       -7.460       10.127       10.673        6.947      102.560      113.921       48.264        0.068        0.013       32.105        6.330        0.039      340.381       14.362      864.652
09/22/2014  08:14:00      -27.989      -20.931       -3.142       14.931       17.148       15.081      222.938      294.049      227.431        0.099        0.037       34.950        8.469        0.059      340.474       14.519      864.660
09/22/2014  08:15:00      -30.033       -7.698       -2.610        9.138        9.255        5.962       83.510       85.659       35.543        0.059        0.010       31.004        3.141        0.010      340.411       14.412      864.665
09/22/2014  08:16:00      -11.812        3.165        6.781        7.642        5.707       10.995       58.393       32.573      120.896        0.020        0.011       12.229        4.654        0.145      340.761       15.004      864.673
09/22/2014  08:17:00       19.937       12.202       17.245       23.552       16.036       19.992      554.720      257.165      399.661        0.103        0.061       23.375       17.682        0.572      341.040       15.476      864.676
09/22/2014  08:18:00       45.383       24.351        6.154       16.842       15.767       21.240      283.644      248.595      451.138        0.184        0.049       51.503       11.100        0.046      340.646       14.810      864.693
09/22/2014  08:19:00       50.427       41.215        2.163       13.554       15.431       18.584      183.701      238.116      345.365        0.251        0.038       65.127       11.134        0.029      340.594       14.722      864.710
09/22/2014  08:20:00       39.299       48.342       -4.437       18.603       15.592       19.268      346.058      243.122      371.258        0.243        0.048       62.301       12.439        0.040      340.582       14.700      864.726
09/22/2014  08:21:00       18.700       50.479        1.100       14.664       25.718       12.481      215.039      661.403      155.776        0.197        0.052       53.832       13.273        0.061      340.637       14.794      864.739
09/22/2014  08:22:00       29.929       52.789        3.958       21.077       17.659       18.248      444.220      311.847      332.990        0.239        0.054       60.683       13.084        0.046      340.714       14.925      864.745
09/22/2014  08:23:00       17.460       30.220        0.835       24.169       11.828       14.066      584.131      139.891      197.861        0.107        0.046       34.902        9.696        0.077      340.691       14.886      864.750
09/22/2014  08:24:00      -12.177       45.396       -1.499       10.371       12.752       14.344      107.560      162.614      205.745        0.134        0.024       47.001        7.017        0.022      340.769       15.020      864.756
09/22/2014  08:25:00       -2.830       16.177       10.804       14.725       25.152       13.939      216.837      632.638      194.309        0.071        0.052       16.423       14.493        0.779      341.203       15.753      864.759
09/22/2014  08:26:00       18.595       39.773       -4.759       18.799       21.246       16.233      353.419      451.382      263.498        0.151        0.053       43.905        8.297        0.036      340.728       14.950      864.763
09/22/2014  08:27:00       35.575       30.289       -1.462       27.123       21.012       21.028      735.674      441.496      442.173        0.190        0.081       46.723        5.621        0.014      340.833       15.127      864.760
09/22/2014  08:28:00       22.897       39.958       -1.253       11.910       17.354       19.148      141.840      301.159      366.639        0.147        0.040       46.053       12.605        0.075      340.786       15.048      864.761
09/22/2014  08:29:00       43.519       34.664       11.496       20.575       14.799       17.487      423.331      219.017      305.779        0.209        0.047       55.637        7.179        0.017      340.783       15.041      864.765
09/22/2014  08:30:00       47.427       21.566       -1.979       19.390       15.514       14.198      375.980      240.697      201.596        0.177        0.041       52.100       11.888        0.052      340.825       15.113      864.768
09/22/2014  08:31:00       33.549       55.760        2.899       26.265       13.507       16.220      689.876      182.444      263.093        0.269        0.057       65.074       12.105        0.035      340.909       15.256      864.768
09/22/2014  08:32:00       10.817       43.387       -2.127       24.455       16.382       19.713      598.028      268.365      388.615        0.163        0.063       44.715       13.306        0.089      340.897       15.234      864.770
09/22/2014  08:33:00        2.984       37.020        7.883       19.318       21.729       19.313      373.192      472.142      372.991        0.133        0.061       37.140        9.325        0.063      341.145       15.655      864.783
09/22/2014  08:34:00       32.359       44.223       44.496       28.650       23.390       24.817      820.815      547.093      615.895        0.348        0.099       54.797       17.749        0.105      341.225       15.790      864.791
09/22/2014  08:35:00       15.389       16.641       21.233       16.524       17.032       20.996      273.043      290.090      440.815        0.098        0.050       22.666       12.115        0.286      341.327       15.964      864.800
09/22/2014  08:36:00       44.706       32.536       13.369       26.573       26.890       25.387      706.137      723.064      644.483        0.265        0.104       55.292       18.916        0.117      341.253       15.837      864.805
09/22/2014  08:37:00        8.544       29.026       -7.993       21.805       15.833       15.005      475.445      250.682      225.142        0.097        0.048       30.257       12.964        0.184      341.032       15.463      864.808
09/22/2014  08:38:00       -0.506       26.543       38.778       20.229       22.116       23.322      409.204      489.105      543.929        0.183        0.072       26.548        9.564        0.130      341.566       16.368      864.803
09/22/2014  08:39:00       42.513       36.612       19.691       18.214       16.939       19.969      331.752      286.940      398.769        0.228        0.051       56.105       10.918        0.038      341.229       15.797      864.807
09/22/2014  08:40:00       16.132        6.608       20.141       18.051       14.257       14.952      325.847      203.249      223.572        0.073        0.038       17.433        5.542        0.101      341.577       16.387      864.813
09/22/2014  08:41:00       41.111       40.600       21.398       30.363       26.132       23.336      921.931      682.904      544.575        0.297        0.107       57.779       14.726        0.065      341.295       15.907      864.827
09/22/2014  08:42:00       32.297       40.165       18.278       17.536       22.763       21.558      307.498      518.150      464.766        0.214        0.065       51.539        6.618        0.016      341.301       15.920      864.841
09/22/2014  08:43:00       33.992      -23.562       17.284       26.116       42.345       25.385      682.024     1793.104      644.389        0.256        0.156       41.359       14.833        0.129      341.517       16.285      864.848
09/22/2014  08:44:00       22.003       15.777       18.373       24.370       32.080       16.713      593.904     1029.149      279.316        0.149        0.095       27.075       11.408        0.178      341.679       16.559      864.850
09/22/2014  08:45:00       32.646       36.043       44.183       36.806       27.622       24.895     1354.701      762.989      619.765        0.353        0.137       48.630       20.054        0.170      341.673       16.549      864.853
09/22/2014  08:46:00       33.120       40.600       33.556       25.905       22.402       20.586      671.079      501.844      423.796        0.273        0.080       52.396        5.777        0.012      341.342       15.988      864.849
09/22/2014  08:47:00       16.375       30.263       15.450       24.776       28.327       19.235      613.832      802.399      369.997        0.160        0.089       34.409       19.269        0.314      341.529       16.305      864.848
09/22/2014  08:48:00       22.907       21.035       49.474       32.512       27.637       29.482     1057.011      763.806      869.191        0.305        0.135       31.100       30.159        0.940      341.595       16.417      864.840
09/22/2014  08:49:00       22.929       39.746       33.769       32.502       23.317       20.021     1056.358      543.687      400.821        0.262        0.100       45.886        6.928        0.023      341.694       16.584      864.818
09/22/2014  08:50:00       -6.020       24.154       43.448       15.288       22.359       25.494      233.725      499.942      649.938        0.195        0.069       24.893        4.488        0.033      342.072       17.226      864.808
09/22/2014  08:51:00        4.872       54.009       71.847       25.493       35.447       21.987      649.910     1256.507      483.435        0.525        0.119       54.229       17.748        0.107      341.963       17.041      864.804
09/22/2014  08:52:00       29.091       39.286       41.580       31.928       27.725       22.369     1019.395      768.666      500.385        0.320        0.114       48.885       19.883        0.165      341.694       16.584      864.804
09/22/2014  08:53:00       14.650       11.959       33.168       25.718       31.491       18.569      661.398      991.668      344.814        0.173        0.100       18.911       12.074        0.408      342.079       17.237      864.812
09/22/2014  08:54:00       13.993       -0.046       46.300       20.853       36.373       16.900      434.837     1323.019      285.624        0.219        0.102       13.993       13.170        0.886      342.136       17.334      864.827
09/22/2014  08:55:00       21.191      -45.504       21.289       30.271       51.317       28.061      916.347     2633.399      787.401        0.365        0.217       50.196       27.522        0.301      341.975       17.062      864.834
09/22/2014  08:56:00        2.552      -26.367       25.945       16.566       31.809       20.309      274.416     1011.825      412.473        0.154        0.085       26.490       18.776        0.502      342.258       17.542      864.846
09/22/2014  08:57:00      -13.148      -17.462        5.624       15.707       23.527        9.951      246.707      553.538       99.031        0.070        0.045       21.858        7.362        0.113      341.940       17.003      864.857
09/22/2014  08:58:00      -18.009        3.347       13.027       24.932       28.577       15.101      621.601      816.646      228.026        0.109        0.083       18.317       12.597        0.473      342.135       17.333      864.862
09/22/2014  08:59:00      -54.386      -56.121       -2.913       33.549       58.416       17.600     1125.546     3412.474      309.749        0.548        0.242       78.150       23.708        0.092      341.595       16.416      864.872
09/22/2014  09:00:00      -73.679      -48.928       -7.574       23.763       24.587       17.319      564.684      604.497      299.945        0.467        0.073       88.445       15.262        0.030      341.501       16.257      864.873
09/22/2014  09:01:00      -63.663      -12.270       -8.672        8.911        7.478        5.946       79.407       55.924       35.358        0.222        0.009       64.835        2.511        0.002      341.452       16.175      864.875
09/22/2014  09:02:00      -38.710       11.170       -3.116       15.525       10.927       15.779      241.022      119.402      248.987        0.112        0.030       40.289        4.348        0.012      341.606       16.436      864.876
09/22/2014  09:03:00      -29.847       -4.287       -0.218       17.802       19.024       10.699      316.905      361.920      114.470        0.085        0.040       30.154        6.476        0.046      341.694       16.585      864.883
09/22/2014  09:04:00      -36.968       14.871       -7.484       41.906       20.653       15.732     1756.082      426.565      247.481        0.204        0.122       39.847       13.192        0.110      341.709       16.609      864.883
09/22/2014  09:05:00      -53.766        9.446        0.838       32.787       23.362       17.889     1075.004      545.795      320.017        0.246        0.097       54.589       17.821        0.107      341.759       16.695      864.890
09/22/2014  09:06:00      -19.480        9.124        1.935       10.018       15.597       13.111      100.357      243.280      171.906        0.049        0.026       21.511        7.741        0.130      342.047       17.183      864.898
09/22/2014  09:07:00      -29.130       16.565        4.346       18.713       20.304       16.333      350.168      412.241      266.762        0.109        0.051       33.511        8.117        0.059      342.008       17.118      864.897
09/22/2014  09:08:00      -40.905      -16.035        6.875       20.865       17.214       14.392      435.364      296.308      207.134        0.146        0.047       43.936        9.071        0.043      341.972       17.056      864.904
09/22/2014  09:09:00      -49.774      -10.231       -2.647       21.620       23.236       18.025      467.410      539.912      324.893        0.196        0.067       50.815       15.788        0.097      341.999       17.101      864.910
09/22/2014  09:10:00      -63.230       -9.748       -5.351       17.616       19.204       15.379      310.321      368.793      236.523        0.252        0.046       63.977        6.823        0.011      341.966       17.046      864.907
09/22/2014  09:11:00      -51.158      -44.182       -1.331       24.685       45.259       18.515      609.350     2048.378      342.793        0.379        0.150       67.596       12.319        0.033      341.952       17.022      864.908
09/22/2014  09:12:00     -102.201      -24.286      -15.609       23.715       27.688       17.890      562.405      766.628      320.060        0.646        0.082      105.047       14.663        0.019      341.742       16.667      864.909
09/22/2014  09:13:00     -106.388      -59.945       -9.557       25.937       21.592       13.503      672.721      466.196      182.342        0.816        0.066      122.114       11.794        0.009      341.839       16.830      864.908
09/22/2014  09:14:00     -102.275      -65.015       -1.349       29.444       32.412       19.518      866.935     1050.538      380.969        0.849        0.115      121.191       14.250        0.014      341.881       16.901      864.905
09/22/2014  09:15:00     -103.933      -30.899      -17.769       17.834       16.041       18.289      318.052      257.298      334.505        0.649        0.045      108.428        6.945        0.004      341.892       16.920      864.913
09/22/2014  09:16:00      -60.783       17.715        1.478       21.740       24.389       19.136      472.641      594.841      366.180        0.272        0.072       63.311       15.615        0.061      342.096       17.266      864.908
09/22/2014  09:17:00      -57.140      -11.074       -8.745       26.586       22.932       13.650      706.830      525.864      186.313        0.244        0.071       58.204        8.126        0.019      342.192       17.431      864.907
09/22/2014  09:18:00      -17.318       16.258       34.853       18.135       18.564       29.131      328.889      344.640      848.629        0.165        0.076       23.754        9.111        0.147      342.828       18.510      864.897
09/22/2014  09:19:00      -23.599       -0.805       32.483       23.806       31.311       37.764      566.708      980.388     1426.111        0.229        0.149       23.613       32.452        1.889      342.524       17.995      864.895
09/22/2014  09:20:00       31.276      -76.651       -0.039       70.075       48.855       27.147     4910.478     2386.777      736.982        0.744        0.402       82.786       35.966        0.189      342.188       17.423      864.891
09/22/2014  09:21:00       -0.208      -64.545        5.383       43.998       46.775       29.500     1935.813     2187.902      870.256        0.459        0.250       64.545       21.945        0.116      342.519       17.983      864.883
09/22/2014  09:22:00      -16.234      -26.247       11.472       36.266       30.635       30.191     1315.233      938.533      911.502        0.212        0.158       30.862       17.401        0.318      342.562       18.058      864.879
09/22/2014  09:23:00      -67.906      -55.449      -12.053       45.429       28.219       25.933     2063.753      796.322      672.541        0.568        0.177       87.669       22.563        0.066      342.367       17.728      864.879
09/22/2014  09:24:00      -29.372       -4.129       18.468       44.173       30.996       23.514     1951.281      960.744      552.919        0.234        0.173       29.661       27.509        0.860      343.027       18.849      864.882
09/22/2014  09:25:00      -34.060      -13.804        8.787       29.191       32.052       21.178      852.087     1027.339      448.489        0.188        0.116       36.751       16.655        0.205      342.771       18.414      864.882
09/22/2014  09:26:00      -14.553        6.680       41.139       27.668       34.515       29.170      765.495     1191.313      850.869        0.238        0.140       16.013       24.217        2.287      342.846       18.542      864.885
09/22/2014  09:27:00      -76.609      -23.366        4.768       51.914       38.534       28.783     2695.085     1484.895      828.467        0.572        0.250       80.093       36.493        0.208      342.535       18.012      864.873
09/22/2014  09:28:00      -18.187       -8.449       15.451       41.134       27.483       19.229     1691.967      755.336      369.770        0.173        0.141       20.054       16.609        0.686      342.905       18.643      864.871
09/22/2014  09:29:00        7.860      -29.848       15.044       23.540       33.496       32.509      554.116     1121.963     1056.842        0.196        0.137       30.866       24.637        0.637      342.982       18.773      864.854
09/22/2014  09:30:00       -4.660      -13.061       21.296       19.885       30.386       25.623      395.408      923.281      656.553        0.131        0.099       13.868       16.285        1.379      343.242       19.216      864.839
09/22/2014  09:31:00       21.922      -96.663       -1.752       61.711       61.105       37.794     3808.188     3733.806     1428.396        0.940        0.449       99.117       47.834        0.233      342.711       18.313      864.827
09/22/2014  09:32:00       21.137      -12.663       36.802       29.850       32.700       31.169      891.017     1069.317      971.507        0.245        0.147       24.640       22.108        0.805      343.365       19.424      864.815
09/22/2014  09:33:00       16.445      -11.152       19.944       29.120       27.883       32.441      847.967      777.458     1052.410        0.173        0.134       19.869       13.606        0.469      343.158       19.072      864.801
09/22/2014  09:34:00        5.173      -32.271       18.377       19.643       40.497       32.809      385.852     1639.974     1076.446        0.225        0.155       32.683       26.766        0.671      343.057       18.901      864.797
09/22/2014  09:35:00       20.903      -76.187       -7.889       32.130       37.856       32.000     1032.332     1433.075     1024.025        0.490        0.174       79.003       29.336        0.138      342.719       18.325      864.788
09/22/2014  09:36:00      -11.661       -0.532       17.350       43.491       39.908       27.962     1891.485     1592.680      781.870        0.235        0.213       11.674       23.485        4.047      342.991       18.787      864.771
09/22/2014  09:37:00        2.334       -4.058       52.116       27.044       44.034       24.561      731.365     1938.975      603.227        0.301        0.164        4.681       28.713       37.619      343.236       19.205      864.760
09/22/2014  09:38:00       -0.743       10.596       43.468       52.432       74.669       37.217     2749.110     5575.497     1385.081        0.585        0.485       10.622       43.427       16.715      342.912       18.655      864.743
09/22/2014  09:39:00       46.667      -86.885        4.401       61.121       44.246       46.048     3735.730     1957.692     2120.382        0.878        0.391       98.625       39.525        0.161      342.877       18.593      864.739
09/22/2014  09:40:00       57.264      -95.098      -24.914       42.122       36.269       36.794     1774.241     1315.414     1353.830        0.869        0.222      111.008       20.598        0.034      342.641       18.194      864.727
09/22/2014  09:41:00      -14.519      -88.907        5.697       25.477       26.444       24.912      649.099      699.301      620.631        0.506        0.098       90.085       16.091        0.032      342.615       18.149      864.717
09/22/2014  09:42:00       35.820      -15.986       22.044       29.235       61.204       26.383      854.674     3745.925      696.075        0.366        0.265       39.225       16.505        0.177      343.130       19.024      864.712
09/22/2014  09:43:00       48.047       42.666        9.314       31.924       20.353       26.761     1019.145      414.261      716.140        0.318        0.107       64.256       14.225        0.049      342.984       18.776      864.707
09/22/2014  09:44:00       27.490       31.122       30.587       30.323       30.386       28.996      919.499      923.325      840.757        0.267        0.134       41.524       15.826        0.145      343.286       19.292      864.707
09/22/2014  09:45:00       50.661       75.669       58.062       45.002       34.549       26.914     2025.163     1193.662      724.390        0.780        0.197       91.062       26.705        0.086      342.805       18.471      864.702
09/22/2014  09:46:00       48.172       35.098       39.857       24.135       26.451       26.489      582.498      699.634      701.651        0.356        0.099       59.602        9.666        0.026      342.915       18.659      864.700
09/22/2014  09:47:00      -53.382       -5.864       -2.543       28.548       34.649       15.875      814.962     1200.552      252.018        0.258        0.113       53.703       12.203        0.052      342.815       18.488      864.693
09/22/2014  09:48:00      -39.042      -52.220        3.348       30.844       35.333       22.337      951.358     1248.454      498.927        0.348        0.135       65.202       20.655        0.100      342.933       18.689      864.695
09/22/2014  09:49:00      -20.996        3.699       24.878       18.787       23.694       23.614      352.935      561.401      557.622        0.127        0.074       21.319       19.246        0.815      343.435       19.544      864.694
09/22/2014  09:50:00      -14.937       -2.864       27.356       12.437       25.421       28.554      154.678      646.249      815.345        0.130        0.081       15.209       24.402        2.574      343.514       19.680      864.691
09/22/2014  09:51:00       30.274     -113.193      -12.219       54.963       59.598       28.175     3020.903     3551.901      793.836        1.062        0.368      117.171       20.944        0.032      343.031       18.857      864.695
09/22/2014  09:52:00       50.398      -87.053       -0.555       37.309       59.151       39.355     1391.965     3498.867     1548.827        0.828        0.322      100.589       37.376        0.138      343.064       18.913      864.697
09/22/2014  09:53:00       79.463      -12.759       25.249       57.997       43.757       42.434     3363.598     1914.711     1800.630        0.710        0.354       80.480       34.713        0.186      343.369       19.432      864.704
09/22/2014  09:54:00       82.198       67.214       54.235       75.108       44.791       41.965     5641.272     2006.261     1761.100        1.181        0.470      106.181       39.736        0.140      343.168       19.091      864.708
09/22/2014  09:55:00      103.552       77.311       75.437       55.638       63.122       47.779     3095.532     3984.430     2282.846        1.587        0.468      129.228       45.933        0.126      343.108       18.988      864.694
09/22/2014  09:56:00       71.494       90.882       84.779       48.898       43.816       39.918     2390.973     1919.846     1593.465        1.323        0.295      115.633       34.626        0.090      343.160       19.075      864.698
09/22/2014  09:57:00       80.133       63.288       57.893       34.307       37.142       32.348     1177.004     1379.563     1046.369        0.869        0.180      102.111       22.366        0.048      343.015       18.829      864.695
09/22/2014  09:58:00       20.429       32.410       27.058       27.829       33.571       25.147      774.439     1127.005      632.360        0.237        0.127       38.311       11.440        0.089      343.268       19.260      864.694
09/22/2014  09:59:00       13.143       26.888       19.452       25.595       37.660       23.392      655.119     1418.276      547.203        0.195        0.131       29.929       24.580        0.675      343.497       19.650      864.701
09/22/2014  10:00:00      -11.457       -4.465       24.729       20.170       24.688       17.304      406.816      609.513      299.442        0.104        0.066       12.296       11.943        0.943      343.756       20.092      864.706
09/22/2014  10:01:00       44.790     -103.884      -12.354       89.657       49.907       31.559     8038.396     2490.710      995.995        1.224        0.576      113.128       27.686        0.060      343.316       19.340      864.704
09/22/2014  10:02:00       59.286       36.534       54.985       57.682       70.023       43.772     3327.163     4903.235     1915.988        0.901        0.507       69.639       46.995        0.455      343.540       19.723      864.698
09/22/2014  10:03:00        5.802       22.568       59.750       56.424       41.059       31.060     3183.710     1685.823      964.697        0.497        0.292       23.302       24.567        1.112      343.857       20.265      864.708
09/22/2014  10:04:00       -5.404       -0.481       12.426       27.512       30.394       19.904      756.887      923.822      396.172        0.113        0.104        5.425       11.908        4.818      344.014       20.533      864.708
09/22/2014  10:05:00       24.554      -59.431       -8.099       48.456       43.907       29.109     2347.946     1927.849      847.327        0.466        0.256       64.303       26.740        0.173      343.613       19.849      864.714
09/22/2014  10:06:00       18.651      -39.793       30.151       41.274       61.086       39.164     1703.516     3731.542     1533.782        0.490        0.348       43.947       31.053        0.499      343.892       20.324      864.713
09/22/2014  10:07:00       19.757       38.310       45.524       36.578       26.576       27.500     1337.931      706.269      756.258        0.336        0.140       43.105       21.758        0.255      343.621       19.860      864.714
09/22/2014  10:08:00       -9.241       -0.372       21.202       51.092       35.863       26.944     2610.347     1286.160      725.960        0.258        0.231        9.249       25.130        7.383      343.373       19.440      864.703
09/22/2014  10:09:00       53.778       28.420       56.860       60.716       40.181       37.891     3686.387     1614.548     1435.744        0.683        0.337       60.826       29.830        0.241      343.659       19.925      864.685
09/22/2014  10:10:00       15.895       38.557       19.613       41.927       37.830       48.857     1757.857     1431.123     2387.016        0.385        0.279       41.705       39.781        0.910      343.369       19.432      864.681
09/22/2014  10:11:00      107.695      -73.465        9.690       52.473       82.009       49.920     2753.460     6725.548     2492.038        1.453        0.599      130.366       42.151        0.105      343.447       19.565      864.665
09/22/2014  10:12:00       47.014       62.423       90.636       58.532       62.969       52.853     3426.000     3965.056     2793.459        1.225        0.509       78.147       43.112        0.304      343.641       19.896      864.659
09/22/2014  10:13:00       63.944       -7.052       63.079       60.122      101.960       52.554     3614.683    10395.767     2761.924        1.244        0.839       64.331       63.863        0.985      343.586       19.802      864.655
09/22/2014  10:14:00       58.600       89.543       98.029       51.510       39.855       40.951     2653.294     1588.389     1677.009        1.349        0.296      107.013       28.172        0.069      343.423       19.523      864.658
09/22/2014  10:15:00       64.689       65.273       19.014       16.756       16.576       19.152      280.775      274.780      366.800        0.486        0.046       91.898       10.063        0.012      343.103       18.980      864.652
09/22/2014  10:16:00       65.280       51.553       21.577       39.088       29.776       31.740     1527.867      886.629     1007.404        0.540        0.171       83.182       20.702        0.062      343.278       19.276      864.645
09/22/2014  10:17:00        5.777      -38.901       -4.493       65.778       53.117       30.260     4326.703     2821.401      915.658        0.481        0.403       39.328       30.971        0.620      343.769       20.114      864.652
09/22/2014  10:18:00       15.144       -2.501       37.465       25.787       28.764       31.926      664.952      827.344     1019.241        0.207        0.126       15.349       15.580        1.030      344.051       20.596      864.646
09/22/2014  10:19:00       -4.967      -11.335        3.763       21.994       19.842       16.642      483.752      393.719      276.943        0.066        0.058       12.375        7.491        0.366      343.893       20.327      864.638
09/22/2014  10:20:00        4.149       39.178       22.234       57.270       29.659       27.195     3279.889      879.660      739.548        0.347        0.245       39.397       23.552        0.357      343.962       20.443      864.631
09/22/2014  10:21:00       53.142       90.516       89.845       79.809       41.986       42.634     6369.415     1762.865     1817.630        1.452        0.497      104.963       47.850        0.208      343.817       20.196      864.625
09/22/2014  10:22:00      112.349       51.531       38.217       61.581       54.546       43.996     3792.193     2975.299     1935.666        1.272        0.435      123.604       31.213        0.064      343.627       19.871      864.617
09/22/2014  10:23:00        9.673       27.359       74.578       58.880       65.646       41.308     3466.911     4309.368     1706.380        0.794        0.474       29.019       45.482        2.457      344.191       20.836      864.612
09/22/2014  10:24:00      102.953      131.265       99.123       86.410       39.187       44.734     7466.628     1535.656     2001.133        2.433        0.550      166.823       47.907        0.082      343.542       19.725      864.604
09/22/2014  10:25:00       97.236       89.898       68.535       56.705       42.294       54.066     3215.424     1788.794     2923.133        1.508        0.396      132.426       35.107        0.070      343.535       19.713      864.598
09/22/2014  10:26:00       37.929       42.645       29.708       26.822       24.993       29.373      719.426      624.641      862.762        0.317        0.110       57.072        9.870        0.030      343.604       19.832      864.589
09/22/2014  10:27:00       41.960       36.415       64.030       56.048       94.930       60.852     3141.409     9011.728     3702.982        1.152        0.793       55.558       68.986        1.542      343.815       20.193      864.576
09/22/2014  10:28:00       82.546      179.441      150.876       54.805       49.872       40.916     3003.614     2487.242     1674.145        3.447        0.358      197.517       26.856        0.018      343.471       19.601      864.568
09/22/2014  10:29:00       75.908       83.941       76.846       50.376       59.373       39.849     2537.753     3525.183     1587.919        1.318        0.383      113.172       38.763        0.117      343.510       19.672      864.575
09/22/2014  10:30:00      104.568       67.403       47.379       64.074       47.671       51.933     4105.440     2272.509     2697.056        1.340        0.454      124.409       37.207        0.089      343.868       20.285      864.564
09/22/2014  10:31:00       42.690       29.462       62.627       51.856       57.324       49.613     2689.044     3286.021     2461.403        0.752        0.422       51.869       42.120        0.659      344.097       20.673      864.570
09/22/2014  10:32:00        8.741      -58.669        4.072       30.710       51.430       38.240      943.087     2645.081     1462.313        0.429        0.253       59.317       33.571        0.320      344.330       21.073      864.570
09/22/2014  10:33:00       18.072      -84.199       11.166       54.497       85.393       39.371     2969.869     7291.975     1550.091        0.967        0.591       86.116       27.183        0.100      343.911       20.355      864.566
09/22/2014  10:34:00       21.579      -34.891       -4.382       44.539       39.189       27.051     1983.757     1535.799      731.755        0.298        0.213       41.024        9.938        0.059      343.933       20.394      864.569
09/22/2014  10:35:00      -38.532       11.329       -8.560       26.632       13.640       16.721      709.274      186.060      279.606        0.143        0.059       40.163       18.479        0.212      343.761       20.099      864.568
09/22/2014  10:36:00      -24.744      -39.570       -8.932       19.869       20.588       19.645      394.784      423.871      385.925        0.173        0.060       46.670       11.615        0.062      343.792       20.153      864.574
09/22/2014  10:37:00       -8.128       14.322       38.026       16.765       25.647       20.768      281.058      657.754      431.294        0.154        0.069       16.467       18.944        1.323      344.894       22.038      864.568
09/22/2014  10:38:00       -4.739       51.533       86.935       33.238       47.029       31.014     1104.742     2211.699      961.874        0.726        0.214       51.750       24.969        0.233      344.552       21.452      864.582
09/22/2014  10:39:00      115.168       74.562       31.161       48.148       41.233       46.718     2318.189     1700.187     2182.599        1.300        0.310      137.197       17.481        0.016      343.843       20.240      864.575
09/22/2014  10:40:00       64.087       33.697       11.824       58.338       75.735       38.880     3403.294     5735.757     1511.683        0.801        0.533       72.406       12.623        0.030      344.195       20.843      864.571
09/22/2014  10:41:00       74.172      -23.006       31.463       61.615       51.691       42.069     3796.357     2671.921     1769.760        0.763        0.412       77.658       33.677        0.188      344.301       21.023      864.575
09/22/2014  10:42:00       38.451      -25.600       27.508       50.617       59.052       40.156     2562.035     3487.102     1612.540        0.527        0.383       46.193       36.597        0.628      344.390       21.176      864.582
09/22/2014  10:43:00       34.877       12.471       56.970       48.111       59.312       39.350     2314.657     3517.938     1548.429        0.600        0.369       37.039       30.567        0.681      344.662       21.639      864.589
09/22/2014  10:44:00       47.224       -8.634       36.552       58.104       63.876       56.196     3376.051     4080.159     3157.953        0.713        0.531       48.007       54.383        1.283      344.455       21.287      864.582
09/22/2014  10:45:00       62.124        8.748       39.177       41.020       54.064       33.280     1682.644     2922.875     1107.585        0.559        0.286       62.737       30.825        0.241      344.201       20.851      864.599
09/22/2014  10:46:00       49.218       59.113       57.761       34.623       44.941       33.414     1198.752     2019.706     1116.482        0.679        0.217       76.921       23.606        0.094      344.055       20.603      864.587
09/22/2014  10:47:00       51.495       48.730       19.926       44.536       35.615       42.098     1983.443     1268.429     1772.239        0.522        0.251       70.897       28.224        0.158      344.452       21.282      864.588
09/22/2014  10:48:00      111.136       75.075       15.309       49.860       35.372       40.497     2486.049     1251.202     1639.995        1.180        0.269      134.117       25.425        0.036      344.017       20.537      864.575
09/22/2014  10:49:00       80.740       51.415        6.439       44.054       37.773       23.562     1940.780     1426.805      555.155        0.656        0.196       95.721       17.518        0.033      344.147       20.760      864.560
09/22/2014  10:50:00       36.021      103.096      103.627       42.484       64.251       53.077     1804.873     4128.180     2817.150        1.571        0.438      109.208       45.679        0.175      344.593       21.520      864.539
09/22/2014  10:51:00       60.070      105.806       99.572       59.382       47.662       51.254     3526.168     2271.673     2626.986        1.657        0.421      121.669       47.009        0.149      344.370       21.141      864.523
09/22/2014  10:52:00       71.875       91.794       60.052       55.609       48.377       60.413     3092.356     2340.359     3649.788        1.314        0.454      116.585       47.913        0.169      344.361       21.125      864.521
09/22/2014  10:53:00       25.673       42.075       84.195       53.113       77.897       44.523     2820.975     6067.896     1982.325        1.019        0.544       49.289       50.787        1.062      344.627       21.579      864.502
09/22/2014  10:54:00       42.201       72.245       71.185       56.568       67.736       40.542     3199.889     4588.221     1643.622        1.075        0.472       83.668       43.636        0.272      344.484       21.335      864.505
09/22/2014  10:55:00       23.195      -47.479       32.624       64.358      109.696       45.424     4141.983    12033.245     2063.315        1.104        0.912       52.842       55.647        1.109      344.687       21.682      864.502
09/22/2014  10:56:00       85.222     -101.606       14.564       64.186       83.339       53.460     4119.821     6945.318     2857.947        1.586        0.696      132.614       47.423        0.128      344.530       21.413      864.486
09/22/2014  10:57:00       20.578       10.827       25.512       34.220       54.572       34.500     1171.018     2978.133     1190.273        0.326        0.267       23.252       31.073        1.786      345.005       22.227      864.493
09/22/2014  10:58:00       43.696       32.521       37.634       44.053       42.458       35.511     1940.631     1802.718     1260.999        0.469        0.250       54.470       27.319        0.252      344.819       21.909      864.475
09/22/2014  10:59:00       55.318      -39.270       28.649       45.786       58.612       40.168     2096.364     3435.424     1613.501        0.628        0.357       67.839       34.562        0.260      344.738       21.770      864.466
09/22/2014  11:00:00       64.449      -68.692       36.361       59.664       87.058       57.600     3559.786     7579.112     3317.758        1.232        0.723       94.193       62.695        0.443      344.651       21.621      864.450
09/22/2014  11:01:00      111.450      108.034       71.564       50.364       35.588       37.649     2536.486     1266.532     1417.473        1.722        0.261      155.218       33.126        0.046      344.237       20.915      864.431
09/22/2014  11:02:00       61.612       79.977       61.302       46.348       44.533       40.894     2148.096     1983.173     1672.333        0.988        0.290      100.957       26.602        0.069      344.405       21.199      864.416
09/22/2014  11:03:00      108.418       87.322       56.130       47.803       53.943       57.033     2285.133     2909.816     3252.727        1.549        0.422      139.210       48.381        0.121      344.333       21.076      864.393
09/22/2014  11:04:00       64.642       -1.559       23.640       63.160       69.493       51.836     3989.215     4829.326     2686.942        0.812        0.575       64.660       49.733        0.592      344.629       21.584      864.371
09/22/2014  11:05:00       85.461     -108.840        0.344       45.185       33.849       35.374     2041.671     1145.759     1251.306        1.179        0.222      138.382       26.459        0.037      344.396       21.184      864.350
09/22/2014  11:06:00       30.738      -50.643        5.977       26.854       51.729       36.541      721.158     2675.839     1335.212        0.414        0.237       59.241       37.183        0.394      345.006       22.230      864.325
09/22/2014  11:07:00       12.941       10.738       37.471       36.303       48.825       59.123     1317.928     2383.898     3495.489        0.444        0.360       16.815       48.604        8.355      344.969       22.166      864.295
09/22/2014  11:08:00       53.913       74.580       94.766       60.822       60.911       40.615     3699.260     3710.174     1649.555        1.325        0.453       92.027       41.121        0.200      344.774       21.830      864.274
09/22/2014  11:09:00       58.763      118.397       92.586       58.808       54.614       56.042     3458.420     2982.690     3140.664        1.781        0.479      132.178       48.109        0.132      344.889       22.027      864.236
09/22/2014  11:10:00        6.138       80.806      104.275       42.535       72.703       48.192     1809.244     5285.731     2322.444        1.343        0.471       81.039       53.271        0.432      344.874       22.002      864.207
09/22/2014  11:11:00       27.081       37.762       67.366       51.295       70.633       43.493     2631.187     4988.971     1891.679        0.810        0.476       46.469       38.357        0.681      344.824       21.917      864.188
09/22/2014  11:12:00       98.116       66.127       17.390       81.169       37.328       44.039     6588.345     1393.390     1939.474        1.211        0.496      118.320       37.080        0.098      344.821       21.911      864.162
09/22/2014  11:13:00       96.895       81.455       18.836       74.534       39.429       37.515     5555.328     1554.653     1407.358        1.245        0.426      126.584       19.249        0.023      344.810       21.892      864.143
09/22/2014  11:14:00      150.965      108.859       26.549       66.141       48.948       48.860     4374.593     2395.936     2387.283        2.225        0.458      186.120       26.398        0.020      344.811       21.891      864.135
09/22/2014  11:15:00       54.496       66.982       76.577       48.968       55.542       36.747     2397.851     3084.968     1350.322        1.008        0.342       86.351       26.408        0.094      345.364       22.842      864.127
09/22/2014  11:16:00        4.718      -17.769       39.106       31.411       92.768       48.964      986.632     8605.982     2397.490        0.693        0.600       18.385       60.294       10.756      345.243       22.635      864.132
09/22/2014  11:17:00       37.875       13.513       17.989       46.941       98.894       49.377     2203.451     9779.959     2438.074        0.818        0.721       40.214       28.372        0.498      344.812       21.899      864.140
09/22/2014  11:18:00       28.838       35.877       58.808       62.719       56.647       32.155     3933.663     3208.843     1033.922        0.688        0.409       46.031       26.439        0.330      345.155       22.483      864.134
09/22/2014  11:19:00       -9.629       19.597       68.476       49.408       66.811       37.432     2441.128     4463.645     1401.165        0.673        0.415       21.835       26.559        1.480      345.486       23.050      864.137
09/22/2014  11:20:00       53.507       71.214       77.529       57.374       52.003       36.057     3291.774     2704.359     1300.095        1.062        0.365       89.075       22.120        0.062      344.945       22.125      864.154
09/22/2014  11:21:00       58.596       47.526       62.009       41.298       48.958       36.935     1705.505     2396.848     1364.202        0.750        0.273       75.447       36.043        0.228      344.889       22.029      864.152
09/22/2014  11:22:00       46.011       17.810       40.925       53.538       55.288       30.597     2866.340     3056.728      936.192        0.548        0.343       49.338       23.537        0.228      344.763       21.813      864.153
09/22/2014  11:23:00      -26.955       10.383      -19.983       25.071       16.470       19.597      628.530      271.272      384.048        0.126        0.064       28.886       11.746        0.165      344.798       21.873      864.154
09/22/2014  11:24:00       52.222       51.606       44.806       61.160       50.034       31.811     3740.604     2503.361     1011.924        0.733        0.363       73.419       33.029        0.202      345.296       22.724      864.153
09/22/2014  11:25:00       82.886       24.952       28.054       57.000       67.047       40.718     3249.039     4495.324     1657.971        0.884        0.470       86.560       35.563        0.169      345.327       22.779      864.162
09/22/2014  11:26:00       15.502       -1.413       28.569       33.955       57.141       28.938     1152.969     3265.124      837.426        0.316        0.263       15.566       24.636        2.505      345.716       23.445      864.167
09/22/2014  11:27:00        5.217       40.398       80.319       30.729       59.923       38.906      944.249     3590.776     1513.653        0.708        0.302       40.734       39.687        0.949      345.598       23.244      864.159
09/22/2014  11:28:00       74.520       74.101       72.388       72.693       74.761       53.593     5284.258     5589.133     2872.224        1.501        0.687      105.091       51.709        0.242      345.378       22.867      864.160
09/22/2014  11:29:00      126.530       99.197       14.690       45.440       30.795       23.894     2064.774      948.318      570.944        1.482        0.179      160.779       16.900        0.011      344.548       21.444      864.158
09/22/2014  11:30:00       31.628       59.942        8.234       38.213       35.497       36.543     1460.217     1260.057     1335.356        0.436        0.203       67.775       25.349        0.140      344.996       22.213      864.150
09/22/2014  11:31:00       42.923       57.948      -13.222       35.411       20.862       23.491     1253.946      435.235      551.849        0.381        0.112       72.114       11.548        0.026      344.901       22.051      864.142
09/22/2014  11:32:00       40.529       61.975       81.365       68.934       99.810       55.784     4751.845     9961.976     3111.895        1.496        0.891       74.051       60.316        0.663      345.455       22.997      864.122
09/22/2014  11:33:00      141.176      101.693       66.490       63.977       53.441       51.600     4093.052     2855.910     2662.595        2.215        0.481      173.989       28.232        0.026      344.948       22.127      864.127
09/22/2014  11:34:00        7.198        0.707       50.297       40.267       87.843       35.208     1621.406     7716.355     1239.605        0.658        0.529        7.233       22.209        9.429      345.449       22.989      864.136
09/22/2014  11:35:00      -12.356      -57.465       -4.590       41.412       23.712       19.923     1714.941      562.267      396.930        0.307        0.134       58.778       17.183        0.085      344.876       22.006      864.135
09/22/2014  11:36:00       10.294       43.214       16.252       30.611       75.446       26.826      937.020     5692.047      719.644        0.479        0.367       44.423       23.294        0.275      345.749       23.503      864.138
09/22/2014  11:37:00      -34.064       13.320      -13.394       28.375       40.410       19.912      805.141     1632.949      396.506        0.218        0.142       36.576       20.324        0.309      345.149       22.474      864.149
09/22/2014  11:38:00      -19.252       13.573        3.636       43.360       23.478       19.065     1880.072      551.240      363.460        0.168        0.140       23.556       18.819        0.638      345.341       22.803      864.142
09/22/2014  11:39:00       29.334       24.052       24.475       43.039       34.258       34.782     1852.385     1173.618     1209.760        0.314        0.212       37.934       30.832        0.661      346.084       24.081      864.156
09/22/2014  11:40:00       48.938       42.104        5.240       32.068       33.616       34.432     1028.374     1130.068     1185.536        0.377        0.167       64.557       22.694        0.124      345.642       23.320      864.146
09/22/2014  11:41:00        9.660       15.213       13.493       32.740       25.407       23.704     1071.879      645.539      561.882        0.139        0.114       18.021       18.591        1.064      346.067       24.049      864.138
09/22/2014  11:42:00      -68.500        6.104      -20.519       23.949       35.715       16.413      573.572     1275.595      269.382        0.363        0.106       68.772        8.286        0.015      345.235       22.621      864.131
09/22/2014  11:43:00      -62.679      -10.813      -13.246       19.363       28.452       13.907      374.918      809.500      193.412        0.280        0.069       63.605        7.336        0.013      345.227       22.607      864.110
09/22/2014  11:44:00      -20.305        2.355        2.779       14.143       14.135       21.536      200.025      199.793      463.800        0.064        0.043       20.441       13.515        0.437      346.058       24.034      864.111
09/22/2014  11:45:00       20.901      -44.463       28.749       53.443       85.544       39.173     2856.142     7317.724     1534.496        0.747        0.585       49.130       47.981        0.954      346.038       23.998      864.093
09/22/2014  11:46:00       67.294       93.401       70.220       55.690       42.181       43.822     3101.389     1779.249     1920.326        1.249        0.340      115.118       35.422        0.095      345.484       23.049      864.086
09/22/2014  11:47:00       52.322       35.143       15.249       21.032       19.433       25.848      442.343      377.625      668.115        0.285        0.074       63.029       18.387        0.085      345.391       22.888      864.080
09/22/2014  11:48:00       55.875       61.686       23.824       42.603       32.611       35.316     1814.973     1063.501     1247.204        0.581        0.206       83.230       21.801        0.069      345.861       23.694      864.074
09/22/2014  11:49:00       21.774       16.077       30.328       32.258       39.196       25.457     1040.583     1536.350      648.044        0.244        0.161       27.066       20.797        0.590      346.147       24.185      864.073
09/22/2014  11:50:00       47.516      -96.487      -15.966      100.236       65.110       28.251    10047.197     4239.370      798.132        1.345        0.754      107.552       35.410        0.108      345.953       23.851      864.072
09/22/2014  11:51:00       89.275     -114.270      -25.650       72.974       91.059       67.798     5325.272     8291.792     4596.627        1.995        0.911      145.009       68.572        0.224      346.098       24.099      864.054
09/22/2014  11:52:00       56.809     -127.604      -37.481       44.032       58.520       29.076     1938.813     3424.628      845.431        1.356        0.310      139.678       25.681        0.034      345.461       23.007      864.075
09/22/2014  11:53:00       -2.426      -59.957       -6.680       36.155       35.975       30.013     1307.169     1294.188      900.800        0.357        0.175       60.006       20.951        0.122      345.955       23.856      864.065
09/22/2014  11:54:00      -32.293      -41.587       -1.246       37.793       43.505       27.848     1428.298     1892.656      775.515        0.343        0.205       52.653       16.914        0.103      345.926       23.807      864.064
09/22/2014  11:55:00      -11.869      -35.862      -16.936       31.109       46.279       27.556      967.788     2141.762      759.314        0.279        0.193       37.775       14.790        0.153      345.984       23.905      864.056
09/22/2014  11:56:00      -32.532      -44.764        8.794       27.447       25.682       25.346      753.320      659.586      642.427        0.260        0.103       55.337       11.778        0.045      345.966       23.873      864.049
09/22/2014  11:57:00        6.932        3.002        7.979       35.187       36.488       31.129     1238.120     1331.369      969.024        0.183        0.177        7.554       17.244        5.210      346.268       24.394      864.031
09/22/2014  11:58:00        5.043       11.968       -0.750       37.811       32.042       14.258     1429.685     1026.673      203.280        0.141        0.133       12.987       18.217        1.968      345.804       23.595      864.011
09/22/2014  11:59:00       -4.858        1.368        6.003       16.334       16.342       14.417      266.798      267.063      207.862        0.040        0.037        5.047        7.084        1.971      346.478       24.756      864.002
09/22/2014  12:00:00      -34.505        3.554       -2.169       28.096       18.506       15.560      789.399      342.481      242.107        0.129        0.069       34.687        7.402        0.046      346.418       24.650      863.979
09/22/2014  12:01:00       43.338      -83.397       -7.072      109.845       83.113       56.651    12065.893     6907.812     3209.335        1.553        1.109       93.985       69.436        0.546      346.465       24.732      863.963
09/22/2014  12:02:00       75.677      -82.661        5.813       61.935      109.799       60.801     3835.916    12055.789     3696.815        1.609        0.979      112.071       72.547        0.419      346.457       24.718      863.946
09/22/2014  12:03:00       25.119      -31.446       39.429       41.551       57.482       45.281     1726.519     3304.185     2050.377        0.513        0.354       40.247       31.458        0.611      346.618       24.994      863.950
09/22/2014  12:04:00       75.295      -84.738       -8.064       57.830       56.046       52.327     3344.263     3141.109     2738.137        1.107        0.461      113.357       47.246        0.174      346.241       24.347      863.928
09/22/2014  12:05:00       78.704       -5.548       15.608       48.395       71.699       46.642     2342.046     5140.785     2175.449        0.806        0.483       78.899       38.871        0.243      346.257       24.375      863.909
09/22/2014  12:06:00       86.967       63.060       27.387       42.092       30.542       32.433     1771.713      932.798     1051.881        0.802        0.188      107.424       23.909        0.050      346.290       24.431      863.869
09/22/2014  12:07:00       57.843       73.724       61.996       42.787       31.071       38.539     1830.704      965.435     1485.247        0.845        0.214       93.707       16.676        0.032      346.256       24.372      863.841
09/22/2014  12:08:00       62.671       72.518       22.893       48.977       51.422       41.778     2398.736     2644.193     1745.368        0.825        0.339       95.846       28.336        0.087      346.115       24.129      863.815
09/22/2014  12:09:00        9.584       32.532       26.330       30.548       27.061       28.380      933.210      732.273      805.424        0.216        0.124       33.915       15.758        0.216      346.721       25.172      863.805
09/22/2014  12:10:00      110.010       87.672       32.518       50.615       36.805       38.270     2561.913     1354.643     1464.556        1.311        0.269      140.672       30.534        0.047      346.142       24.178      863.785
09/22/2014  12:11:00       87.637       41.656       47.871       54.322       61.791       36.238     2950.913     3818.068     1313.194        0.989        0.404       97.033       28.910        0.089      346.390       24.602      863.779
09/22/2014  12:12:00       33.262       92.556       86.418       53.650       57.333       34.168     2878.323     3287.124     1167.480        1.224        0.367       98.351       25.947        0.070      346.597       24.959      863.758
09/22/2014  12:13:00       90.702      110.142       64.049       72.176       43.596       47.397     5209.379     1900.642     2246.434        1.691        0.468      142.682       33.454        0.055      346.034       23.990      863.766
09/22/2014  12:14:00       55.845       66.296       75.061       50.025       58.631       45.848     2502.491     3437.610     2102.040        1.059        0.402       86.682       37.385        0.186      346.500       24.792      863.752
09/22/2014  12:15:00       31.392      -12.907       69.982       61.461      109.225       70.894     3777.500    11930.156     5026.000        1.339        1.037       33.942       81.736        5.799      346.785       25.281      863.747
09/22/2014  12:16:00       68.455       11.382       65.946       65.037       78.444       48.943     4229.764     6153.462     2395.368        1.097        0.639       69.395       44.802        0.417      346.642       25.036      863.751
09/22/2014  12:17:00       55.788      -10.975       35.462       44.560       49.358       31.465     1985.582     2436.245      990.066        0.495        0.271       56.858       16.750        0.087      346.372       24.573      863.761
09/22/2014  12:18:00       51.565       20.056       37.995       48.955       34.626       34.073     2396.608     1198.969     1160.949        0.463        0.238       55.328       24.857        0.202      346.667       25.081      863.753
09/22/2014  12:19:00       29.872      -91.810       -4.464       41.300       46.522       26.901     1705.707     2164.262      723.647        0.697        0.230       96.547       20.088        0.043      346.334       24.505      863.744
09/22/2014  12:20:00       86.869     -111.505      -18.665       53.748       41.412       33.765     2888.799     1714.971     1140.048        1.303        0.287      141.349       31.247        0.049      346.272       24.399      863.750
09/22/2014  12:21:00       51.091      -71.146       -4.104       55.626       54.640       45.065     3094.294     2985.580     2030.837        0.790        0.406       87.590       37.185        0.180      346.637       25.029      863.740
09/22/2014  12:22:00        3.746       14.236       62.322       26.980       52.913       29.262      727.894     2799.821      856.286        0.424        0.219       14.720       28.738        3.811      347.087       25.803      863.736
09/22/2014  12:23:00       37.905       35.933       37.831       46.300       37.889       40.327     2143.662     1435.579     1626.282        0.468        0.260       52.230       27.678        0.281      346.650       25.051      863.736
09/22/2014  12:24:00       50.925        1.446       24.412       36.759       63.936       32.243     1351.190     4087.766     1039.590        0.483        0.324       50.946       27.012        0.281      346.302       24.453      863.725
09/22/2014  12:25:00       39.846      -44.812       11.101       29.609       31.313       23.245      876.709      980.504      540.335        0.306        0.120       59.966       16.900        0.079      346.323       24.489      863.737
09/22/2014  12:26:00      -17.736      -19.081      -12.087       16.198       23.105       10.626      262.359      533.827      112.921        0.087        0.045       26.050       10.193        0.153      346.493       24.781      863.721
09/22/2014  12:27:00      -29.812       -3.006       14.091       30.621       23.289       24.426      937.646      542.386      596.624        0.159        0.104       29.963       16.846        0.316      347.064       25.763      863.717
09/22/2014  12:28:00       -7.503      -13.024       38.338       24.717       34.493       30.298      610.932     1189.790      917.955        0.221        0.136       15.031       19.845        1.743      347.294       26.160      863.719
09/22/2014  12:29:00       16.703       18.210       28.548       31.285       36.001       31.422      978.766     1296.057      987.368        0.234        0.163       24.710       18.874        0.583      346.805       25.316      863.723
09/22/2014  12:30:00       14.079       32.539       42.097       21.978       20.601       13.179      483.033      424.405      173.680        0.205        0.054       35.454        9.561        0.073      347.223       26.036      863.727
09/22/2014  12:31:00      -23.145       89.548        7.678       34.330       81.835       38.842     1178.554     6696.974     1508.740        0.900        0.469       92.491       39.700        0.184      346.786       25.283      863.718
09/22/2014  12:32:00       15.518       78.228       -8.471       34.823       42.576       40.521     1212.645     1812.693     1641.930        0.555        0.233       79.753       35.954        0.203      346.550       24.879      863.704
09/22/2014  12:33:00      -27.087      115.965       -7.790       29.372       35.733       32.202      862.700     1276.865     1036.948        0.871        0.159      119.086       18.826        0.025      346.440       24.688      863.700
09/22/2014  12:34:00      -57.343       93.583      -12.736       24.657       34.217       29.644      607.989     1170.781      878.740        0.743        0.133      109.755       13.184        0.014      346.584       24.935      863.680
09/22/2014  12:35:00      -27.246       74.529        0.072       29.661       45.391       31.007      879.749     2060.342      961.445        0.510        0.195       79.353       28.389        0.128      346.916       25.510      863.666
09/22/2014  12:36:00       22.987       20.016       23.899       29.593       22.909       32.364      875.719      524.841     1047.439        0.197        0.122       30.480       18.541        0.370      347.274       26.124      863.638
09/22/2014  12:37:00       12.783       42.098       -7.220       20.532       25.120       24.013      421.549      630.995      576.615        0.181        0.081       43.996       13.894        0.100      346.694       25.127      863.619
09/22/2014  12:38:00      -11.128       10.530       -5.421       22.844       11.822       20.701      521.859      139.748      428.533        0.068        0.055       15.320       15.033        0.963      346.762       25.243      863.617
09/22/2014  12:39:00      -49.285        0.810       -0.185       23.513       23.770       16.447      552.884      565.005      270.495        0.191        0.069       49.292        6.415        0.017      346.753       25.227      863.612
09/22/2014  12:40:00        2.267      -26.530       -1.006       37.453       20.377       19.385     1402.732      415.215      375.765        0.145        0.110       26.627       10.474        0.155      346.919       25.514      863.619
09/22/2014  12:41:00      -57.584       29.263      -11.915       44.854       29.124       26.363     2011.921      848.234      695.008        0.393        0.178       64.593       18.282        0.080      346.902       25.482      863.605
09/22/2014  12:42:00      -84.425      -54.160       -1.287       49.892       80.180       28.333     2489.249     6428.834      802.739        0.989        0.486      100.304       26.907        0.072      346.802       25.311      863.600
09/22/2014  12:43:00      -40.163      -22.626       15.418       60.633       41.387       29.416     3676.319     1712.870      865.313        0.431        0.313       46.098       36.608        0.631      347.186       25.974      863.594
09/22/2014  12:44:00      -33.768      -69.019      -16.321       54.441       47.679       29.629     2963.793     2273.274      877.898        0.614        0.306       76.837       26.767        0.121      347.128       25.873      863.577
09/22/2014  12:45:00      -33.226      -28.914       12.885       52.825       39.185       29.835     2790.449     1535.498      890.117        0.366        0.261       44.046       22.081        0.251      347.360       26.272      863.576
09/22/2014  12:46:00      -92.406      -86.967        4.990       70.538       53.963       36.765     4975.645     2912.048     1351.649        1.268        0.462      126.894       26.076        0.042      346.790       25.290      863.569
09/22/2014  12:47:00      -52.452      -45.372        6.208       43.325       34.979       25.463     1877.084     1223.503      648.382        0.430        0.187       69.353       20.255        0.085      346.905       25.491      863.566
09/22/2014  12:48:00      -49.649      -29.050       -5.139       51.905       33.909       24.958     2694.151     1149.807      622.903        0.390        0.223       57.523       19.691        0.117      346.702       25.138      863.540
09/22/2014  12:49:00       67.979     -108.366       -9.503       56.856       41.317       31.807     3232.620     1707.088     1011.716        1.120        0.298      127.923       22.681        0.031      346.791       25.293      863.517
09/22/2014  12:50:00       33.231      -38.223       42.756       44.404       81.498       41.612     1971.739     6641.855     1731.529        0.737        0.517       50.648       49.579        0.958      347.446       26.421      863.479
09/22/2014  12:51:00       10.711       -2.739       22.575       36.134       41.705       34.161     1305.685     1739.266     1166.981        0.242        0.211       11.055       30.977        7.851      347.109       25.839      863.449
09/22/2014  12:52:00      -57.041      -21.528       -6.050       35.333       25.327       18.358     1248.444      641.463      337.014        0.299        0.111       60.968       11.475        0.035      347.219       26.030      863.423
09/22/2014  12:53:00      -44.652       27.908      -21.893       34.422       34.644       16.991     1184.847     1200.198      288.684        0.296        0.134       52.656        4.688        0.008      347.215       26.024      863.399
09/22/2014  12:54:00      -44.330      -28.127        5.785       36.183       38.835       21.765     1309.203     1508.131      473.733        0.304        0.165       52.500       17.334        0.109      347.364       26.281      863.371
09/22/2014  12:55:00      -36.461       -7.749        1.044       33.698       27.859       23.066     1135.583      776.103      532.049        0.192        0.122       37.276       20.545        0.304      347.380       26.309      863.360
09/22/2014  12:56:00       67.693     -142.050      -14.470       94.429       93.049       41.395     8916.900     8658.178     1713.507        2.213        0.964      157.355       47.738        0.092      347.156       25.920      863.336
09/22/2014  12:57:00       35.807       15.443       54.475       43.859       92.079       46.109     1923.583     8478.571     2126.039        0.851        0.626       38.995       53.888        1.910      347.684       26.832      863.324
09/22/2014  12:58:00       14.936       29.660       73.644       45.402       60.846       41.372     2061.300     3702.209     1711.652        0.700        0.374       33.208       32.270        0.944      347.541       26.584      863.303
09/22/2014  12:59:00      103.287      112.435      111.378       93.681       73.589       46.921     8776.205     5415.289     2201.572        2.605        0.820      152.675       41.246        0.073      347.044       25.726      863.284
09/22/2014  13:00:00      177.759      124.211       72.377       67.812       53.394       57.804     4598.443     2850.878     3341.280        3.153        0.540      216.856       43.358        0.040      346.741       25.202      863.264
09/22/2014  13:01:00       10.989       48.367      113.358       63.954       85.091       48.902     4090.066     7240.436     2391.398        1.451        0.686       49.600       57.220        1.331      347.439       26.409      863.238
09/22/2014  13:02:00       91.786       14.958       57.238       59.050       69.208       44.281     3486.891     4789.738     1960.828        1.108        0.512       92.997       41.021        0.195      346.881       25.448      863.237
09/22/2014  13:03:00      121.006      -27.009       14.834       61.130       96.388       45.359     3736.856     9290.569     2057.478        1.534        0.754      123.984       42.067        0.115      346.924       25.519      863.207
09/22/2014  13:04:00       98.159       82.360       60.695       80.986       67.009       64.228     6558.715     4490.179     4125.242        1.764        0.759      128.134       44.036        0.118      347.021       25.688      863.188
09/22/2014  13:05:00       52.502      121.422      135.391       70.356       77.825       52.345     4950.007     6056.696     2740.013        2.479        0.687      132.287       46.042        0.121      347.361       26.272      863.166
09/22/2014  13:06:00       66.249       23.586       96.087       59.540       63.111       50.554     3544.994     3982.949     2555.666        1.213        0.504       70.323       27.909        0.158      347.333       26.227      863.179
09/22/2014  13:07:00       44.878      -59.871        7.818       43.170       83.501       37.516     1863.606     6972.467     1407.460        0.795        0.512       74.823       40.881        0.299      347.016       25.681      863.186
09/22/2014  13:08:00      121.905      -63.795        8.984       70.961       74.083       55.351     5035.414     5488.345     3063.776        1.630        0.679      137.588       47.372        0.119      346.974       25.607      863.143
09/22/2014  13:09:00       42.117       30.714       76.229       55.065       63.210       47.398     3032.151     3995.443     2246.607        0.890        0.464       52.127       39.963        0.588      347.271       26.119      863.147
09/22/2014  13:10:00       66.738      -19.301       21.676       85.564      101.227       46.184     7321.230    10246.997     2132.937        1.249        0.985       69.473       55.175        0.631      346.933       25.537      863.127
09/22/2014  13:11:00       80.464     -174.438       -9.475       58.263       42.924       29.105     3394.628     1842.489      847.073        2.154        0.304      192.102       20.496        0.011      346.610       24.980      863.110
09/22/2014  13:12:00       26.459     -114.677      -19.087       64.640       67.683       25.386     4178.329     4580.960      644.468        1.181        0.470      117.690       17.139        0.021      346.590       24.946      863.089
09/22/2014  13:13:00      -62.189        7.266      -12.829       44.244       32.916       24.435     1957.491     1083.478      597.073        0.386        0.182       62.612       19.576        0.098      346.869       25.427      863.058
09/22/2014  13:14:00     -148.000       26.376      -12.273       47.935       34.125       21.767     2297.744     1164.488      473.810        1.334        0.197      150.332       10.251        0.005      346.877       25.442      863.018
09/22/2014  13:15:00       11.240        8.748       35.024       33.778       40.378       25.975     1140.957     1630.389      674.710        0.244        0.172       14.243       17.705        1.545      347.607       26.700      862.999
09/22/2014  13:16:00       29.823       -4.600       41.102       62.330       92.421       74.166     3885.007     8541.554     5500.666        1.026        0.896       30.175       59.812        3.929      347.392       26.326      862.981
09/22/2014  13:17:00       40.059      -21.111       63.726       54.181       93.861       64.855     2935.618     8809.882     4206.176        1.103        0.798       45.281       73.792        2.656      347.290       26.152      862.973
09/22/2014  13:18:00       65.368      -56.993       20.088       58.370       88.895       38.111     3407.108     7902.359     1452.470        1.034        0.638       86.725       51.216        0.349      347.227       26.044      862.952
09/22/2014  13:19:00       33.121      -78.055       -7.133       63.688       69.220       46.863     4056.112     4791.403     2196.132        0.914        0.552       84.792       45.093        0.283      347.064       25.762      862.921
09/22/2014  13:20:00       -0.981      -88.602        3.507       53.320       42.478       33.202     2843.072     1804.341     1102.384        0.681        0.287       88.607       21.865        0.061      347.142       25.897      862.894
09/22/2014  13:21:00      -38.466      -12.721        0.937       62.957       31.730       35.439     3963.573     1006.765     1255.888        0.393        0.311       40.515       30.719        0.575      347.417       26.372      862.865
09/22/2014  13:22:00      -36.900      -19.229       14.934       60.884       38.936       27.834     3706.921     1516.022      774.704        0.397        0.300       41.609       28.152        0.458      347.227       26.043      862.833
09/22/2014  13:23:00       57.076       16.693       44.000       71.012       52.233       48.939     5042.673     2728.247     2395.075        0.782        0.508       59.467       39.979        0.452      347.472       26.465      862.827
09/22/2014  13:24:00      136.343      -63.379       35.159       97.693      169.269       76.736     9543.997    28652.124     5888.436        3.395        2.204      150.354       94.198        0.393      347.318       26.200      862.809
09/22/2014  13:25:00       80.451      -44.593       52.997       99.384      136.516       91.438     9877.137    18636.714     8360.960        2.406        1.844       91.984      106.290        1.335      347.429       26.390      862.813
09/22/2014  13:26:00      119.903      -19.978       34.121       81.313       71.376       67.572     6611.800     5094.574     4566.022        1.610        0.814      121.556       62.942        0.268      347.206       26.006      862.845
09/22/2014  13:27:00       45.463       47.223       29.299       52.443       43.618       36.253     2750.267     1902.565     1314.305        0.556        0.298       65.551       21.292        0.106      347.167       25.941      862.847
09/22/2014  13:28:00       78.869       76.819       31.979       59.190       52.584       60.426     3503.434     2765.070     3651.357        1.153        0.496      110.098       42.291        0.148      347.121       25.861      862.832
09/22/2014  13:29:00       81.853      -53.688       28.103       72.411       43.542       39.579     5243.327     1895.910     1566.510        0.954        0.435       97.889       34.701        0.126      347.248       26.081      862.842
09/22/2014  13:30:00       48.160       15.561       44.838       64.174      116.319       81.069     4118.260    13530.223     6572.210        1.439        1.211       50.611       86.346        2.911      347.350       26.255      862.834
09/22/2014  13:31:00       66.078      115.496      123.499       93.100      109.799       79.821     8667.557    12055.775     6371.364        3.002        1.355      133.062       69.281        0.271      347.565       26.626      862.798
09/22/2014  13:32:00      160.466      141.914      115.144      165.362       86.204       95.071    27344.544     7431.131     9038.448        5.147        2.191      214.217      110.720        0.267      347.320       26.201      862.762
09/22/2014  13:33:00       22.063       42.763       70.448       76.893      103.736       65.740     5912.508    10761.138     4321.723        1.413        1.050       48.119       55.650        1.337      347.605       26.695      862.762
09/22/2014  13:34:00      132.983      137.206      106.348       95.644       79.345       59.409     9147.760     6295.706     3529.441        3.339        0.949      191.076       44.791        0.055      346.946       25.556      862.761
09/22/2014  13:35:00       61.014       55.341       67.659       58.176       61.535       46.933     3384.399     3786.580     2202.745        1.037        0.469       82.373       41.280        0.251      347.317       26.199      862.751
09/22/2014  13:36:00      112.069      112.937       84.308       96.361       52.908       58.740     9285.363     2799.233     3450.398        2.398        0.777      159.104       53.285        0.112      347.317       26.198      862.723
09/22/2014  13:37:00       36.063       32.809       79.401       53.976       82.224       56.078     2913.416     6760.828     3144.768        1.075        0.641       48.754       38.358        0.619      347.468       26.459      862.716
09/22/2014  13:38:00       70.723      -17.228       91.510       91.262      161.644       97.404     8328.804    26128.719     9487.587        2.880        2.197       72.791      118.128        2.634      347.301       26.168      862.721
09/22/2014  13:39:00       61.636        3.229       69.186       70.765      111.669       72.191     5007.749    12469.911     5211.593        1.564        1.134       61.720       81.819        1.757      347.428       26.389      862.717
09/22/2014  13:40:00       68.570      -40.802       27.590       47.536      109.872       51.530     2259.691    12071.854     2655.338        1.205        0.849       79.791       67.652        0.719      347.151       25.911      862.707
09/22/2014  13:41:00       67.708      125.833      119.413       59.017       89.083       48.103     3482.967     7935.864     2313.875        2.420        0.687      142.893       50.670        0.126      347.282       26.137      862.686
09/22/2014  13:42:00      158.510       65.395       25.350       82.519       73.475       55.965     6809.304     5398.555     3132.134        2.269        0.767      171.470       46.891        0.075      347.133       25.879      862.666
09/22/2014  13:43:00      134.125      110.145       66.907       74.845       63.464       56.823     5601.840     4027.733     3228.890        2.373        0.643      173.555       44.395        0.065      347.181       25.961      862.648
09/22/2014  13:44:00       61.307       65.690       75.448       73.341       75.053       45.491     5378.963     5633.025     2069.458        1.342        0.654       89.854       42.398        0.223      347.354       26.261      862.636
09/22/2014  13:45:00       27.120       52.200       92.212       54.555       93.603       61.696     2976.256     8761.468     3806.438        1.375        0.777       58.825       62.445        1.127      347.324       26.210      862.609
09/22/2014  13:46:00      154.888     -184.554      -28.535       91.641       90.479       53.696     8398.068     8186.399     2883.275        3.916        0.973      240.937       50.671        0.044      347.169       25.940      862.579
09/22/2014  13:47:00       96.576       -5.295       58.361      119.095      117.034       71.375    14183.585    13697.066     5094.386        2.286        1.649       96.721       94.844        0.962      347.297       26.162      862.558
09/22/2014  13:48:00      100.801     -143.148      -11.191       82.849      112.889       51.088     6863.956    12743.905     2609.956        2.649        1.111      175.078       58.162        0.110      347.306       26.177      862.517
09/22/2014  13:49:00       85.822     -169.906      -23.638       87.452       92.222       65.630     7647.924     8504.989     4307.351        2.862        1.023      190.351       67.267        0.125      347.161       25.927      862.504
09/22/2014  13:50:00       89.742     -112.770      -13.309      100.917       88.715       67.188    10184.339     7870.400     4514.278        2.175        1.128      144.120       75.515        0.275      347.465       26.453      862.480
09/22/2014  13:51:00       54.469      -42.757       51.484       51.395       78.352       59.846     2641.495     6139.011     3581.543        0.990        0.618       69.246       61.062        0.778      347.470       26.463      862.480
09/22/2014  13:52:00       78.087      -91.839       17.531       56.948       80.925       52.304     3243.051     6548.917     2735.704        1.368        0.626      120.549       41.055        0.116      347.393       26.328      862.470
09/22/2014  13:53:00       71.020       31.464       35.930       55.231       53.517       39.024     3050.486     2864.082     1522.905        0.738        0.372       77.677       30.165        0.151      347.678       26.821      862.463
09/22/2014  13:54:00       26.607      -12.687       32.441       37.102       82.426       42.542     1376.541     6794.117     1809.838        0.595        0.499       29.477       49.574        2.828      347.808       27.046      862.462
09/22/2014  13:55:00       89.605     -123.501      -15.810       79.169       78.275       55.296     6267.809     6126.906     3057.644        1.949        0.773      152.583       55.202        0.131      347.709       26.872      862.453
09/22/2014  13:56:00       48.177     -168.100      -15.635       54.387       64.945       57.444     2957.941     4217.812     3299.866        2.065        0.524      174.867       28.988        0.027      347.489       26.496      862.442
09/22/2014  13:57:00       42.504      -67.450       15.295       53.051       69.119       33.112     2814.410     4777.389     1096.411        0.764        0.434       79.725       27.323        0.117      347.470       26.462      862.435
09/22/2014  13:58:00       29.932      -47.531       17.037       38.266       41.051       25.942     1464.257     1685.200      672.992        0.363        0.191       56.171       26.524        0.223      347.746       26.939      862.413
09/22/2014  13:59:00       16.093      -36.445       25.093       47.411       48.738       41.868     2247.831     2375.395     1752.916        0.430        0.319       39.840       37.615        0.891      347.827       27.078      862.403
09/22/2014  14:00:00       30.267      -21.374       60.589       58.620      118.003       75.411     3436.324    13924.752     5686.775        1.404        1.152       37.053       81.737        4.866      347.816       27.060      862.392
09/22/2014  14:01:00       -1.381      -19.223       50.818       40.639       62.538       40.104     1651.558     3911.008     1608.355        0.506        0.359       19.272       34.090        3.129      347.934       27.263      862.388
09/22/2014  14:02:00       74.016       53.218       25.298       43.590       39.206       31.068     1900.112     1537.123      965.241        0.668        0.220       91.162       13.228        0.021      347.454       26.436      862.381
09/22/2014  14:03:00       72.456       41.346       24.121       45.656       39.997       42.100     2084.498     1599.766     1772.424        0.650        0.273       83.423       29.797        0.128      347.447       26.422      862.366
09/22/2014  14:04:00       69.873       62.239       13.330       40.409       32.404       36.040     1632.926     1050.029     1298.850        0.646        0.199       93.573        6.903        0.005      347.396       26.335      862.354
09/22/2014  14:05:00       44.047      -16.158       32.984       61.663      121.198       50.701     3802.282    14688.989     2570.561        1.217        1.053       46.917       66.273        1.995      347.712       26.879      862.350
09/22/2014  14:06:00      177.575      -25.892       30.532       78.998      135.230       60.412     6240.690    18287.219     3649.616        3.065        1.409      179.452       67.842        0.143      347.396       26.332      862.339
09/22/2014  14:07:00       69.282       63.034       23.384       63.265       63.019       46.800     4002.411     3971.438     2190.198        0.974        0.508       93.666       22.440        0.057      347.539       26.583      862.313
09/22/2014  14:08:00        7.074      -30.998       49.615       50.727       66.711       47.275     2573.217     4450.343     2234.892        0.636        0.463       31.795       35.406        1.240      348.081       27.518      862.308
09/22/2014  14:09:00       28.466     -101.230       -9.937       48.131       59.999       44.659     2316.579     3599.870     1994.433        0.953        0.396      105.156       39.389        0.140      347.736       26.921      862.293
09/22/2014  14:10:00       56.410       -5.023       40.049       56.420       84.452       63.147     3183.259     7132.083     3987.585        0.955        0.715       56.633       66.987        1.399      347.876       27.163      862.275
09/22/2014  14:11:00      159.129     -155.132       12.220      108.611      113.664       69.248    11796.280    12919.483     4795.322        3.952        1.476      222.234       84.004        0.143      347.643       26.760      862.256
09/22/2014  14:12:00      154.969     -186.428       -9.444       91.295      115.295       67.619     8334.763    13293.020     4572.299        4.252        1.310      242.427       67.783        0.078      347.558       26.610      862.229
09/22/2014  14:13:00      179.566     -220.667      -36.427       88.776       96.842       60.589     7881.142     9378.324     3671.007        5.159        1.047      284.495       63.280        0.049      347.246       26.072      862.209
09/22/2014  14:14:00      160.148     -287.377      -29.151      100.712       69.067       49.056    10142.812     4770.223     2406.502        6.320        0.866      328.988       50.133        0.023      347.360       26.270      862.215
09/22/2014  14:15:00      146.134     -116.326       25.179       93.058      151.834       77.224     8659.868    23053.613     5963.604        3.659        1.884      186.780       91.955        0.242      347.692       26.843      862.224
09/22/2014  14:16:00      136.430     -131.977       15.468       98.952      136.722       83.337     9791.411    18692.790     6944.973        3.584        1.771      189.819       90.674        0.228      347.540       26.580      862.216
09/22/2014  14:17:00      109.216      -64.236       23.478       81.512      131.934       94.745     6644.164    17406.533     8976.522        2.481        1.651      126.706      102.881        0.659      347.570       26.634      862.209
09/22/2014  14:18:00      145.562      -98.842       22.822      106.524      152.525       92.332    11347.264    23263.796     8525.278        3.730        2.157      175.948      107.123        0.371      347.576       26.641      862.186
09/22/2014  14:19:00      114.021       53.117      111.440      115.876      128.335       81.977    13427.284    16469.745     6720.293        3.242        1.831      125.787       88.494        0.495      347.523       26.553      862.202
09/22/2014  14:20:00       73.754      -21.894       30.674       68.369       72.504       52.917     4674.266     5256.791     2800.220        0.979        0.637       76.935       53.974        0.492      347.657       26.785      862.205
09/22/2014  14:21:00       40.830       37.354       74.166       53.238       65.309       51.870     2834.257     4265.276     2690.537        0.917        0.490       55.339       46.229        0.698      347.633       26.744      862.182
09/22/2014  14:22:00       68.130       69.980       16.674       33.531       34.135       32.288     1124.304     1165.226     1042.507        0.657        0.167       97.667       20.311        0.043      347.440       26.411      862.160
09/22/2014  14:23:00       41.936       14.391       -6.310       32.745       44.777       32.404     1072.259     2004.990     1049.997        0.307        0.206       44.336       19.753        0.199      347.780       26.997      862.139
09/22/2014  14:24:00      -76.874      -19.515       17.547       92.686       56.704       31.483     8590.709     3215.328      991.198        0.970        0.640       79.312       26.999        0.116      348.023       27.417      862.121
09/22/2014  14:25:00      -56.634      -53.649        1.451       77.292       38.453       34.074     5974.115     1478.603     1161.069        0.735        0.431       78.010       28.988        0.138      347.894       27.194      862.105
09/22/2014  14:26:00       25.270      -69.636       15.602       50.890       63.759       37.848     2589.793     4065.230     1432.472        0.691        0.404       74.079       35.869        0.234      347.960       27.309      862.099
09/22/2014  14:27:00       68.835      -35.860       77.711       99.352      155.323      102.334     9870.822    24125.241    10472.169        2.826        2.223       77.616      112.798        2.112      348.049       27.460      862.045
09/22/2014  14:28:00       53.254     -102.313       21.771       74.146       73.874       54.416     5497.620     5457.408     2961.074        1.384        0.696      115.342       40.863        0.126      347.680       26.824      862.053
09/22/2014  14:29:00      -52.418      -37.729      -30.824       46.209       36.170       27.202     2135.258     1308.284      739.927        0.465        0.209       64.584       18.886        0.086      347.601       26.689      862.009
09/22/2014  14:30:00       76.361        8.653        7.217       41.504       43.397       47.218     1722.557     1883.319     2229.524        0.590        0.292       76.850       33.587        0.191      347.610       26.704      861.988
09/22/2014  14:31:00       39.359       51.470       28.227       54.822       47.080       48.464     3005.416     2216.555     2348.795        0.628        0.379       64.794       31.837        0.241      347.878       27.167      861.981
09/22/2014  14:32:00       46.814      -25.282       -7.084       47.519       68.515       31.510     2258.021     4694.343      992.871        0.541        0.397       53.204       17.493        0.108      347.914       27.230      861.968
09/22/2014  14:33:00       93.009      -40.470       18.958      105.273       95.702       52.351    11082.476     9158.859     2740.588        1.681        1.149      101.433       60.439        0.355      348.099       27.546      861.942
09/22/2014  14:34:00      239.958     -342.996      -32.736      132.853      146.876       79.399    17650.006    21572.678     6304.230       11.090        2.276      418.600       98.647        0.056      347.568       26.627      861.901
09/22/2014  14:35:00       43.228      -13.417       58.543       72.054      111.701       62.144     5191.761    12477.028     3861.828        1.350        1.077       45.262       69.557        2.362      347.956       27.301      861.926
09/22/2014  14:36:00       11.899       34.372       65.277       50.551       68.040       43.533     2555.453     4629.406     1895.097        0.733        0.454       36.373       44.836        1.519      348.085       27.523      861.909
09/22/2014  14:37:00       36.190       71.725       96.635       66.582       84.102       50.349     4433.160     7073.197     2535.058        1.491        0.702       80.338       47.795        0.354      348.232       27.775      861.887
09/22/2014  14:38:00      173.537      169.036      117.601       96.613       78.824       79.748     9334.085     6213.223     6359.730        4.721        1.095      242.257       61.836        0.065      347.689       26.836      861.855
09/22/2014  14:39:00       91.802      137.614      119.772      105.044       69.685       56.163    11034.247     4856.018     3154.275        3.037        0.952      165.425       49.925        0.091      347.683       26.826      861.833
09/22/2014  14:40:00      154.775       80.753       43.267      110.428       79.571       55.257    12194.234     6331.599     3053.331        2.696        1.079      174.574       43.335        0.062      347.818       27.062      861.826
09/22/2014  14:41:00      136.094       64.130       20.294       49.101       44.379       38.605     2410.899     1969.512     1490.375        1.446        0.294      150.447       22.146        0.022      347.684       26.832      861.818
09/22/2014  14:42:00       66.295       43.344       48.671       46.659       42.805       30.737     2177.081     1832.280      944.789        0.680        0.248       79.207       16.330        0.043      347.922       27.242      861.790
09/22/2014  14:43:00       52.477       10.003       56.512       71.744       67.463       52.592     5147.207     4551.211     2765.961        0.925        0.623       53.422       40.480        0.574      348.222       27.760      861.766
09/22/2014  14:44:00       23.917       19.749       51.776       36.963       30.334       19.120     1366.283      920.172      365.560        0.315        0.133       31.017       14.075        0.206      348.231       27.776      861.750
09/22/2014  14:45:00      111.147       62.404       77.768      114.498       90.837       59.097    13109.858     8251.393     3492.443        2.357        1.243      127.467       44.065        0.120      348.087       27.527      861.735
09/22/2014  14:46:00      144.442      144.818      101.284      103.288       91.756       98.018    10668.320     8419.180     9607.523        4.039        1.435      204.538       85.318        0.174      347.852       27.119      861.728
09/22/2014  14:47:00      163.609       82.869       17.499       75.765       69.188       51.875     5740.294     4786.912     2691.021        2.358        0.661      183.400       35.884        0.038      347.889       27.183      861.723
09/22/2014  14:48:00       21.445      -58.200       36.465       47.029       99.271       45.265     2211.730     9854.827     2048.964        0.964        0.706       62.026       47.122        0.577      348.250       27.808      861.715
09/22/2014  14:49:00       99.999      -92.096       15.030       88.212      136.326       68.877     7781.370    18584.861     4744.061        2.490        1.556      135.947       87.401        0.413      347.903       27.206      861.714
09/22/2014  14:50:00       55.259       72.756      128.606       92.636       78.341       69.874     8581.415     6137.350     4882.432        2.224        0.980       91.362       62.829        0.473      347.970       27.323      861.674
09/22/2014  14:51:00      134.423      -53.979       31.433      111.619      125.711       69.323    12458.817    15803.354     4805.715        2.751        1.653      144.857       82.175        0.322      347.850       27.115      861.685
09/22/2014  14:52:00       42.171     -119.803      -21.767       79.785       84.972       38.841     6365.693     7220.293     1508.648        1.585        0.755      127.009       27.654        0.047      347.616       26.713      861.696
09/22/2014  14:53:00      -12.519      -27.862       19.839       46.085       58.135       33.120     2123.866     3379.719     1096.906        0.396        0.330       30.546       36.704        1.444      347.823       27.072      861.683
09/22/2014  14:54:00       16.996      -35.107       23.002       29.788       42.929       31.882      887.340     1842.874     1016.442        0.290        0.187       39.005       26.501        0.462      348.130       27.602      861.659
09/22/2014  14:55:00       30.223       33.066       34.526       31.974       47.100       27.093     1022.357     2218.397      734.045        0.359        0.199       44.797       21.000        0.220      348.251       27.809      861.637
09/22/2014  14:56:00       25.089       10.836       18.735       55.673       66.866       45.717     3099.512     4471.110     2090.029        0.538        0.483       27.329       28.024        1.052      348.193       27.710      861.620
09/22/2014  14:57:00       70.465       32.065       56.171       60.127       88.711       46.619     3615.275     7869.569     2173.290        1.140        0.683       77.418       49.577        0.410      347.898       27.202      861.616
09/22/2014  14:58:00       27.817       30.809       11.343       32.393       39.554       23.926     1049.292     1564.543      572.441        0.252        0.159       41.509       17.054        0.169      348.177       27.683      861.603
09/22/2014  14:59:00       16.171       98.151        4.480       28.381       31.714       31.482      805.454     1005.793      991.115        0.636        0.140       99.474       22.049        0.049      347.855       27.128      861.580
09/22/2014  15:00:00       42.984       47.605        6.645       32.329       38.721       32.473     1045.164     1499.295     1054.486        0.388        0.180       64.139       24.502        0.146      348.020       27.412      861.571
09/22/2014  15:01:00       28.373      -77.384        3.265       36.344       68.904       25.740     1320.896     4747.709      662.551        0.677        0.337       82.421       14.931        0.033      348.104       27.556      861.592
09/22/2014  15:02:00       87.549      -32.331       -1.585       98.274       75.602       49.179     9657.718     5715.630     2418.574        1.325        0.890       93.328       20.462        0.048      347.858       27.131      861.584
09/22/2014  15:03:00       59.381       16.840       29.468       53.470       85.061       44.657     2859.017     7235.364     1994.264        0.838        0.604       61.723       24.332        0.155      347.992       27.364      861.564
09/22/2014  15:04:00       50.647        9.309       33.972       48.882       54.215       51.525     2389.458     2939.248     2654.823        0.589        0.399       51.496       35.565        0.477      348.235       27.784      861.563
09/22/2014  15:05:00       83.847       10.316       39.713       66.876       74.478       44.284     4472.415     5547.005     1961.054        1.035        0.599       84.479       27.306        0.104      348.174       27.677      861.534
09/22/2014  15:06:00       70.242       42.073       68.145       96.641       75.809       63.717     9339.466     5747.040     4059.840        1.524        0.957       81.878       59.451        0.527      348.363       28.002      861.501
09/22/2014  15:07:00      -11.173       24.275       46.625       94.044      128.978       94.857     8844.235    16635.424     8997.756        1.868        1.724       26.723      101.075       14.306      348.308       27.909      861.484
09/22/2014  15:08:00     -132.179     -163.326        7.611      108.113       64.899       48.143    11688.485     4211.844     2317.716        3.121        0.911      210.111       48.783        0.054      348.087       27.524      861.490
09/22/2014  15:09:00      -81.233     -130.809       12.523       82.596       94.479       43.315     6822.127     8926.313     1876.150        2.074        0.881      153.980       52.639        0.117      348.170       27.671      861.491
09/22/2014  15:10:00      -70.977      -74.140        5.675       45.013       46.181       35.935     2026.141     2132.672     1291.331        0.801        0.273      102.638       13.298        0.017      348.164       27.660      861.473
09/22/2014  15:11:00      -39.044      -57.811       -0.113       58.946       38.074       31.580     3474.683     1449.637      997.324        0.539        0.296       69.761       32.109        0.212      348.410       28.085      861.463
09/22/2014  15:12:00      -40.977      -49.034       -4.667       74.069       53.814       44.863     5486.200     2895.960     2012.706        0.725        0.520       63.902       30.655        0.230      348.209       27.739      861.453
09/22/2014  15:13:00       46.240     -113.144       -8.778       95.702       98.790       36.967     9158.965     9759.420     1366.555        1.765        1.014      122.228       33.337        0.074      347.971       27.325      861.440
09/22/2014  15:14:00     -131.886      -40.912      -15.990       62.556       49.223       28.539     3913.279     2422.910      814.466        1.324        0.358      138.086       28.296        0.042      347.921       27.241      861.413
09/22/2014  15:15:00      -52.526      -17.338        8.756       63.844       27.401       24.920     4076.112      750.836      621.030        0.429        0.272       55.314       32.981        0.356      348.665       28.527      861.403
09/22/2014  15:16:00       12.778      -68.052       13.784       41.066       37.362       26.241     1686.445     1395.905      688.589        0.438        0.189       69.241       23.806        0.118      348.327       27.944      861.403
09/22/2014  15:17:00      -50.714     -127.972        3.090       48.352       62.241       36.443     2337.950     3873.896     1328.103        1.325        0.377      137.655       28.280        0.042      348.073       27.503      861.407
09/22/2014  15:18:00       25.560     -117.270       -9.564       67.821       34.558       36.067     4599.716     1194.223     1300.860        1.079        0.355      120.023       27.636        0.053      348.078       27.510      861.407
09/22/2014  15:19:00       46.924      -77.034       23.087       53.292      106.977       49.042     2840.020    11444.142     2405.108        1.268        0.834       90.201       60.778        0.454      348.281       27.862      861.397
09/22/2014  15:20:00      105.475     -164.107      -15.097       68.162       84.249       51.747     4646.049     7097.887     2677.791        2.635        0.721      195.079       58.517        0.090      347.984       27.346      861.383
09/22/2014  15:21:00       67.299     -136.518       17.229       48.717       77.745       38.029     2373.307     6044.300     1446.225        1.666        0.493      152.205       31.178        0.042      348.071       27.499      861.365
09/22/2014  15:22:00       62.178       49.266       82.296       59.087       93.614       59.091     3491.260     8763.543     3491.733        1.440        0.787       79.330       62.290        0.617      348.170       27.669      861.341
09/22/2014  15:23:00      108.528      116.551       77.071       90.286       60.764       57.503     8151.573     3692.256     3306.591        2.322        0.758      159.256       42.030        0.070      348.191       27.705      861.320
09/22/2014  15:24:00       59.209       41.544       53.423       71.298       89.184       56.395     5083.409     7953.773     3180.356        1.215        0.811       72.330       50.844        0.494      348.250       27.810      861.316
09/22/2014  15:25:00       93.156      -71.898       28.686       77.562      100.553       55.087     6015.923    10110.883     3034.603        1.691        0.958      117.675       51.986        0.195      348.174       27.677      861.297
09/22/2014  15:26:00      167.406       95.742       23.004       51.698       44.356       41.984     2672.674     1967.449     1762.675        2.206        0.320      192.850       25.428        0.017      348.053       27.467      861.286
09/22/2014  15:27:00      103.548       65.739       -2.210       62.150       47.658       43.242     3862.618     2271.288     1869.911        1.152        0.400      122.654       24.125        0.039      348.018       27.410      861.269
09/22/2014  15:28:00      100.390       79.230       11.885       50.356       41.953       33.501     2535.750     1760.053     1122.346        1.096        0.271      127.889       14.207        0.012      347.985       27.350      861.272
09/22/2014  15:29:00       60.199        4.216       21.946       72.263       59.168       36.629     5221.955     3500.794     1341.652        0.709        0.503       60.346       28.348        0.221      348.262       27.828      861.260
09/22/2014  15:30:00       49.532      -24.624       33.121       68.482       64.786       50.196     4689.787     4197.177     2519.684        0.778        0.570       55.315       42.454        0.589      348.534       28.299      861.252
09/22/2014  15:31:00       16.083       45.050       61.083       63.953       61.445       37.186     4089.955     3775.484     1382.762        0.763        0.462       47.834       28.798        0.362      348.582       28.382      861.218
09/22/2014  15:32:00       -2.710     -112.444        1.237       60.705       70.604       52.844     3685.105     4984.900     2792.477        1.206        0.573      112.477       35.569        0.100      348.593       28.402      861.212
09/22/2014  15:33:00      104.890     -112.477       14.270       67.185       90.045       45.943     4513.823     8108.119     2110.720        1.929        0.737      153.796       47.757        0.096      348.355       27.988      861.196
09/22/2014  15:34:00       92.017        8.093       67.255       80.085       90.940       53.210     6413.626     8270.107     2831.255        1.528        0.876       92.372       53.355        0.334      348.180       27.687      861.189
09/22/2014  15:35:00       65.195     -161.187        2.423       79.190       96.233       56.668     6271.039     9260.867     3211.313        2.449        0.937      173.872       50.869        0.086      348.179       27.685      861.215
09/22/2014  15:36:00       15.150      -84.051       25.206       58.319       77.756       44.545     3401.069     6045.950     1984.292        0.968        0.572       85.405       49.883        0.341      348.301       27.898      861.197
09/22/2014  15:37:00       80.661     -143.356       -5.861       59.155       61.699       47.886     3499.279     3806.716     2293.046        1.834        0.480      164.491       39.186        0.057      348.107       27.560      861.180
09/22/2014  15:38:00       33.189     -119.153        0.573       60.722       83.174       60.309     3687.215     6917.932     3637.180        1.477        0.712      123.689       49.830        0.162      348.140       27.617      861.164
09/22/2014  15:39:00       31.005      -39.976       19.646       42.165       62.640       45.772     1777.912     3923.776     2095.065        0.537        0.390       50.590       43.441        0.737      348.296       27.888      861.150
09/22/2014  15:40:00        2.140      -24.745       16.223       31.303       52.779       29.873      979.851     2785.625      892.406        0.277        0.233       24.837       30.625        1.520      348.406       28.079      861.133
09/22/2014  15:41:00       11.124      -43.591       -3.483       28.963       38.370       34.027      838.842     1472.283     1157.839        0.275        0.173       44.988       25.584        0.323      348.547       28.322      861.121
09/22/2014  15:42:00       34.811      -43.935       31.253       45.119       87.167       32.820     2035.721     7598.113     1077.170        0.741        0.536       56.054       42.757        0.582      348.390       28.052      861.097
09/22/2014  15:43:00      135.282     -135.125        1.184       96.737      101.664       48.265     9358.114    10335.614     2329.514        2.929        1.101      191.207       60.338        0.100      348.206       27.730      861.085
09/22/2014  15:44:00       63.158      -21.919       62.129       67.352       86.102       51.359     4536.307     7413.598     2637.768        1.146        0.729       66.853       49.068        0.539      348.327       27.943      861.084
09/22/2014  15:45:00       57.661        5.909       28.040       53.208       46.608       37.935     2831.055     2172.271     1439.042        0.529        0.322       57.963       20.616        0.127      348.275       27.852      861.078
09/22/2014  15:46:00       31.722       45.959       46.610       32.398       41.172       26.127     1049.611     1695.170      682.605        0.436        0.171       55.844       24.633        0.195      348.349       27.981      861.066
09/22/2014  15:47:00       39.541       61.342       47.469       33.921       19.435       29.592     1150.654      377.730      875.696        0.499        0.120       72.982       21.483        0.087      347.949       27.289      861.057
09/22/2014  15:48:00       45.337       40.599       50.570       49.753       34.505       29.874     2475.323     1190.575      892.469        0.541        0.228       60.858       22.223        0.133      348.347       27.976      861.051
09/22/2014  15:49:00       56.345       34.628       80.675       90.618      108.238       66.812     8211.596    11715.505     4463.789        1.763        1.220       66.135       77.074        1.358      348.263       27.830      861.037
09/22/2014  15:50:00       86.078     -140.417       -0.539       63.545      109.035       63.463     4038.021    11888.530     4027.567        2.354        0.998      164.701       67.022        0.166      348.183       27.690      861.034
09/22/2014  15:51:00       49.959        6.034       25.260       58.781       40.464       42.215     3455.246     1637.307     1782.132        0.502        0.344       50.322       39.247        0.608      348.066       27.491      861.039
09/22/2014  15:52:00      -36.321       28.611      -23.391       52.128       25.375       30.881     2717.319      643.896      953.612        0.350        0.216       46.236       23.230        0.252      348.070       27.498      861.019
09/22/2014  15:53:00       47.471       39.830       24.815       31.733       45.298       26.521     1006.999     2051.885      703.341        0.411        0.188       61.967       13.962        0.051      348.110       27.567      861.015
09/22/2014  15:54:00       47.108      -41.882       11.624       39.031       47.849       28.887     1523.416     2289.536      834.443        0.438        0.232       63.034       21.131        0.112      348.180       27.688      861.028
09/22/2014  15:55:00       39.614      -42.392        7.096       48.098       82.407       31.000     2313.462     6790.833      961.015        0.674        0.503       58.020       21.713        0.140      348.407       28.080      861.018
09/22/2014  15:56:00      -46.132       55.828       -6.661       62.508       50.154       30.831     3907.270     2515.407      950.570        0.633        0.369       72.422       15.888        0.048      348.659       28.517      861.021
09/22/2014  15:57:00      -33.411      -36.309        7.376       69.280       49.448       31.077     4799.652     2445.129      965.752        0.535        0.411       49.342       30.071        0.371      348.545       28.319      861.021
09/22/2014  15:58:00       13.099       -3.615       16.023       25.441       30.337       22.632      647.249      920.348      512.211        0.126        0.104       13.588       16.757        1.521      348.654       28.508      861.016
09/22/2014  15:59:00       62.243       13.526       36.493       62.427       67.330       47.683     3897.145     4533.357     2273.644        0.804        0.535       63.696       52.284        0.674      348.479       28.205      861.018
09/22/2014  16:00:00       38.809      -16.671       63.231       60.257       89.796       47.882     3630.899     8063.387     2292.695        0.988        0.699       42.238       55.208        1.708      348.612       28.434      861.005
09/22/2014  16:01:00       94.015     -125.710       -2.123       92.994      114.722       42.429     8647.875    13161.237     1800.253        2.412        1.180      156.977       49.203        0.098      348.325       27.937      861.019
09/22/2014  16:02:00      164.120     -201.504      -29.522      100.219      119.967       61.052    10043.790    14392.002     3727.407        4.828        1.408      259.883       49.076        0.036      348.156       27.643      861.002
09/22/2014  16:03:00       90.659      -88.008        5.147       80.221       81.833       65.901     6435.421     6696.566     4343.007        1.673        0.874      126.351       64.590        0.261      348.334       27.952      861.001
09/22/2014  16:04:00      113.279      -70.633       26.974       86.532      105.438       55.166     7487.734    11117.076     3043.310        2.009        1.082      133.496       67.446        0.255      348.323       27.932      860.991
09/22/2014  16:05:00       34.116     -104.495       10.812       66.411       68.181       36.952     4410.459     4648.643     1365.446        1.131        0.521      109.923       23.966        0.048      348.443       28.144      860.979
09/22/2014  16:06:00       23.467        6.680       33.389       36.515       44.455       26.946     1333.311     1976.208      726.074        0.287        0.202       24.399        5.871        0.058      348.535       28.302      860.976
09/22/2014  16:07:00       64.111     -160.205      -13.342       95.166       90.792       38.442     9056.592     8243.166     1477.802        2.436        0.939      172.557       46.224        0.072      348.458       28.168      860.978
09/22/2014  16:08:00      161.843     -185.113      -32.423       44.154       53.544       32.617     1949.593     2866.979     1063.887        3.369        0.294      245.886       27.804        0.013      348.093       27.533      860.972
09/22/2014  16:09:00       75.447      -78.753       14.768       52.074       55.350       36.461     2711.677     3063.669     1329.393        0.961        0.355      109.061       37.363        0.117      348.265       27.835      860.978
09/22/2014  16:10:00     -138.607      -83.098        2.387       98.309       73.293       39.726     9664.570     5371.874     1578.122        2.137        0.831      161.608       46.188        0.082      348.349       27.978      860.975
09/22/2014  16:11:00     -181.923       -9.884      -15.163       59.914       69.143       37.336     3589.669     4780.792     1394.013        2.159        0.488      182.192       33.250        0.033      348.211       27.739      860.968
09/22/2014  16:12:00      -81.113      -25.289        2.061       50.200       29.159       25.252     2520.073      850.268      637.661        0.561        0.200       84.964       28.091        0.109      348.451       28.158      860.962
09/22/2014  16:13:00      -73.592      -64.164        8.644       58.557       47.825       34.172     3428.874     2287.185     1167.729        0.824        0.344       97.636       31.354        0.103      348.390       28.051      860.955
09/22/2014  16:14:00     -110.658      -35.130        7.794       67.162       45.278       25.593     4510.711     2050.078      655.009        1.038        0.361      116.101       24.880        0.046      348.370       28.016      860.952
09/22/2014  16:15:00     -109.604     -109.390      -11.450       58.311       50.388       23.618     3400.186     2538.928      557.809        1.530        0.325      154.853       15.873        0.011      348.195       27.713      860.962
09/22/2014  16:16:00     -134.731      -47.219      -12.892       33.388       43.248       21.660     1114.727     1870.391      469.149        1.200        0.173      142.766       12.239        0.007      348.181       27.689      860.957
09/22/2014  16:17:00      -85.644      -39.804       -2.968       51.721       29.703       19.834     2675.075      882.258      393.368        0.644        0.198       94.441       15.350        0.026      348.229       27.773      860.958
09/22/2014  16:18:00      -65.916      -63.084        4.020       54.893       50.522       28.062     3013.275     2552.495      787.488        0.735        0.318       91.239       26.978        0.087      348.263       27.832      860.964
09/22/2014  16:19:00      -52.331      -69.477      -13.600       39.702       57.482       25.619     1576.238     3304.145      656.322        0.664        0.277       86.980       27.671        0.101      348.165       27.661      860.970
09/22/2014  16:20:00      -45.454      -11.168        2.352       34.704       42.630       24.659     1204.360     1817.278      608.045        0.291        0.181       46.806       21.932        0.220      348.431       28.122      860.965
09/22/2014  16:21:00     -115.610      -93.039      -13.816       33.264       31.371       15.813     1106.473      984.159      250.054        1.228        0.117      148.398       12.492        0.007      348.080       27.514      860.966
09/22/2014  16:22:00      -86.846      -79.388        0.007       49.020       44.576       27.169     2402.958     1987.002      738.165        0.949        0.256      117.664       28.482        0.059      348.193       27.710      860.962
09/22/2014  16:23:00      -45.943     -109.665       -9.498       26.515       32.267       17.307      703.040     1041.170      299.547        0.814        0.102      118.900        5.524        0.002      348.036       27.440      860.964
09/22/2014  16:24:00       -2.368      -33.592       -4.476       18.243       45.273       20.652      332.814     2049.603      426.525        0.198        0.140       33.675       27.942        0.689      348.115       27.575      860.953
09/22/2014  16:25:00       49.603       11.669       -3.485       30.551       31.917       27.078      933.352     1018.689      733.236        0.265        0.134       50.957       21.602        0.180      348.003       27.382      860.948
09/22/2014  16:26:00       48.952       37.993       21.941       31.007       23.494       27.405      961.447      551.962      751.037        0.329        0.113       61.965       19.578        0.100      348.056       27.475      860.930
09/22/2014  16:27:00        6.071      -11.610       36.413       24.732       23.748       16.879      611.668      563.980      284.904        0.148        0.073       13.102       11.704        0.798      348.300       27.896      860.925
09/22/2014  16:28:00       69.395       -5.857       32.057       43.298       24.992       32.516     1874.741      624.622     1057.310        0.472        0.178       69.642       30.239        0.189      348.199       27.720      860.916
09/22/2014  16:29:00        5.186       13.962       18.696       19.185       19.275       17.592      368.047      371.527      309.477        0.081        0.052       14.894       12.563        0.712      348.394       28.059      860.904
09/22/2014  16:30:00       -2.874      -16.105       11.501       15.394       36.533       25.436      236.983     1334.677      646.968        0.131        0.111       16.359       12.240        0.560      348.428       28.118      860.902
09/22/2014  16:31:00       13.360      -31.053       -3.154       19.495       26.938       18.463      380.044      725.669      340.895        0.130        0.072       33.805       14.377        0.181      348.383       28.038      860.902
09/22/2014  16:32:00      -85.869      -35.193       -1.840       60.779       46.237       21.805     3694.091     2137.857      475.458        0.746        0.315       92.801       21.439        0.053      348.417       28.098      860.898
09/22/2014  16:33:00      -65.138     -115.639      -12.881       36.822       44.305       24.855     1355.841     1962.929      617.780        1.086        0.197      132.722       25.522        0.037      348.205       27.732      860.891
09/22/2014  16:34:00     -105.503      -59.108      -10.939       48.795       46.236       28.714     2380.987     2137.806      824.503        1.004        0.267      120.932       24.538        0.041      348.348       27.979      860.882
09/22/2014  16:35:00      -78.632      -22.170       -1.187       42.649       40.827       26.229     1818.971     1666.809      687.951        0.542        0.209       81.697       24.788        0.092      348.502       28.245      860.883
09/22/2014  16:36:00      -56.687      -64.062        2.817       55.518       45.308       26.116     3082.216     2052.771      682.054        0.657        0.291       85.541       25.589        0.089      348.426       28.113      860.877
09/22/2014  16:37:00      -38.523      -68.542       10.516       52.144       66.027       28.441     2719.040     4359.529      808.887        0.709        0.394       78.626       25.878        0.108      348.462       28.175      860.873
09/22/2014  16:38:00      -74.791      -79.745        2.839       73.551       73.708       43.691     5409.718     5432.929     1908.919        1.235        0.638      109.330       56.796        0.270      348.348       27.979      860.859
09/22/2014  16:39:00     -115.615     -102.240       -3.072       58.677       41.472       27.456     3442.967     1719.941      753.823        1.487        0.296      154.337       27.629        0.032      348.262       27.828      860.859
09/22/2014  16:40:00      -42.973      -29.722        2.919       41.055       24.104       14.009     1685.502      580.985      196.252        0.260        0.123       52.250       12.674        0.059      348.394       28.058      860.858
09/22/2014  16:41:00      -99.324      -19.201        2.316       76.895       51.605       39.097     5912.868     2663.057     1528.547        1.017        0.505      101.163       33.210        0.108      348.489       28.224      860.855
09/22/2014  16:42:00     -152.024      -26.550       -4.142       71.446       39.118       29.404     5104.595     1530.240      864.624        1.567        0.375      154.325       35.589        0.053      348.353       27.986      860.853
09/22/2014  16:43:00     -123.783      -16.416        1.260       66.971       58.398       30.613     4485.177     3410.298      937.176        1.221        0.442      124.867       24.020        0.037      348.539       28.309      860.851
09/22/2014  16:44:00     -187.487      -51.724       -9.043       45.418       53.501       30.560     2062.808     2862.366      933.932        2.188        0.293      194.491       28.055        0.021      348.183       27.690      860.856
09/22/2014  16:45:00     -166.693      -41.569      -17.173       27.137       26.752       21.850      736.408      715.689      477.408        1.587        0.096      171.798       12.603        0.005      348.244       27.799      860.855
09/22/2014  16:46:00     -136.463      -14.953      -24.530       33.408       26.157       21.708     1116.096      684.204      471.234        1.086        0.114      137.280        9.802        0.005      348.325       27.939      860.864
09/22/2014  16:47:00      -48.990        2.890      -19.351       25.920       16.689       10.356      671.867      278.515      107.245        0.192        0.053       49.075       13.977        0.081      348.182       27.691      860.864
09/22/2014  16:48:00       -9.190        6.279       15.279       20.972       16.918       15.357      439.807      286.211      235.822        0.066        0.048       11.130       10.009        0.809      348.611       28.434      860.856
09/22/2014  16:49:00       12.790       31.783        1.534       20.450       31.532       21.197      418.207      994.273      449.329        0.152        0.093       34.260       15.621        0.208      348.279       27.860      860.854
09/22/2014  16:50:00      -24.334       80.787      -12.627       15.430       19.346        8.545      238.090      374.261       73.017        0.398        0.034       84.372        5.686        0.005      348.181       27.690      860.843
09/22/2014  16:51:00      -26.963       57.626      -14.089       14.994       19.664       10.755      224.815      386.692      115.671        0.249        0.036       63.622        7.444        0.014      348.163       27.659      860.839
09/22/2014  16:52:00     -114.567        2.994      -17.124       56.986       38.047       22.581     3247.451     1447.541      509.881        0.932        0.260      114.606       28.791        0.063      348.310       27.911      860.829
09/22/2014  16:53:00     -142.073      -43.847       -6.272       54.943       41.740       27.935     3018.770     1742.249      780.354        1.384        0.277      148.686       31.837        0.046      348.404       28.076      860.821
09/22/2014  16:54:00     -123.075      -14.448       -3.986       33.923       42.905       27.389     1150.744     1840.847      750.138        0.956        0.187      123.920       15.007        0.015      348.330       27.947      860.822
09/22/2014  16:55:00      -90.465      -65.717       -1.113       62.456       54.444       35.359     3900.730     2964.181     1250.284        1.031        0.406      111.815       30.798        0.076      348.532       28.297      860.811
09/22/2014  16:56:00     -117.598      -44.507      -11.662       44.570       31.299       21.285     1986.469      979.648      453.031        0.968        0.171      125.738       12.750        0.010      348.276       27.855      860.801
09/22/2014  16:57:00      -97.243       -5.127      -16.544       20.020       20.220       15.242      400.813      408.863      232.319        0.540        0.052       97.378        7.237        0.006      348.268       27.843      860.800
09/22/2014  16:58:00      -42.018      -19.372       -5.902       33.181       23.941       16.747     1100.981      573.193      280.463        0.206        0.098       46.269       13.372        0.084      348.437       28.133      860.797
09/22/2014  16:59:00      -65.811      -24.813        0.806       48.277       35.580       20.261     2330.701     1265.936      410.494        0.448        0.200       70.333       27.074        0.148      348.564       28.352      860.810
09/22/2014  17:00:00      -87.187      -63.236       -3.499       41.374       50.143       30.256     1711.772     2514.346      915.398        0.838        0.257      107.705       16.661        0.024      348.582       28.382      860.815
09/22/2014  17:01:00      -65.876      -46.937       -7.834       73.118       50.438       38.292     5346.308     2544.008     1466.263        0.798        0.468       80.887       30.106        0.139      348.524       28.283      860.814
09/22/2014  17:02:00     -110.148     -104.400       -2.427       67.057       70.618       41.424     4496.612     4986.967     1715.932        1.712        0.560      151.763       39.368        0.067      348.465       28.180      860.823
09/22/2014  17:03:00     -124.266      -76.983       -0.373       84.545       55.385       37.424     7147.927     3067.512     1400.582        1.649        0.581      146.180       33.625        0.053      348.478       28.200      860.818
09/22/2014  17:04:00      -60.641     -125.779       13.379       67.561       77.009       40.031     4564.493     5930.326     1602.508        1.588        0.605      139.634       41.877        0.090      348.447       28.148      860.821
09/22/2014  17:05:00      -97.217      -49.794       14.250       73.350       63.667       41.162     5380.264     4053.475     1694.306        1.163        0.556      109.227       44.530        0.166      348.544       28.317      860.822
09/22/2014  17:06:00      -85.810      -82.899        0.322       42.951       52.252       30.963     1844.820     2730.323      958.700        0.988        0.277      119.314       23.292        0.038      348.470       28.189      860.836
09/22/2014  17:07:00      -71.958     -106.975       -6.813       37.777       54.476       29.469     1427.112     2967.599      868.407        1.096        0.263      128.925       21.983        0.029      348.358       27.996      860.838
09/22/2014  17:08:00      -27.006      -47.694       -2.526       36.331       31.676       18.575     1319.948     1003.380      345.025        0.284        0.133       54.809       14.530        0.070      348.509       28.257      860.839
09/22/2014  17:09:00      -80.580      -43.581        7.475       37.252       40.884       25.432     1387.680     1671.485      646.769        0.608        0.185       91.610       22.252        0.059      348.603       28.420      860.840
09/22/2014  17:10:00      -56.258       -8.263        6.275       46.206       47.115       22.107     2135.024     2219.835      488.701        0.406        0.242       56.862       23.982        0.178      348.377       28.028      860.845
09/22/2014  17:11:00      -32.555     -107.219        3.148       44.165       28.488       24.478     1950.542      811.582      599.183        0.796        0.168      112.052       19.934        0.032      348.407       28.079      860.851
09/22/2014  17:12:00      -22.918      -33.993        8.898       35.902       44.748       19.739     1288.960     2002.421      389.610        0.272        0.184       40.997       20.911        0.260      348.478       28.204      860.854
09/22/2014  17:13:00      -34.450      -38.103       -4.263       49.117       28.940       19.288     2412.448      837.539      372.034        0.314        0.181       51.368       14.007        0.074      348.537       28.304      860.868
09/22/2014  17:14:00      -10.555      -19.617        9.014       26.796       36.418       19.916      718.040     1326.301      396.665        0.151        0.122       22.276       16.716        0.563      348.557       28.339      860.873
09/22/2014  17:15:00       31.791      -42.772       22.554       48.442       50.254       39.357     2346.642     2525.464     1548.951        0.488        0.321       53.293       38.410        0.519      348.361       28.002      860.881
09/22/2014  17:16:00       33.656      -22.768       31.627       48.006       63.421       30.484     2304.539     4022.165      929.279        0.495        0.363       40.634       31.851        0.614      348.337       27.962      860.886
09/22/2014  17:17:00       28.745      -26.267        8.058       36.533       41.356       28.728     1334.632     1710.281      825.290        0.273        0.194       38.939       29.572        0.577      348.219       27.756      860.892
09/22/2014  17:18:00       32.561      -38.099       12.820       33.292       37.632       25.095     1108.328     1416.135      629.779        0.291        0.158       50.117       26.430        0.278      348.363       28.005      860.901
09/22/2014  17:19:00       11.686      -23.265       11.423       47.810       42.664       21.771     2285.769     1820.221      473.968        0.269        0.229       26.035       19.349        0.552      348.397       28.063      860.916
09/22/2014  17:20:00      -42.600        3.181        5.196       40.321       31.922       23.033     1625.803     1018.992      530.502        0.251        0.159       42.718       15.159        0.126      348.508       28.255      860.918
09/22/2014  17:21:00      -17.150       -6.115       10.299       26.241       40.533       23.662      688.597     1642.922      559.904        0.166        0.145       18.208       19.714        1.172      348.559       28.343      860.939
09/22/2014  17:22:00      -33.475     -106.697       -0.828       35.455       32.551       25.800     1257.083     1059.580      665.661        0.774        0.149      111.824       17.315        0.024      348.373       28.021      860.952
09/22/2014  17:23:00      -44.428      -58.707        4.448       50.581       47.008       22.460     2558.420     2209.769      504.434        0.536        0.264       73.623       14.843        0.041      348.406       28.079      860.963
09/22/2014  17:24:00      -86.594      -21.400       -1.169       57.016       43.209       19.684     3250.866     1866.986      387.447        0.673        0.275       89.199       22.214        0.062      348.613       28.437      860.976
09/22/2014  17:25:00     -151.531      -46.486        1.221       66.075       58.902       36.446     4365.870     3469.478     1328.322        1.714        0.458      158.501       30.193        0.036      348.509       28.256      860.991
09/22/2014  17:26:00     -178.181      -20.978        1.220       94.446       62.899       39.248     8920.131     3956.256     1540.391        2.330        0.721      179.412       43.792        0.060      348.532       28.295      860.998
09/22/2014  17:27:00     -115.291      -87.102       12.773       85.113       66.768       38.628     7244.202     4457.991     1492.136        1.712        0.660      144.495       40.435        0.078      348.502       28.244      860.978
09/22/2014  17:28:00     -126.307     -148.934       17.238      100.772      129.252       48.899    10154.922    16706.005     2391.116        3.384        1.463      195.281       46.084        0.056      348.476       28.196      860.974
09/22/2014  17:29:00     -297.524     -103.785       -8.735      128.477      107.413       62.542    16506.280    11537.511     3911.519        6.566        1.598      315.106       62.375        0.039      348.376       28.025      860.963
09/22/2014  17:30:00     -251.061      -70.671       -5.583      118.171       97.403       52.827    13964.435     9487.421     2790.667        4.715        1.312      260.818       51.904        0.040      348.330       27.944      860.958
09/22/2014  17:31:00     -238.751      -60.054        3.082      104.012       90.114       56.924    10818.468     8120.477     3240.343        4.140        1.109      246.188       57.655        0.055      348.342       27.963      860.965
09/22/2014  17:32:00     -320.259     -146.464        3.557      215.502      168.727       76.812    46441.190    28468.699     5900.047       10.241        4.040      352.162       86.927        0.061      348.222       27.758      860.942
09/22/2014  17:33:00     -361.725      -60.579      -21.747      134.376      131.500       73.458    18056.882    17292.350     5396.113        8.786        2.037      366.763       69.401        0.036      348.122       27.584      860.942
09/22/2014  17:34:00     -281.118     -107.064       -1.123      156.466      102.005       73.907    24481.575    10404.938     5462.286        6.541        2.017      300.815       84.654        0.079      348.105       27.555      860.930
09/22/2014  17:35:00     -208.141     -157.257        2.583      174.881      111.972       82.004    30583.240    12537.837     6724.608        5.894        2.492      260.868       94.779        0.132      348.074       27.502      860.928
09/22/2014  17:36:00     -243.336     -116.106        1.245      134.381      131.924       60.401    18058.286    17403.850     3648.238        5.590        1.956      269.617       52.087        0.037      348.089       27.528      860.937
09/22/2014  17:37:00     -262.376     -130.924       11.632      192.422      150.943       94.686    37026.188    22783.810     8965.523        7.744        3.439      293.228      106.232        0.131      347.973       27.326      860.941
09/22/2014  17:38:00     -449.190     -298.969      -27.976      200.246      156.126      102.485    40098.510    24375.211    10503.082       18.344        3.749      539.587      106.595        0.039      347.890       27.183      860.913
09/22/2014  17:39:00     -231.242     -127.456       -1.906      170.612      131.837       68.303    29108.592    17380.893     4665.235        6.043        2.558      264.042       77.779        0.087      347.959       27.301      860.943
09/22/2014  17:40:00     -261.480      -84.676       -7.957      102.457       76.353       55.385    10497.420     5829.811     3067.491        4.750        0.970      274.849       39.955        0.021      347.999       27.371      860.963
09/22/2014  17:41:00     -158.769     -110.831       12.261      117.826      106.277       69.692    13883.060    11294.779     4857.021        3.383        1.502      193.627       67.290        0.121      347.985       27.348      860.975
09/22/2014  17:42:00     -196.008       -7.221       -7.521      158.952      168.360       68.785    25265.849    28345.235     4731.441        4.843        2.917      196.141       57.068        0.085      347.968       27.319      860.985
09/22/2014  17:43:00     -356.920      -18.333      -16.689      232.419      162.025       92.170    54018.466    26252.244     8495.236       10.837        4.438      357.390      104.355        0.085      347.869       27.147      860.997
09/22/2014  17:44:00     -387.397     -106.649      -13.461      224.012      152.647       83.779    50181.408    23301.028     7018.856       12.105        4.025      401.809       89.156        0.049      347.815       27.055      860.990
09/22/2014  17:45:00     -341.324      -77.668      -20.222      201.686      164.443       77.400    40677.338    27041.538     5990.754        9.831        3.685      350.049       84.214        0.058      347.772       26.979      860.998
09/22/2014  17:46:00     -231.159      -88.973       15.719      197.337      125.299       76.971    38942.084    15699.886     5924.550        6.107        3.028      247.691       98.159        0.157      347.771       26.978      861.010
09/22/2014  17:47:00     -314.914     -101.259      -11.897      159.487      116.446       67.763    25435.951    13559.753     4591.868        7.657        2.179      330.793       79.072        0.057      347.760       26.960      861.027
09/22/2014  17:48:00     -192.144      -83.456       -4.770      208.532      123.794       64.631    43485.738    15324.867     4177.132        5.344        3.149      209.486       63.269        0.091      347.750       26.943      861.010
09/22/2014  17:49:00     -276.238      -55.158      -13.375      145.689      133.976       71.573    21225.193    17949.630     5122.655        6.191        2.215      281.691       67.643        0.058      347.754       26.947      861.028
09/22/2014  17:50:00     -143.112     -126.125      -18.376      134.876      131.996       69.039    18191.535    17422.892     4766.364        3.855        2.019      190.758       58.601        0.094      347.699       26.856      861.029
09/22/2014  17:51:00     -251.103     -125.436       -5.172      182.773      122.155       81.900    33406.024    14921.904     6707.679        6.692        2.752      280.691       87.598        0.097      347.652       26.773      861.054
09/22/2014  17:52:00     -477.659     -217.286       -4.415      313.144      161.336      109.392    98059.101    26029.299    11966.585       20.570        6.803      524.758      138.936        0.070      347.581       26.652      861.047
09/22/2014  17:53:00     -474.416     -188.438       -8.355      262.082      192.038      109.356    68686.742    36878.557    11958.670       18.907        5.876      510.470      121.685        0.057      347.539       26.577      861.064
09/22/2014  17:54:00     -467.622     -155.487      -16.401      226.933      164.160      100.253    51498.681    26948.414    10050.732       16.579        4.425      492.795       97.429        0.039      347.508       26.524      861.077
09/22/2014  17:55:00     -375.599     -201.520      -28.309      244.874      175.219       95.503    59963.387    30701.855     9120.782       14.112        4.989      426.245       88.592        0.043      347.516       26.537      861.081
09/22/2014  17:56:00     -434.177     -138.290      -16.792      190.985      191.713       89.239    36475.302    36753.881     7963.642       14.454        4.060      455.668       96.878        0.045      347.494       26.499      861.068
09/22/2014  17:57:00     -424.635     -137.104      -18.442      184.384      157.853       83.650    33997.279    24917.499     6997.397       13.267        3.296      446.220       69.733        0.024      347.489       26.493      861.091
09/22/2014  17:58:00     -407.525     -216.441      -13.792      206.666      182.538       87.420    42711.010    33320.166     7642.293       14.838        4.184      461.436      102.978        0.050      347.459       26.437      861.080
09/22/2014  17:59:00     -296.904     -156.512       -1.888      268.986      174.382       86.558    72353.455    30409.002     7492.211       11.143        5.513      335.631       92.390        0.076      347.473       26.463      861.057
09/22/2014  18:00:00     -390.853     -165.925       -7.315      206.104      165.684       73.077    42478.920    27451.195     5340.220       12.780        3.764      424.614       84.543        0.040      347.447       26.420      861.095
09/22/2014  18:01:00     -391.119     -123.646      -15.977      233.401      149.296       91.396    54475.887    22289.357     8353.237       12.680        4.256      410.198      111.130        0.073      347.420       26.372      861.090
09/22/2014  18:02:00     -519.102     -239.838      -34.134      231.927      222.430       99.995    53790.197    49475.280     9999.099       22.069        5.663      571.830      110.350        0.037      347.377       26.298      861.101
09/22/2014  18:03:00     -340.066      -85.511      -18.992      262.068      159.175      100.203    68679.476    25336.819    10040.584       11.367        5.203      350.652      111.995        0.102      347.385       26.311      861.102
09/22/2014  18:04:00     -454.586     -123.285        2.853      189.651      178.464       92.904    35967.678    31849.472     8631.099       14.914        3.822      471.007       84.225        0.032      347.354       26.259      861.128
09/22/2014  18:05:00     -364.805      -73.480        5.403      208.816      181.321       91.963    43603.989    32877.196     8457.196       11.171        4.247      372.132      107.038        0.083      347.334       26.224      861.117
09/22/2014  18:06:00     -370.925     -213.532      -20.704      221.485      150.110       87.082    49055.633    22533.068     7583.289       13.138        3.959      427.997       85.118        0.040      347.319       26.199      861.127
09/22/2014  18:07:00     -350.010      -94.607      -11.619      219.155      151.451       90.857    48029.082    22937.516     8254.958       10.539        3.961      362.571      106.831        0.087      347.298       26.162      861.150
09/22/2014  18:08:00     -437.925     -141.719       -9.738      245.189      144.551       94.382    60117.539    20895.014     8908.054       15.092        4.496      460.286      105.543        0.053      347.277       26.125      861.144
09/22/2014  18:09:00     -346.154     -179.325      -24.280      255.896      206.519       82.334    65482.877    42649.908     6778.867       13.372        5.746      389.846       96.399        0.061      347.257       26.091      861.141
09/22/2014  18:10:00     -169.228      -52.472       -3.811      206.109      139.350       83.780    42480.890    19418.430     7019.067        5.015        3.446      177.176       96.240        0.295      347.255       26.089      861.118
09/22/2014  18:11:00     -522.928     -166.527      -27.273      218.433      178.316       88.966    47713.121    31796.718     7914.934       19.466        4.371      548.803       92.206        0.028      347.231       26.046      861.128
09/22/2014  18:12:00     -289.821      -82.995       -9.599      201.658      132.171       72.537    40666.043    17469.271     5261.561        7.718        3.170      301.470       82.858        0.076      347.216       26.021      861.136
09/22/2014  18:13:00     -452.077      -80.082      -27.636      190.346      191.641       97.971    36231.465    36726.188     9598.334       14.704        4.128      459.115       92.195        0.040      347.202       25.999      861.122
09/22/2014  18:14:00     -504.562      -30.177      -45.745      223.315      172.872       85.170    49869.506    29884.637     7253.988       17.228        4.350      505.463      103.098        0.042      347.195       25.985      861.136
09/22/2014  18:15:00     -294.598      -52.929       -1.699      186.403      147.867       78.218    34746.202    21864.583     6118.094        7.615        3.136      299.314       82.327        0.076      347.187       25.971      861.145
09/22/2014  18:16:00     -155.105      -18.360       10.762      137.405      103.668       67.967    18880.016    10747.103     4619.524        2.937        1.712      156.188       71.804        0.211      347.196       25.987      861.163
09/22/2014  18:17:00     -261.813      -36.027      -17.200      115.034       85.745       61.268    13232.785     7352.269     3753.805        4.724        1.217      264.280       56.085        0.045      347.183       25.964      861.157
09/22/2014  18:18:00     -496.095      -34.237      -33.104      217.938      181.524       87.664    47496.963    32950.820     7685.057       16.824        4.407      497.275       88.608        0.032      347.148       25.904      861.160
09/22/2014  18:19:00     -346.525      -32.836       -4.365      177.298      125.258       75.868    31434.739    15689.649     5755.881        8.702        2.644      348.077       89.815        0.067      347.132       25.875      861.173
09/22/2014  18:20:00     -402.695     -200.414      -36.593      200.580      201.210       92.873    40232.514    40485.283     8625.319       14.649        4.467      449.810       76.755        0.029      347.140       25.890      861.180
09/22/2014  18:21:00     -357.372     -175.797        4.935      176.429      144.701       80.572    31127.071    20938.311     6491.921       10.859        2.928      398.270       83.644        0.044      347.123       25.860      861.181
09/22/2014  18:22:00     -559.995      -79.737      -20.817      199.240      184.673       94.813    39696.627    34104.061     8989.565       20.157        4.140      565.644       98.577        0.030      347.101       25.823      861.164
09/22/2014  18:23:00     -331.639      -35.876        2.134      188.627      151.204       92.167    35580.316    22862.744     8494.808        8.910        3.347      333.574       93.052        0.078      347.079       25.786      861.199
09/22/2014  18:24:00     -420.187      -85.311      -13.449      226.643      177.463       84.389    51366.894    31492.940     7121.494       13.698        4.499      428.760      102.127        0.057      347.067       25.764      861.172
09/22/2014  18:25:00     -176.025      -25.912       16.848      121.605      109.981       74.286    14787.781    12095.852     5518.389        3.217        1.620      177.922       65.581        0.136      347.043       25.726      861.195
09/22/2014  18:26:00     -268.913      -62.157       -6.009      139.618      104.315       69.961    19493.304    10881.615     4894.546        5.574        1.763      276.003       77.414        0.079      347.043       25.722      861.202
09/22/2014  18:27:00     -164.580      -59.755       16.577      160.898      131.216       90.499    25888.264    17217.586     8190.010        4.111        2.565      175.092      101.766        0.338      347.044       25.726      861.203
09/22/2014  18:28:00     -344.235      -52.236      -17.575      169.548      159.124       61.062    28746.639    25320.427     3728.623        8.966        2.890      348.176       58.643        0.028      347.031       25.703      861.221
09/22/2014  18:29:00     -288.606     -188.958      -10.264      183.199      128.579       78.035    33562.015    16532.550     6089.510        8.763        2.809      344.961       84.927        0.061      347.013       25.671      861.218
09/22/2014  18:30:00     -213.944      -96.795       -3.166      167.303       98.037       71.208    27990.459     9611.161     5070.557        4.890        2.134      234.822       70.957        0.091      346.999       25.648      861.236
09/22/2014  18:31:00     -406.467      -95.860       -7.650      178.680      172.628       81.609    31926.616    29800.428     6660.108       12.141        3.419      417.617       92.608        0.049      346.987       25.627      861.214
09/22/2014  18:32:00     -385.427      -72.801       -9.899      181.724      138.624       83.843    33023.632    19216.728     7029.701       10.660        2.964      392.242       79.714        0.041      346.983       25.620      861.246
09/22/2014  18:33:00     -422.479     -107.268      -17.032      283.113      147.312       76.346    80152.837    21700.757     5828.637       14.897        5.384      435.884      112.762        0.067      346.985       25.624      861.241
09/22/2014  18:34:00     -444.720     -121.105      -23.671      144.509      140.184       67.287    20882.883    19651.606     4527.484       12.902        2.253      460.914       56.880        0.015      346.980       25.613      861.268
09/22/2014  18:35:00     -467.185      -83.360      -56.187      190.780      161.527       80.806    36397.135    26090.864     6529.611       14.868        3.451      474.564       93.487        0.039      346.980       25.618      861.263
09/22/2014  18:36:00     -313.035      -93.328       -6.710      155.185       96.499       63.424    24082.301     9312.076     4022.629        7.208        1.871      326.651       73.611        0.051      346.939       25.545      861.280
09/22/2014  18:37:00     -258.362      -60.070       -9.599       97.882       83.259       47.980     9580.824     6931.987     2302.039        4.463        0.941      265.253       42.318        0.025      346.916       25.504      861.267
09/22/2014  18:38:00     -243.041      -40.686       -7.314       93.593       91.873       51.144     8759.710     8440.601     2615.674        4.029        0.991      246.423       32.927        0.018      346.925       25.519      861.280
09/22/2014  18:39:00     -150.410      -40.597       14.512      107.508       86.943       61.233    11558.075     7559.152     3749.513        2.367        1.143      155.792       57.476        0.136      346.895       25.470      861.291
09/22/2014  18:40:00     -357.418      -56.593      -11.219      141.428      136.106       77.956    20001.970    18524.908     6077.215        8.783        2.230      361.871       79.033        0.048      346.878       25.438      861.300
09/22/2014  18:41:00     -299.499       -5.928       -5.070      173.526      139.553       75.169    30111.290    19475.000     5650.356        7.249        2.762      299.558       81.730        0.074      346.853       25.396      861.273
09/22/2014  18:42:00     -336.199       15.089      -19.198      146.937      119.904       61.595    21590.469    14377.023     3793.932        7.669        1.988      336.537       56.578        0.028      346.854       25.398      861.273
09/22/2014  18:43:00     -488.448     -117.646      -33.962      195.251      169.147       84.716    38123.102    28610.606     7176.875       16.373        3.696      502.416       89.552        0.032      346.835       25.366      861.263
09/22/2014  18:44:00     -372.782      -97.468      -27.387      162.256      137.419       61.668    26327.010    18883.967     3802.933        9.911        2.451      385.313       56.549        0.022      346.820       25.341      861.265
09/22/2014  18:45:00     -377.743      -76.213      -13.044      133.557      145.490       76.474    17837.401    21167.269     5848.255        9.675        2.243      385.355       76.125        0.039      346.786       25.281      861.276
09/22/2014  18:46:00     -343.240      -46.373        2.539      161.755      140.124       72.574    26164.840    19634.803     5267.007        8.551        2.553      346.359       75.755        0.048      346.768       25.250      861.277
09/22/2014  18:47:00     -366.652      -70.369       -3.362      192.206      123.680       73.734    36943.308    15296.681     5436.647        9.853        2.884      373.344       89.607        0.058      346.763       25.242      861.272
09/22/2014  18:48:00     -385.149     -107.002      -20.123      184.389      140.110       73.299    33999.456    19630.886     5372.692       10.959        2.950      399.736       79.127        0.039      346.765       25.245      861.240
09/22/2014  18:49:00     -308.639     -123.536      -14.770      146.888      109.545       69.248    21576.106    12000.186     4795.349        7.455        1.919      332.444       48.312        0.021      346.722       25.171      861.239
09/22/2014  18:50:00     -383.587      -55.607      -12.552      208.736      122.598       91.417    43570.792    15030.285     8357.115       10.866        3.348      387.597       94.693        0.060      346.722       25.169      861.234
09/22/2014  18:51:00     -396.287     -161.800      -10.429      217.966      169.987       88.912    47509.281    28895.444     7905.255       13.381        4.215      428.046      108.064        0.064      346.705       25.142      861.220
09/22/2014  18:52:00     -264.142      -49.071        2.769      135.000      126.591       63.381    18225.039    16025.250     4017.121        5.522        1.913      268.661       55.787        0.043      346.694       25.122      861.243
09/22/2014  18:53:00     -369.167      -50.376      -22.070      181.950      131.417       74.496    33105.752    17270.411     5549.649        9.761        2.796      372.588       80.102        0.046      346.697       25.126      861.244
09/22/2014  18:54:00     -363.814      -17.296      -19.811      213.943      153.810       69.207    45771.639    23657.583     4789.677       10.362        3.711      364.225       90.347        0.062      346.679       25.096      861.254
09/22/2014  18:55:00     -380.617      -64.362      -23.026      196.908      134.108       70.681    38772.622    17984.955     4995.796       10.564        3.088      386.021       83.819        0.047      346.657       25.059      861.266
09/22/2014  18:56:00     -396.881      -95.325      -21.126      209.399      117.128       70.074    43848.078    13719.013     4910.391       11.475        3.124      408.168       86.243        0.045      346.645       25.038      861.271
09/22/2014  18:57:00     -280.725      -19.481      -19.905      170.965      102.169       66.816    29229.043    10438.455     4464.317        6.185        2.207      281.400       68.446        0.059      346.631       25.014      861.297
09/22/2014  18:58:00     -480.059      -35.427        2.091      270.524      179.136      103.431    73183.237    32089.631    10697.871       17.382        5.799      481.364      102.255        0.045      346.654       25.055      861.300
09/22/2014  18:59:00     -378.604      -99.037      -11.986      263.890      204.782      123.878    69638.166    41935.506    15345.757       14.009        6.346      391.343      118.321        0.091      346.676       25.091      861.320
09/22/2014  19:00:00     -407.822     -154.475       -7.919      259.091      127.365       97.216    67127.960    16221.741     9451.025       14.151        4.640      436.098      127.139        0.085      346.667       25.077      861.375
09/22/2014  19:01:00     -394.116      -65.692      -19.090      136.934      128.767       78.102    18750.832    16580.937     6099.901       10.071        2.072      399.554       75.958        0.036      346.643       25.034      861.425
09/22/2014  19:02:00     -331.312      -50.587       -4.977      198.670      101.268       59.049    39469.859    10255.233     3486.794        8.277        2.661      335.152       64.373        0.037      346.615       24.986      861.445
09/22/2014  19:03:00     -295.941     -119.466        4.892      159.124      121.865       67.220    25320.433    14850.957     4518.494        7.328        2.234      319.144       65.591        0.042      346.582       24.931      861.459
09/22/2014  19:04:00     -472.055      -87.750      -25.736      244.730      162.772       87.908    59892.691    26494.797     7727.736       16.264        4.706      480.141      104.712        0.048      346.592       24.947      861.467
09/22/2014  19:05:00     -451.590     -148.473      -19.954      180.766      182.056       96.028    32676.455    33144.241     9221.325       15.070        3.752      475.371       86.242        0.033      346.580       24.925      861.463
09/22/2014  19:06:00     -419.703      -68.494      -14.892      157.972      122.496       72.466    24955.207    15005.178     5251.365       11.313        2.261      425.255       71.315        0.028      346.545       24.867      861.474
09/22/2014  19:07:00     -127.722        3.696        8.509      133.019      102.279       73.364    17693.954    10460.940     5382.256        2.496        1.677      127.775       66.961        0.275      346.514       24.815      861.473
09/22/2014  19:08:00     -214.353       -0.927        0.846      171.829      136.481       68.135    29525.144    18626.938     4642.429        4.936        2.640      214.355       82.205        0.147      346.512       24.810      861.473
09/22/2014  19:09:00     -174.959      -15.205       -7.771      148.135      126.890       63.033    21944.054    16100.986     3973.129        3.645        2.101      175.618       64.154        0.133      346.474       24.747      861.482
09/22/2014  19:10:00     -323.276      -55.286       -4.660      221.222      175.453       99.796    48939.283    30783.884     9959.242        9.862        4.484      327.969      101.516        0.096      346.457       24.716      861.491
09/22/2014  19:11:00     -300.372      -42.207      -22.592      153.971      180.273       76.436    23707.208    32498.491     5842.425        7.727        3.102      303.323       86.428        0.081      346.481       24.757      861.499
09/22/2014  19:12:00     -477.041      -69.512      -28.602      221.365      135.423       92.762    49002.657    18339.362     8604.779       15.457        3.797      482.078      118.724        0.061      346.467       24.733      861.506
09/22/2014  19:13:00     -427.485      -17.355      -43.362      185.011      149.149       73.378    34228.904    22245.338     5384.368       12.338        3.093      427.837       65.769        0.024      346.460       24.720      861.517
09/22/2014  19:14:00     -349.330       -1.449      -18.569      127.615      129.750       68.020    16285.601    16834.978     4626.656        8.006        1.887      349.333       60.044        0.030      346.421       24.653      861.531
09/22/2014  19:15:00     -528.237      -51.332      -46.447      178.501      143.422       76.796    31862.545    20569.947     5897.573       17.107        2.917      530.725       77.754        0.021      346.414       24.640      861.562
09/22/2014  19:16:00     -270.524      -73.683        2.672      174.695      121.358       86.080    30518.489    14727.710     7409.721        6.563        2.633      280.379       88.649        0.100      346.352       24.537      861.583
09/22/2014  19:17:00     -399.439      -29.051      -28.545      145.094       99.298       63.345    21052.219     9860.084     4012.601        9.806        1.746      400.494       65.923        0.027      346.395       24.609      861.581
09/22/2014  19:18:00     -439.006       -8.225      -45.264      183.535      128.794       70.913    33685.178    16587.836     5028.615       12.506        2.765      439.083       81.041        0.034      346.394       24.606      861.537
09/22/2014  19:19:00     -366.031     -130.054      -25.183      163.231      118.542       70.306    26644.467    14052.291     4942.979        9.858        2.282      388.449       64.828        0.028      346.362       24.552      861.524
09/22/2014  19:20:00     -371.862     -125.250      -17.524      237.091      156.891       82.654    56212.101    24614.779     6831.636       12.095        4.383      392.389       77.545        0.039      346.327       24.493      861.535
09/22/2014  19:21:00     -356.284      -43.230      -11.993      173.625      155.559       75.448    30145.709    24198.457     5692.342        9.448        3.002      358.897       76.017        0.045      346.310       24.462      861.543
09/22/2014  19:22:00     -461.188      -20.003      -33.591      130.736      140.801       80.635    17091.858    19824.878     6501.957       12.881        2.171      461.622       79.654        0.030      346.296       24.437      861.546
09/22/2014  19:23:00     -503.155     -173.032      -10.609      257.331      141.551       91.900    66219.308    20036.727     8445.633       18.894        4.735      532.076      105.465        0.039      346.317       24.472      861.557
09/22/2014  19:24:00     -458.732     -122.111       -9.056      192.990      152.300       81.002    37245.150    23195.386     6561.389       14.620        3.350      474.707       91.251        0.037      346.292       24.432      861.584
09/22/2014  19:25:00     -315.238      -55.226       -5.301      181.916      119.330       90.346    33093.544    14239.602     8162.390        7.896        2.775      320.039       97.478        0.093      346.257       24.370      861.593
09/22/2014  19:26:00     -368.774       15.867      -22.745      165.106      137.194       73.034    27259.907    18822.113     5333.975        9.408        2.571      369.115       79.625        0.047      346.236       24.334      861.606
09/22/2014  19:27:00     -516.104      -94.590       -4.662      282.170      183.723       95.268    79619.703    33754.079     9075.963       19.887        6.122      524.700      111.165        0.045      346.259       24.373      861.624
09/22/2014  19:28:00     -519.562      -64.795      -21.914      180.591      192.457       86.664    32612.939    37039.814     7510.731       17.588        3.858      523.587       86.742        0.027      346.279       24.407      861.655
09/22/2014  19:29:00     -326.169     -119.660       -7.485      174.578      148.956       69.405    30477.618    22187.858     4817.088        8.911        2.874      347.425       76.618        0.049      346.239       24.338      861.676
09/22/2014  19:30:00     -341.169      -73.121      -10.467      134.536      115.299       74.669    18099.993    13293.950     5575.442        7.940        1.848      348.917       72.437        0.043      346.220       24.306      861.680
09/22/2014  19:31:00     -544.627      -33.621      -34.342      278.292      179.225       78.219    77446.425    32121.538     6118.283       20.729        5.784      545.664      106.375        0.038      346.221       24.309      861.670
09/22/2014  19:32:00     -502.503     -111.427      -25.000      192.703      160.390       77.120    37134.630    25725.015     5947.568       16.717        3.440      514.708       76.856        0.022      346.201       24.276      861.686
09/22/2014  19:33:00     -298.834     -119.155        7.682      220.280      197.624       89.983    48523.176    39055.306     8097.012        9.960        4.784      321.713      110.142        0.117      346.193       24.261      861.654
09/22/2014  19:34:00     -438.859     -117.389      -18.823      208.773      181.898       92.034    43586.302    33086.795     8470.324       14.592        4.257      454.288       89.983        0.039      346.194       24.262      861.644
09/22/2014  19:35:00     -533.819       -5.658      -25.842      215.757      176.370      101.675    46551.138    31106.432    10337.745       18.681        4.400      533.849      101.873        0.036      346.193       24.260      861.653
09/22/2014  19:36:00     -442.352     -109.829      -18.070      253.555      168.028      105.259    64290.387    28233.397    11079.486       15.582        5.180      455.782      117.956        0.067      346.184       24.246      861.658
09/22/2014  19:37:00     -545.463     -120.372      -25.749      247.011      158.401       91.548    61014.292    25090.963     8381.102       20.357        4.724      558.587      105.578        0.036      346.168       24.217      861.709
09/22/2014  19:38:00     -605.793     -102.454      -38.816      278.450      157.133       94.427    77534.155    24690.747     8916.508       24.505        5.557      614.395      128.604        0.044      346.152       24.191      861.762
09/22/2014  19:39:00     -406.250      -57.814      -13.251      219.359      169.955       85.071    48118.498    28884.672     7237.105       12.638        4.212      410.343       95.913        0.055      346.121       24.139      861.757
09/22/2014  19:40:00     -325.617       -9.626       -6.009      203.778      140.853       81.115    41525.376    19839.607     6579.563        8.704        3.397      325.759      101.971        0.098      346.087       24.079      861.767
09/22/2014  19:41:00     -363.278     -214.774      -27.182      204.441      184.923       81.243    41796.036    34196.435     6600.503       13.070        4.130      422.017      100.279        0.056      346.091       24.085      861.746
09/22/2014  19:42:00     -397.960      -58.424      -11.679      145.496      130.211       69.375    21169.202    16954.825     4812.899       10.242        2.147      402.226       71.663        0.032      346.096       24.095      861.724
09/22/2014  19:43:00     -259.678      -90.983        8.092      204.141      194.758      104.427    41673.502    37930.776    10905.035        8.313        4.525      275.156      118.369        0.185      346.061       24.033      861.717
09/22/2014  19:44:00     -319.080      -73.928        2.988      207.131      173.466       91.576    42903.255    30090.577     8386.158        9.432        4.069      327.533      105.155        0.103      346.077       24.062      861.749
09/22/2014  19:45:00     -334.066     -137.971      -17.578      165.684      162.567      104.849    27451.305    26427.895    10993.284        9.790        3.244      361.436       82.897        0.053      346.076       24.060      861.772
09/22/2014  19:46:00     -247.732      -91.688       -9.986      148.004      125.223       78.538    21905.276    15680.703     6168.152        5.681        2.188      264.155       71.886        0.074      346.063       24.037      861.806
09/22/2014  19:47:00     -495.406     -100.609      -22.466      213.537      165.458       94.649    45597.849    27376.471     8958.507       16.898        4.097      505.519       89.321        0.031      346.047       24.011      861.848
09/22/2014  19:48:00     -360.174      -53.058      -16.411      233.631      138.597       74.357    54583.623    19209.196     5528.926       10.605        3.966      364.062       89.393        0.060      346.053       24.020      861.832
09/22/2014  19:49:00     -278.748      -91.720        0.282      226.100      186.062       88.152    51121.271    34618.933     7770.804        8.980        4.676      293.450      106.271        0.131      346.011       23.949      861.819
09/22/2014  19:50:00     -566.076      -80.554      -44.308      202.063      174.603       97.516    40829.358    30486.203     9509.275       20.485        4.041      571.779       98.913        0.030      346.007       23.943      861.812
09/22/2014  19:51:00     -333.929      -32.184       11.384      168.348      174.915       96.806    28340.939    30595.266     9371.335        9.048        3.415      335.477      103.585        0.095      345.987       23.908      861.857
09/22/2014  19:52:00     -370.921      -79.891       -7.307      176.780      126.139       78.201    31251.197    15910.953     6115.352        9.864        2.664      379.427       71.347        0.035      345.994       23.919      861.875
09/22/2014  19:53:00     -453.429     -105.797      -11.266      209.778      227.051       86.299    44006.825    51552.249     7447.500       15.995        5.150      465.608       89.532        0.037      345.973       23.884      861.852
09/22/2014  19:54:00     -372.017     -142.371        7.474      225.023      175.413       97.288    50635.192    30769.567     9464.965       12.478        4.543      398.329      114.716        0.083      345.947       23.839      861.855
09/22/2014  19:55:00     -323.108     -105.806      -11.265      213.503      139.269       92.874    45583.680    19395.726     8625.648        9.465        3.680      339.990      106.916        0.099      345.947       23.839      861.874
09/22/2014  19:56:00     -515.056     -206.608      -11.870      237.879      158.576      101.957    56586.247    25146.454    10395.240       20.010        4.606      554.950      119.341        0.046      345.970       23.878      861.883
09/22/2014  19:57:00     -475.768      -99.121      -54.463      146.594      133.949       63.618    21489.799    17942.203     4047.244       14.131        2.174      485.983       33.959        0.005      345.966       23.871      861.876
09/22/2014  19:58:00     -249.309     -120.655       -2.982      148.504      110.071       65.155    22053.568    12115.613     4245.236        5.756        1.921      276.970       69.201        0.062      345.924       23.799      861.876
09/22/2014  19:59:00     -296.023     -165.394       -7.761      206.555      129.868       82.881    42664.906    16865.758     6869.208        9.071        3.320      339.094       92.821        0.075      345.920       23.793      861.870
09/22/2014  20:00:00     -484.690     -212.709      -37.308      231.162      200.506       91.355    53435.835    40202.808     8345.807       19.176        5.099      529.310      102.671        0.038      345.901       23.758      861.899
09/22/2014  20:01:00     -145.583      -74.938       30.470      175.454      101.436       78.915    30784.174    10289.185     6227.526        3.751        2.365      163.738       96.170        0.345      345.865       23.700      861.910
09/22/2014  20:02:00     -356.138      -93.134      -21.769      165.800      143.947       81.369    27489.739    20720.764     6620.841        9.540        2.742      368.114       83.958        0.052      345.843       23.660      861.917
09/22/2014  20:03:00     -211.583      -66.032        9.221      156.227      123.643       71.130    24406.904    15287.694     5059.478        4.698        2.238      221.647       83.503        0.142      345.823       23.627      861.929
09/22/2014  20:04:00     -280.626     -150.020      -19.951      167.785      109.065       79.652    28151.766    11895.078     6344.365        7.402        2.320      318.209       80.049        0.063      345.847       23.667      861.938
09/22/2014  20:05:00     -339.120     -113.864      -21.435      173.802      140.475       79.615    30207.276    19733.228     6338.473        9.234        2.814      357.725       82.932        0.054      345.820       23.621      861.961
09/22/2014  20:06:00     -307.208      -80.636      -14.694      177.512      144.228       66.838    31510.598    20801.763     4467.384        7.893        2.839      317.614       76.713        0.058      345.792       23.573      861.952
09/22/2014  20:07:00     -136.349      -42.777       23.434      172.619      148.128      108.340    29797.327    21941.899    11737.645        4.221        3.174      142.902      108.295        0.574      345.754       23.509      861.958
09/22/2014  20:08:00     -466.062      -63.568      -22.307      159.868      160.841       88.485    25557.849    25869.889     7829.555       14.050        2.963      470.377       92.088        0.038      345.753       23.506      861.967
09/22/2014  20:09:00     -495.941      -63.731      -30.654      277.543      174.653       99.922    77030.312    30503.620     9984.315       18.422        5.876      500.019      128.129        0.066      345.764       23.525      861.990
09/22/2014  20:10:00     -379.296     -175.234      -26.165      238.455      182.967       94.900    56860.788    33476.887     9006.089       13.728        4.967      417.819       85.638        0.042      345.771       23.537      861.985
09/22/2014  20:11:00     -387.929      -83.885       -4.551      189.877      161.653       80.415    36053.375    26131.588     6466.498       11.309        3.433      396.895       91.834        0.054      345.747       23.495      862.032
09/22/2014  20:12:00     -206.253      -97.235       -7.197      150.414      142.303       82.612    22624.375    20250.079     6824.766        5.086        2.485      228.024       76.667        0.113      345.734       23.474      862.057
09/22/2014  20:13:00     -227.893      -70.374        1.350      179.548      103.580       78.310    32237.401    10728.808     6132.383        5.299        2.455      238.511       84.651        0.126      345.696       23.410      862.051
09/22/2014  20:14:00     -432.519      -98.928      -25.734      183.188      172.002       77.851    33557.700    29584.620     6060.715       13.335        3.460      443.689       68.816        0.024      345.713       23.437      862.077
09/22/2014  20:15:00     -214.359      -93.379        4.966      196.460      161.066       85.695    38596.715    25942.414     7343.652        6.328        3.594      233.815       96.249        0.169      345.693       23.402      862.097
09/22/2014  20:16:00     -396.701      -90.762        6.171      305.508      138.415       85.340    93334.932    19158.714     7282.864       14.269        5.989      406.951      108.070        0.071      345.711       23.435      862.100
09/22/2014  20:17:00     -358.439     -222.749       -6.595      187.507      168.497       96.498    35158.720    28391.398     9311.888       12.549        3.643      422.014       94.115        0.050      345.721       23.452      862.122
09/22/2014  20:18:00     -340.024     -171.089        4.878      247.013      193.698      104.640    61015.385    37518.873    10949.562       12.718        5.474      380.641      112.568        0.087      345.706       23.426      862.116
09/22/2014  20:19:00     -251.789      -68.802        8.806      237.256      132.438       75.176    56290.474    17539.801     5651.399        7.383        3.974      261.020       97.979        0.141      345.670       23.364      862.116
09/22/2014  20:20:00     -260.901      -86.689       19.108      208.377      145.570       93.340    43421.141    21190.697     8712.442        7.462        3.666      274.926      111.367        0.164      345.658       23.343      862.117
09/22/2014  20:21:00     -255.726     -129.586        8.251      212.692      151.750       80.470    45237.921    23028.007     6475.369        7.849        3.737      286.685      103.148        0.129      345.632       23.298      862.124
09/22/2014  20:22:00     -325.045      -97.009       -3.878      168.626      113.674       82.304    28434.673    12921.667     6773.956        8.160        2.407      339.212       84.305        0.062      345.642       23.315      862.150
09/22/2014  20:23:00     -367.500     -119.930      -12.477      214.024      151.797       77.961    45806.264    23042.209     6077.942       11.225        3.746      386.574       84.198        0.047      345.625       23.286      862.160
09/22/2014  20:24:00     -308.259      -94.064      -21.005      218.155      153.158       74.360    47591.525    23457.495     5529.463        9.043        3.829      322.291       87.607        0.074      345.620       23.278      862.153
09/22/2014  20:25:00     -296.686      -74.871       10.568      178.579      141.347       89.500    31890.386    19979.030     8010.316        7.680        2.994      305.988       95.638        0.098      345.576       23.200      862.159
09/22/2014  20:26:00     -283.599     -233.176       -9.096      178.187      165.236       93.122    31750.539    27303.029     8671.718       10.129        3.386      367.150       90.969        0.061      345.576       23.201      862.144
09/22/2014  20:27:00     -374.518     -251.993       -7.071      196.384      167.604       95.558    38566.545    28091.033     9131.369       13.979        3.789      451.403      100.371        0.049      345.596       23.235      862.117
09/22/2014  20:28:00     -467.149     -156.151      -32.657      168.200      177.094       92.281    28291.238    31362.167     8515.763       15.591        3.408      492.556       83.345        0.029      345.581       23.208      862.132
09/22/2014  20:29:00     -267.337      -65.890       16.836      176.718      134.950       89.607    31229.215    18211.581     8029.451        6.677        2.874      275.338      107.776        0.153      345.561       23.176      862.101
09/22/2014  20:30:00     -402.957      -24.543      -18.342      170.874      124.585       83.914    29197.823    15521.455     7041.580       10.753        2.588      403.704       88.661        0.048      345.518       23.102      862.065
09/22/2014  20:31:00     -341.482     -172.926      -18.085      213.951      156.172       96.674    45775.027    24389.764     9345.859       11.316        3.976      382.770       88.197        0.053      345.508       23.084      862.077
09/22/2014  20:32:00     -437.430     -152.727       -7.272      225.748      186.543       86.395    50961.985    34798.376     7464.058       15.396        4.661      463.325      102.493        0.049      345.562       23.178      862.088
09/22/2014  20:33:00     -402.391     -231.968      -22.108      215.544      140.155       81.780    46459.322    19643.319     6687.949       14.449        3.640      464.465       97.599        0.044      345.532       23.127      862.118
09/22/2014  20:34:00     -144.850     -113.112        2.658      130.790      123.538       83.193    17106.069    15261.702     6921.003        3.653        1.964      183.782       81.060        0.195      345.496       23.065      862.118
09/22/2014  20:35:00     -170.330     -162.419       17.680      190.478      146.195      102.748    36281.702    21373.024    10557.226        6.195        3.411      235.356      108.418        0.212      345.500       23.072      862.098
09/22/2014  20:36:00     -242.904     -160.251        6.746      178.532      159.097       89.952    31873.560    25311.962     8091.310        7.499        3.264      291.003      102.535        0.124      345.478       23.034      862.092
09/22/2014  20:37:00     -335.203     -125.929       -1.745      225.583      150.737       82.206    50887.774    22721.517     6757.817       10.428        4.018      358.077      105.841        0.087      345.461       23.004      862.094
09/22/2014  20:38:00     -380.708     -139.932        6.372      255.687      179.309       87.420    65375.701    32151.758     7642.189       13.485        5.258      405.610      108.799        0.072      345.473       23.025      862.113
09/22/2014  20:39:00     -442.302     -105.011      -41.959      149.708      129.082       76.328    22412.358    16662.129     5825.895       12.665        2.245      454.597       76.477        0.028      345.480       23.037      862.157
09/22/2014  20:40:00     -204.786      -43.370       12.683      166.420      128.737       73.400    27695.469    16573.088     5387.545        4.681        2.483      209.328       94.118        0.202      345.438       22.965      862.182
09/22/2014  20:41:00     -241.964      -88.024       -9.915      178.807      140.680       80.063    31971.883    19790.740     6410.138        6.227        2.909      257.477       90.954        0.125      345.431       22.952      862.190
09/22/2014  20:42:00     -379.958     -242.044      -18.229      154.557      145.078       87.413    23887.760    21047.647     7640.986       12.792        2.629      450.504       75.883        0.028      345.446       22.979      862.175
09/22/2014  20:43:00     -281.517     -110.104       -9.907      222.757      146.938       87.622    49620.607    21590.824     7677.567        8.517        3.944      302.283       95.549        0.100      345.444       22.975      862.191
09/22/2014  20:44:00     -398.923     -113.729      -19.042      190.598      146.787       82.612    36327.525    21546.407     6824.816       11.856        3.235      414.818       91.594        0.049      345.419       22.931      862.191
09/22/2014  20:45:00     -289.424      -47.936       -5.118      160.464      149.691       70.411    25748.720    22407.265     4957.727        6.959        2.656      293.367       76.835        0.069      345.375       22.858      862.204
09/22/2014  20:46:00     -387.002     -125.246       -6.224      160.210      123.015       80.012    25667.296    15132.723     6401.980       10.634        2.360      406.764       95.408        0.055      345.393       22.888      862.221
09/22/2014  20:47:00     -294.920      -28.529       -9.204      194.365      171.595       75.044    37777.779    29444.933     5631.659        8.035        3.643      296.296       82.674        0.078      345.397       22.896      862.195
09/22/2014  20:48:00     -331.169     -146.608      -13.973      202.461      142.059       64.957    40990.286    20180.726     4219.361        9.837        3.270      362.169       80.555        0.049      345.358       22.829      862.229
09/22/2014  20:49:00     -366.032     -185.768      -10.331      251.009      147.779       82.958    63005.404    21838.602     6881.993       13.015        4.586      410.474      103.774        0.064      345.380       22.864      862.255
09/22/2014  20:50:00     -377.530     -105.817      -13.681      151.571      149.250       73.235    22973.751    22275.436     5363.319       10.225        2.531      392.080       75.751        0.037      345.384       22.872      862.260
09/22/2014  20:51:00     -393.289     -164.218       -1.619      222.645      185.025       98.211    49570.782    34234.392     9645.406       13.753        4.673      426.197      117.401        0.076      345.362       22.836      862.254
09/22/2014  20:52:00     -602.815     -174.347      -48.079      202.247      159.722       82.872    40903.655    25510.971     6867.831       23.468        3.664      627.521       81.278        0.017      345.408       22.912      862.256
09/22/2014  20:53:00     -287.729      -81.753        1.036      211.551      139.312       69.400    44753.759    19407.853     4816.353        7.921        3.449      299.118       83.222        0.077      345.371       22.850      862.269
09/22/2014  20:54:00     -205.953      -17.389       14.507      151.663      146.775       69.520    23001.808    21543.011     4833.081        4.615        2.469      206.686       71.098        0.118      345.345       22.806      862.282
09/22/2014  20:55:00     -232.649      -94.396        9.235      181.273      120.660       76.688    32860.023    14558.842     5881.082        5.820        2.665      251.070       89.533        0.127      345.332       22.784      862.276
09/22/2014  20:56:00     -205.493      -77.790       -2.527      160.350      153.086       69.966    25712.101    23435.444     4895.293        5.116        2.702      219.725       80.015        0.133      345.307       22.741      862.305
09/22/2014  20:57:00     -127.511      -47.121        9.920      109.738      107.858       63.051    12042.353    11633.320     3975.475        2.311        1.383      135.939       49.922        0.135      345.289       22.713      862.303
09/22/2014  20:58:00     -173.726      -89.815        9.972      159.769      111.663       77.173    25526.110    12468.630     5955.643        4.114        2.198      195.570       88.313        0.204      345.284       22.701      862.316
09/22/2014  20:59:00     -136.510      -93.252       13.608      151.195      133.309       73.337    22859.947    17771.361     5378.317        3.676        2.300      165.321       86.802        0.276      345.281       22.697      862.349
09/22/2014  21:00:00     -281.622     -103.057       -4.582      180.904      119.881       74.239    32726.106    14371.417     5511.500        7.127        2.630      299.886       85.744        0.082      345.289       22.710      862.365
09/22/2014  21:01:00     -370.414     -114.502       -9.277      167.809      149.715       80.072    28159.775    22414.606     6411.569       10.369        2.849      387.708       82.639        0.045      345.297       22.723      862.380
09/22/2014  21:02:00     -316.698     -100.892       -3.766      204.552      140.950       70.183    41841.451    19867.008     4925.617        8.855        3.332      332.381       85.793        0.067      345.276       22.687      862.397
09/22/2014  21:03:00     -346.603      -45.968      -12.683      177.181      172.479       66.214    31393.173    29749.068     4384.289        9.396        3.276      349.638       64.612        0.034      345.261       22.663      862.400
09/22/2014  21:04:00     -420.826      -76.848      -25.250      143.176      152.573       61.884    20499.416    23278.665     3829.602       11.561        2.380      427.786       55.940        0.017      345.272       22.680      862.384
09/22/2014  21:05:00     -253.296     -150.499      -22.497      182.390      116.553       60.429    33266.189    13584.545     3651.669        6.890        2.525      294.634       72.166        0.060      345.239       22.625      862.384
09/22/2014  21:06:00     -196.903     -121.528       -0.719      167.823      135.644       83.888    28164.695    18399.288     7037.149        5.356        2.680      231.387       78.953        0.116      345.226       22.602      862.392
09/22/2014  21:07:00     -270.783      -64.213      -12.804      139.484      151.765       62.720    19455.826    23032.549     3933.817        6.201        2.321      278.292       68.886        0.061      345.223       22.595      862.410
09/22/2014  21:08:00     -278.706      -97.416        2.524      213.115      150.820       77.554    45418.039    22746.572     6014.623        8.066        3.709      295.240       96.431        0.107      345.211       22.577      862.404
09/22/2014  21:09:00     -295.263     -198.108      -11.773      148.282      152.864       81.649    21987.538    23367.460     6666.577        8.928        2.601      355.565       78.310        0.049      345.233       22.615      862.396
09/22/2014  21:10:00     -313.093      -72.403      -13.260      222.993      124.866       78.073    49725.745    15591.437     6095.334        8.742        3.571      321.356       87.339        0.074      345.220       22.592      862.411
09/22/2014  21:11:00     -311.463      -57.656        2.534      197.935      160.267       92.121    39178.272    25685.484     8486.245        8.683        3.668      316.755      111.137        0.123      345.268       22.673      862.406
09/22/2014  21:12:00     -261.512      -42.200      -10.758       97.227      120.328       58.256     9453.182    14478.834     3393.777        4.880        1.366      264.895       49.292        0.035      345.218       22.587      862.418
09/22/2014  21:13:00     -209.802     -181.419       -6.469      136.254      124.036       79.988    18565.205    15384.805     6398.065        5.865        2.017      277.362       80.148        0.084      345.225       22.600      862.398
09/22/2014  21:14:00     -231.307      -16.042       -3.687      110.407       77.950       60.171    12189.616     6076.161     3620.492        3.783        1.094      231.862       62.467        0.073      345.175       22.515      862.438
09/22/2014  21:15:00     -206.648      -27.098       12.599      172.067      124.642       81.857    29606.921    15535.734     6700.614        4.771        2.592      208.417       90.652        0.189      345.190       22.540      862.439
09/22/2014  21:16:00     -172.790     -104.472       -3.516      151.825      102.169       61.661    23050.864    10438.563     3802.083        3.903        1.865      201.918       65.184        0.104      345.210       22.576      862.436
09/22/2014  21:17:00     -302.071     -143.958       -5.022      179.492      112.685       79.676    32217.444    12697.893     6348.227        8.162        2.563      334.620       80.510        0.058      345.186       22.532      862.428
09/22/2014  21:18:00     -365.895      -81.044      -18.895      150.386      145.180       73.129    22615.829    21077.187     5347.889        9.491        2.452      374.763       78.469        0.044      345.208       22.570      862.471
09/22/2014  21:19:00     -381.816      -89.693      -25.368      193.274      170.001       64.803    37354.703    28900.452     4199.475       11.245        3.523      392.210       65.539        0.028      345.211       22.575      862.480
09/22/2014  21:20:00     -239.532      -75.131        4.633      195.014      142.880       64.579    38030.415    20414.686     4170.430        6.282        3.131      251.038       88.257        0.124      345.175       22.514      862.495
09/22/2014  21:21:00     -338.713     -163.156      -24.990      150.945      144.358       78.030    22784.468    20839.264     6088.733        9.583        2.486      375.961       88.919        0.056      345.183       22.527      862.496
09/22/2014  21:22:00     -333.942     -150.330      -18.835      189.214      183.283       85.060    35801.809    33592.535     7235.192       10.554        3.831      366.219       86.549        0.056      345.189       22.538      862.487
09/22/2014  21:23:00     -311.686     -133.891      -11.808      160.616      130.523       66.316    25797.401    17036.215     4397.828        8.121        2.362      339.227       65.657        0.037      345.180       22.522      862.482
09/22/2014  21:24:00     -305.285     -143.989       -7.512      163.710      137.875       73.477    26800.999    19009.604     5398.839        8.259        2.560      337.538       72.725        0.046      345.137       22.449      862.485
09/22/2014  21:25:00     -369.310      -58.840      -24.349      212.872      128.958       77.638    45314.451    16630.295     6027.597       10.420        3.399      373.968       95.448        0.065      345.130       22.438      862.493
09/22/2014  21:26:00     -284.512     -129.420       -3.916      208.428      155.966       83.601    43442.388    24325.294     6989.094        8.622        3.738      312.565       96.148        0.095      345.102       22.390      862.482
09/22/2014  21:27:00     -333.650      -60.335      -22.843      179.130      161.872       81.222    32087.601    26202.434     6596.958        9.017        3.244      339.062       87.591        0.067      345.106       22.396      862.477
09/22/2014  21:28:00     -287.069     -109.786       -2.004      176.152      125.657       74.294    31029.477    15789.754     5519.628        7.339        2.617      307.346       89.331        0.084      345.095       22.379      862.467
09/22/2014  21:29:00     -377.742     -123.563      -18.947      144.208      137.292       76.505    20795.839    18849.184     5853.036       10.190        2.275      397.438       76.907        0.037      345.135       22.444      862.473
09/22/2014  21:30:00     -250.307     -166.653      -12.644      150.718      131.839       72.356    22715.903    17381.489     5235.400        6.795        2.267      300.711       67.175        0.050      345.092       22.372      862.471
09/22/2014  21:31:00     -194.653      -87.831       -8.660      126.301      105.484       64.750    15951.824    11126.884     4192.568        3.847        1.564      213.551       70.280        0.108      345.097       22.381      862.481
09/22/2014  21:32:00     -256.862     -110.968       -3.202      117.753       87.343       56.458    13865.753     7628.821     3187.451        5.149        1.234      279.807       54.267        0.038      345.067       22.330      862.478
09/22/2014  21:33:00     -187.606     -157.298        5.899      180.505      134.599       79.145    32581.887    18116.781     6263.975        5.846        2.848      244.824       79.601        0.106      345.050       22.301      862.487
09/22/2014  21:34:00     -301.198     -156.002      -12.763      183.735      148.223       75.037    33758.539    21969.998     5630.531        8.828        3.068      339.200       85.673        0.064      345.071       22.337      862.490
09/22/2014  21:35:00     -312.207      -49.456       -6.237      160.818      119.761       80.656    25862.364    14342.606     6505.429        7.333        2.336      316.100       88.659        0.079      345.038       22.281      862.518
09/22/2014  21:36:00     -303.546     -211.941       -0.492      220.566      147.600       83.670    48649.285    21785.662     7000.665       10.723        3.872      370.216      109.430        0.087      345.073       22.340      862.506
09/22/2014  21:37:00     -309.930     -103.541       -6.667      159.502      121.194       58.944    25440.857    14687.964     3474.377        7.521        2.180      326.768       69.868        0.046      345.041       22.286      862.524
09/22/2014  21:38:00     -327.314      -56.337      -12.041      178.612      111.982       73.792    31902.072    12539.961     5445.192        8.016        2.494      332.127       78.646        0.056      345.049       22.299      862.547
09/22/2014  21:39:00     -247.235     -110.607      -14.945      138.880      103.729       54.399    19287.598    10759.700     2959.304        5.329        1.650      270.848       59.662        0.049      345.016       22.244      862.544
09/22/2014  21:40:00     -338.188     -135.218      -13.451      104.834      103.605       58.080    10990.135    10733.941     3373.290        7.896        1.255      364.218       59.081        0.026      345.006       22.224      862.544
09/22/2014  21:41:00     -183.964     -149.208       15.425      145.295      131.745       81.979    21110.533    17356.668     6720.612        5.076        2.259      236.866       91.939        0.151      344.976       22.174      862.557
09/22/2014  21:42:00     -354.130      -41.503      -15.385      196.950      146.172       68.360    38789.116    21366.340     4673.157        9.609        3.241      356.554       66.747        0.035      345.005       22.223      862.550
09/22/2014  21:43:00     -138.915      -57.658        9.311      133.506       85.641       66.528    17823.900     7334.413     4425.943        2.614        1.479      150.406       61.919        0.169      344.957       22.142      862.547
09/22/2014  21:44:00     -220.705     -132.045      -17.837      100.966       83.157       46.041    10194.082     6915.135     2119.797        4.284        0.961      257.189       32.960        0.016      344.985       22.187      862.566
09/22/2014  21:45:00     -277.133     -155.625       -9.499      170.553      131.616       69.797    29088.470    17322.874     4871.609        7.619        2.564      317.840       88.178        0.077      345.006       22.225      862.562
09/22/2014  21:46:00     -255.889     -148.732       -4.902      141.910      117.137       68.915    20138.501    13721.090     4749.216        6.311        1.930      295.974       71.473        0.058      345.027       22.260      862.567
09/22/2014  21:47:00     -256.509      -19.673       -3.703      141.122       96.162       56.044    19915.278     9247.206     3140.877        4.925        1.615      257.262       55.998        0.047      344.993       22.203      862.577
09/22/2014  21:48:00     -133.973      -79.127       -2.549       80.672       62.888       34.665     6507.904     3954.874     1201.683        1.794        0.583      155.595       36.760        0.056      344.952       22.134      862.586
09/22/2014  21:49:00     -122.477      -90.869       -2.593       97.873       71.671       45.577     9579.208     5136.721     2077.276        2.003        0.840      152.505       43.949        0.083      344.968       22.162      862.581
09/22/2014  21:50:00     -246.043     -142.552       -4.955      115.186       94.869       51.344    13267.722     9000.042     2636.173        5.289        1.245      284.356       51.790        0.033      345.032       22.270      862.565
09/22/2014  21:51:00     -254.600     -163.789       -8.369       95.659       92.482       54.557     9150.595     8552.930     2976.426        5.620        1.034      302.734       60.010        0.039      344.966       22.158      862.543
09/22/2014  21:52:00     -202.563      -83.784       -2.981      156.623      114.374       62.355    24530.827    13081.464     3888.166        4.477        2.075      219.207       74.304        0.115      344.917       22.075      862.556
09/22/2014  21:53:00     -394.263     -132.565      -21.881      160.068      110.965       63.819    25621.839    12313.308     4072.813       10.774        2.100      415.953       75.088        0.033      344.971       22.166      862.554
09/22/2014  21:54:00     -288.791      -91.777       -7.947      141.735       88.674       68.689    20088.740     7863.057     4718.130        6.227        1.633      303.024       70.164        0.054      344.927       22.090      862.571
09/22/2014  21:55:00     -127.785      -42.491       13.790       90.081      115.554       64.467     8114.516    13352.757     4156.044        2.197        1.281      134.665       66.687        0.245      344.894       22.035      862.579
09/22/2014  21:56:00     -335.833      -83.835       -6.650      156.929      128.764       69.327    24626.583    16580.222     4806.175        8.293        2.301      346.139       80.801        0.054      344.960       22.147      862.598
09/22/2014  21:57:00     -282.084     -193.845       -2.153      137.134      121.126       68.597    18805.823    14671.500     4705.519        7.766        1.909      342.268       66.769        0.038      344.994       22.204      862.612
09/22/2014  21:58:00     -294.297      -97.416       -8.471      132.586      115.892       58.947    17579.143    13430.935     3474.766        6.532        1.724      310.001       55.966        0.033      344.987       22.193      862.616
09/22/2014  21:59:00     -161.771      -63.626       -1.163      111.973       76.723       45.704    12538.036     5886.420     2088.813        2.536        1.026      173.834       48.905        0.079      344.931       22.098      862.643
09/22/2014  22:00:00     -270.174       -9.967       -5.382      137.207       79.391       49.533    18825.866     6302.908     2453.501        5.035        1.379      270.358       61.410        0.052      344.949       22.127      862.648
09/22/2014  22:01:00     -222.921     -122.973        0.220      131.975      124.363       64.408    17417.269    15466.141     4148.344        5.092        1.852      254.590       62.093        0.059      344.970       22.165      862.672
09/22/2014  22:02:00     -128.524      -55.052       29.520      140.514      122.600       61.608    19744.045    15030.647     3795.572        2.949        1.929      139.818       67.453        0.233      344.923       22.085      862.668
09/22/2014  22:03:00     -244.891     -160.509      -12.675      145.241      110.992       63.358    21094.810    12319.293     4014.208        6.166        1.871      292.805       66.526        0.052      344.959       22.145      862.667
09/22/2014  22:04:00     -366.956     -137.912       -3.695      183.950      147.279       72.559    33837.666    21690.960     5264.780       10.723        3.040      392.016       93.400        0.057      344.969       22.161      862.670
09/22/2014  22:05:00     -191.094      -29.421        2.602      124.293       97.145       55.047    15448.854     9437.100     3030.135        3.265        1.396      193.345       52.746        0.074      344.919       22.076      862.682
09/22/2014  22:06:00     -268.915     -127.372       -9.983      124.027       92.901       62.113    15382.741     8630.526     3858.045        5.825        1.394      297.554       65.472        0.048      344.918       22.074      862.683
09/22/2014  22:07:00     -240.001      -59.047       -5.358       86.263       81.129       44.805     7441.388     6581.865     2007.501        3.857        0.802      247.158       45.240        0.034      344.883       22.016      862.679
09/22/2014  22:08:00     -226.539      -74.611      -15.549      102.096       74.884       47.837    10423.538     5607.609     2288.420        3.772        0.916      238.510       38.042        0.025      344.844       21.948      862.672
09/22/2014  22:09:00     -341.392      -90.751      -18.374      134.333       97.063       56.011    18045.262     9421.293     3137.177        7.786        1.530      353.249       56.370        0.025      344.896       22.037      862.678
09/22/2014  22:10:00     -248.307     -109.514        4.344      107.642      112.915       63.320    11586.754    12749.871     4009.368        5.100        1.417      271.385       47.728        0.031      344.883       22.014      862.669
09/22/2014  22:11:00     -154.702      -31.118       12.088       82.439       67.548       54.496     6796.266     4562.714     2969.787        1.969        0.716      157.800       47.299        0.090      344.847       21.954      862.678
09/22/2014  22:12:00     -220.758      -59.235      -10.483      110.889       92.164       40.396    12296.419     8494.216     1631.865        3.738        1.121      228.567       46.799        0.042      344.870       21.992      862.684
09/22/2014  22:13:00     -190.811      -67.508       -0.715       91.662       64.209       43.697     8401.835     4122.814     1909.385        2.770        0.722      202.401       48.087        0.056      344.865       21.985      862.678
09/22/2014  22:14:00     -167.885     -112.489      -19.254       95.107      106.551       41.212     9045.278    11353.022     1698.423        3.165        1.105      202.087       38.221        0.036      344.869       21.992      862.687
09/22/2014  22:15:00     -241.766      -51.363        3.177      108.441       91.086       46.739    11759.550     8296.685     2184.529        4.167        1.112      247.162       39.545        0.026      344.893       22.032      862.692
09/22/2014  22:16:00     -184.880     -108.825        4.149      123.693       90.088       61.841    15299.977     8115.762     3824.303        3.664        1.362      214.531       64.431        0.090      344.889       22.024      862.696
09/22/2014  22:17:00     -152.369      -86.311        7.363       77.493       75.035       40.604     6005.205     5630.216     1648.689        2.200        0.664      175.117       46.743        0.071      344.873       21.998      862.690
09/22/2014  22:18:00     -191.521      -43.046      -20.173       99.740       61.946       42.123     9948.007     3837.268     1774.309        2.725        0.778      196.299       39.784        0.041      344.858       21.971      862.687
09/22/2014  22:19:00     -205.505      -77.745      -16.101       91.531       82.900       45.932     8377.854     6872.404     2109.740        3.295        0.868      219.720       46.745        0.045      344.871       21.994      862.681
09/22/2014  22:20:00     -165.757      -62.427        1.947      110.965       81.870       57.224    12313.140     6702.626     3274.539        2.683        1.115      177.123       62.211        0.123      344.816       21.901      862.672
09/22/2014  22:21:00     -215.946      -25.825      -13.294       91.650       68.129       46.678     8399.733     4641.605     2178.804        3.135        0.761      217.484       40.799        0.035      344.824       21.915      862.678
09/22/2014  22:22:00     -250.047     -101.851      -31.406       65.248       71.210       47.371     4257.341     5070.878     2243.973        4.273        0.579      269.995       40.338        0.022      344.860       21.973      862.676
09/22/2014  22:23:00     -187.130     -120.847       -5.387       95.738       75.553       43.264     9165.705     5708.298     1871.793        3.320        0.837      222.759       48.878        0.048      344.818       21.902      862.672
09/22/2014  22:24:00     -214.524     -143.730       -7.932      137.648       78.026       58.768    18947.047     6088.011     3453.710        4.761        1.424      258.223       67.563        0.068      344.859       21.974      862.660
09/22/2014  22:25:00     -159.390      -45.474      -13.121       60.614       81.782       33.160     3674.013     6688.250     1099.572        1.955        0.573      165.750       30.306        0.033      344.780       21.839      862.649
09/22/2014  22:26:00     -144.821      -38.209        5.218      122.153       86.362       46.462    14921.435     7458.374     2158.722        2.350        1.227      149.776       57.882        0.149      344.789       21.856      862.626
09/22/2014  22:27:00      -89.465      -34.686       -3.026       66.737       58.660       32.542     4453.805     3440.959     1058.982        0.908        0.448       95.954       33.121        0.119      344.749       21.786      862.606
09/22/2014  22:28:00     -119.519      -84.477       -5.392       81.355       56.250       46.570     6618.637     3164.085     2168.727        1.670        0.598      146.360       43.032        0.086      344.751       21.791      862.589
09/22/2014  22:29:00     -147.700      -80.407       -6.497      102.922       70.683       49.100    10592.912     4996.084     2410.853        2.316        0.900      168.169       37.921        0.051      344.761       21.806      862.581
09/22/2014  22:30:00     -112.297      -18.975       20.052      110.824       69.925       45.592    12281.940     4889.514     2078.625        1.631        0.963      113.889       56.000        0.242      344.747       21.785      862.592
09/22/2014  22:31:00     -175.192      -96.661       -1.705       74.717       75.366       44.448     5582.691     5679.967     1975.607        2.664        0.662      200.089       32.712        0.027      344.859       21.974      862.601
09/22/2014  22:32:00     -152.520      -35.035       -8.930       80.526       70.494       46.507     6484.367     4969.409     2162.899        1.909        0.681      156.492       29.593        0.036      344.805       21.883      862.609
09/22/2014  22:33:00     -146.227      -95.226       -5.849       81.486       73.019       47.433     6639.932     5331.802     2249.900        2.235        0.711      174.501       41.078        0.055      344.776       21.833      862.609
09/22/2014  22:34:00     -104.248      -47.174       -6.222       60.631       45.796       24.660     3676.167     2097.297      608.136        0.976        0.319      114.425       31.472        0.076      344.714       21.729      862.610
09/22/2014  22:35:00      -60.165      -60.381        1.528       72.678       30.759       29.296     5282.100      946.127      858.250        0.718        0.354       85.239       35.213        0.171      344.758       21.803      862.603
09/22/2014  22:36:00     -114.607     -104.894        6.462       68.294       61.210       40.266     4664.036     3746.644     1621.333        1.710        0.502      155.362       36.490        0.055      344.729       21.753      862.593
09/22/2014  22:37:00      -66.829      -41.549       23.331       65.955       63.773       40.150     4350.083     4067.039     1612.036        0.838        0.501       78.692       39.091        0.247      344.704       21.710      862.588
09/22/2014  22:38:00     -105.428      -28.144       12.380       47.605       66.720       32.234     2266.254     4451.537     1039.012        0.991        0.388      109.120       30.681        0.079      344.689       21.686      862.589
09/22/2014  22:39:00      -67.219      -72.632        8.503       67.521       48.553       28.527     4559.120     2357.391      813.793        0.880        0.387       98.964       26.048        0.069      344.676       21.663      862.595
09/22/2014  22:40:00     -110.448      -96.637       -1.306       72.821       65.268       30.043     5302.845     4259.854      902.596        1.600        0.523      146.756       31.183        0.045      344.709       21.718      862.591
09/22/2014  22:41:00      -84.572      -90.738       10.739       81.596       43.902       42.194     6657.935     1927.380     1780.338        1.293        0.518      124.040       40.819        0.108      344.687       21.682      862.579
09/22/2014  22:42:00      -69.025     -124.114        2.288       41.829       58.176       27.638     1749.623     3384.459      763.840        1.303        0.295      142.017       20.502        0.021      344.635       21.594      862.569
09/22/2014  22:43:00      -47.480     -170.701        4.201       42.265       77.161       37.950     1786.321     5953.758     1440.190        2.029        0.459      177.181       26.342        0.022      344.684       21.675      862.548
09/22/2014  22:44:00     -157.705     -101.736        1.758       95.250       71.030       43.551     9072.644     5045.322     1896.705        2.562        0.801      187.672       58.307        0.097      344.613       21.553      862.531
09/22/2014  22:45:00      -53.962     -101.774        1.438       39.358       50.638       19.488     1549.023     2564.177      379.789        0.888        0.225      115.195       17.360        0.023      344.566       21.476      862.526
09/22/2014  22:46:00      -53.409      -92.604        4.155       42.811       40.150       20.460     1832.762     1612.026      418.629        0.765        0.193      106.902       20.097        0.035      344.522       21.403      862.514
09/22/2014  22:47:00      -85.783      -69.657        0.225       43.823       48.389       26.869     1920.486     2341.455      721.956        0.860        0.249      110.503       28.103        0.065      344.507       21.377      862.523
09/22/2014  22:48:00      -50.151      -84.998       -2.864       41.564       26.830       24.105     1727.574      719.864      581.072        0.639        0.151       98.690       20.029        0.041      344.491       21.347      862.538
09/22/2014  22:49:00      -46.948     -106.846       -9.823       41.766       57.782       22.155     1744.427     3338.759      490.838        0.964        0.279      116.706       24.952        0.046      344.511       21.381      862.549
09/22/2014  22:50:00      -32.963      -70.380       -3.201       40.576       42.960       27.946     1646.385     1845.596      781.003        0.516        0.214       77.717       24.816        0.102      344.477       21.324      862.550
09/22/2014  22:51:00      -33.844      -72.929        0.381       26.105       24.236       19.695      681.449      587.401      387.879        0.406        0.083       80.399       10.301        0.016      344.558       21.464      862.558
09/22/2014  22:52:00      -36.231      -22.792        0.681       23.998       20.879       13.286      575.895      435.942      176.506        0.151        0.059       42.803        6.666        0.024      344.452       21.282      862.565
09/22/2014  22:53:00       -0.472      -46.266        3.906       23.335       15.997       15.242      544.539      255.915      232.308        0.159        0.052       46.269       12.353        0.071      344.427       21.238      862.572
09/22/2014  22:54:00      -10.475      -45.896        1.519       19.333       32.902       14.106      373.767     1082.510      198.979        0.194        0.083       47.076       13.439        0.081      344.391       21.176      862.579
09/22/2014  22:55:00      -71.370      -63.209       -1.773       37.679       31.649       13.806     1419.679     1001.654      190.596        0.585        0.131       95.337       13.274        0.019      344.351       21.109      862.575
09/22/2014  22:56:00      -98.614      -83.778       -2.798       39.288       36.025       24.592     1543.541     1297.790      604.753        1.010        0.172      129.397       21.861        0.029      344.317       21.052      862.582
09/22/2014  22:57:00      -31.504     -104.711       10.630       30.518       45.730       25.487      931.336     2091.222      649.573        0.787        0.184      109.348        8.271        0.006      344.324       21.062      862.591
09/22/2014  22:58:00      -58.339      -65.308        7.773       51.501       24.106       28.941     2652.322      581.116      837.568        0.590        0.204       87.570       30.599        0.122      344.290       21.004      862.594
09/22/2014  22:59:00      -84.047      -80.688       -8.241       45.931       43.522       23.427     2109.679     1894.152      548.816        0.910        0.228      116.510       23.998        0.042      344.281       20.988      862.614
09/22/2014  23:00:00      -67.900      -90.552       -0.514       45.465       39.764       20.743     2067.073     1581.159      430.259        0.844        0.204      113.182       26.417        0.054      344.283       20.993      862.633
09/22/2014  23:01:00     -103.773     -135.932       -2.604       56.508       59.292       27.419     3193.155     3515.557      751.807        1.836        0.373      171.016       36.174        0.045      344.284       20.993      862.644
09/22/2014  23:02:00      -82.261     -120.379       -4.542       41.338       38.690       21.649     1708.844     1496.916      468.692        1.248        0.184      145.801       21.198        0.021      344.228       20.899      862.639
09/22/2014  23:03:00      -44.746     -120.464        2.456       52.195       67.948       21.548     2724.355     4616.977      464.321        1.216        0.390      128.506       25.356        0.039      344.238       20.913      862.624
09/22/2014  23:04:00      -40.707     -106.075       -3.613       34.993       72.102       26.334     1224.510     5198.669      693.504        1.002        0.356      113.617       31.667        0.078      344.225       20.892      862.612
09/22/2014  23:05:00      -85.409      -95.419       -6.457       39.402       49.223       26.075     1552.520     2422.924      679.930        1.055        0.233      128.060       21.932        0.029      344.296       21.014      862.607
09/22/2014  23:06:00      -40.725      -79.426       -8.667       34.178       25.248       21.448     1168.139      637.466      460.029        0.515        0.113       89.258        8.952        0.010      344.252       20.938      862.595
09/22/2014  23:07:00      -90.372      -43.572      -10.519       29.425       43.030       23.318      865.804     1851.555      543.746        0.672        0.163      100.328       18.152        0.033      344.246       20.929      862.571
09/22/2014  23:08:00      -76.106      -57.803      -10.949       45.586       27.761       15.373     2078.118      770.678      236.320        0.617        0.154       95.568       18.050        0.036      344.263       20.961      862.553
09/22/2014  23:09:00      -12.825      -51.764        4.721       27.205       23.672       14.426      740.099      560.378      208.096        0.219        0.075       53.329       16.023        0.090      344.290       21.006      862.529
09/22/2014  23:10:00      -46.291      -20.514        0.808       35.030       20.847       13.397     1227.116      434.597      179.483        0.220        0.092       50.633       11.165        0.049      344.280       20.987      862.516
09/22/2014  23:11:00      -64.142      -29.158       -6.599       32.797       22.963       14.513     1075.632      527.298      210.615        0.341        0.091       70.459       13.287        0.036      344.162       20.785      862.516
09/22/2014  23:12:00      -54.904      -22.847       -0.039       27.361       16.774        8.804      748.609      281.379       77.504        0.232        0.055       59.468        9.098        0.023      344.123       20.719      862.521
09/22/2014  23:13:00      -82.920      -18.421        0.394       18.688       18.463       11.512      349.249      340.867      132.516        0.402        0.041       84.942        0.503        0.000      344.086       20.657      862.527
09/22/2014  23:14:00      -78.813      -19.163        4.067       39.510       34.418       25.064     1561.075     1184.617      628.197        0.498        0.169       81.109       29.081        0.129      344.091       20.663      862.534
09/22/2014  23:15:00      -73.691      -26.032       -1.836       34.824       22.370       17.407     1212.682      500.399      303.017        0.406        0.101       78.154       18.600        0.057      343.949       20.423      862.545
09/22/2014  23:16:00     -141.751      -20.737        6.557       64.624       52.982       30.286     4176.276     2807.052      917.272        1.423        0.395      143.260       30.827        0.046      344.120       20.712      862.551
09/22/2014  23:17:00      -53.854      -14.234        1.595       49.463       41.219       24.355     2446.577     1699.034      593.143        0.392        0.237       55.703       28.487        0.262      343.989       20.489      862.562
09/22/2014  23:18:00      -61.989      -42.459        9.470       49.386       36.759       28.624     2438.982     1351.261      819.314        0.517        0.230       75.136       25.461        0.115      344.095       20.669      862.571
09/22/2014  23:19:00     -121.256      -45.128       -7.338       44.466       27.110       18.995     1977.212      734.969      360.798        0.993        0.154      129.381       17.498        0.018      344.121       20.714      862.589
09/22/2014  23:20:00      -61.167      -36.852       13.110       63.661       30.854       29.903     4052.692      951.991      894.163        0.558        0.295       71.411       36.384        0.260      344.157       20.777      862.604
09/22/2014  23:21:00     -188.360      -97.528       -0.756      108.296       66.095       37.109    11727.927     4368.541     1377.069        3.123        0.874      212.112       41.898        0.039      344.310       21.035      862.608
09/22/2014  23:22:00      -88.067      -89.580        1.267       81.565       64.909       47.114     6652.779     4213.203     2219.773        1.443        0.654      125.620       49.760        0.157      344.264       20.958      862.593
09/22/2014  23:23:00     -192.985      -36.156      -18.105       84.325       66.621       36.784     7110.755     4438.350     1353.094        2.589        0.645      196.342       37.616        0.037      344.441       21.260      862.562
09/22/2014  23:24:00     -158.348      -48.164        1.151       82.965       59.818       31.481     6883.164     3578.150      991.077        1.942        0.573      165.511       33.871        0.042      344.382       21.160      862.554
09/22/2014  23:25:00     -227.309     -107.146       -9.922       94.181       70.094       41.820     8870.084     4913.222     1748.886        3.939        0.777      251.296       48.514        0.037      344.494       21.350      862.558
09/22/2014  23:26:00     -163.597      -58.472       -0.593       82.016       56.721       39.317     6726.563     3217.233     1545.846        2.083        0.574      173.732       46.313        0.071      344.396       21.183      862.559
09/22/2014  23:27:00     -142.998      -24.788        1.673      100.464       61.602       41.118    10092.968     3794.812     1690.673        1.832        0.779      145.131       50.249        0.120      344.357       21.116      862.566
09/22/2014  23:28:00     -164.130      -83.183       -5.968       74.557       60.483       39.174     5558.734     3658.173     1534.573        2.232        0.538      184.006       30.875        0.028      344.370       21.138      862.574
09/22/2014  23:29:00     -224.071      -76.630      -17.898       51.766       46.501       32.907     2679.710     2162.338     1082.875        3.116        0.296      236.812       21.365        0.008      344.369       21.135      862.590
09/22/2014  23:30:00     -196.828      -74.316       -7.113      122.137       75.761       56.859    14917.325     5739.668     3232.906        3.410        1.194      210.390       67.049        0.102      344.461       21.293      862.602
09/22/2014  23:31:00      -88.613      -83.144       10.373       76.106       77.585       42.705     5792.062     6019.506     1823.749        1.425        0.682      121.512       44.378        0.133      344.368       21.136      862.581
09/22/2014  23:32:00     -126.266      -32.910        3.451       76.482       66.832       36.865     5849.534     4466.498     1359.026        1.435        0.584      130.484       36.084        0.076      344.298       21.016      862.565
09/22/2014  23:33:00     -170.858     -107.581        1.288       94.158       63.490       45.636     8865.656     4030.995     2082.662        2.787        0.749      201.906       52.757        0.068      344.407       21.199      862.552
09/22/2014  23:34:00     -118.152      -30.660        7.166       94.323       61.425       29.638     8896.816     3773.041      878.403        1.425        0.677      122.065       40.788        0.112      344.366       21.134      862.541
09/22/2014  23:35:00      -61.246      -57.294        3.710       68.230       49.439       29.045     4655.389     2444.216      843.640        0.749        0.397       83.867       28.515        0.116      344.341       21.090      862.542
09/22/2014  23:36:00     -124.683     -129.644        0.680       83.981       73.692       35.509     7052.797     5430.499     1260.858        2.305        0.687      179.871       28.060        0.024      344.398       21.185      862.521
09/22/2014  23:37:00     -223.280     -124.329       -5.571      112.282       97.270       63.442    12607.199     9461.486     4024.913        4.571        1.305      255.561       70.541        0.076      344.354       21.108      862.495
09/22/2014  23:38:00     -107.574      -63.045       11.162       92.336       73.536       41.675     8525.962     5407.480     1736.824        1.567        0.784      124.688       49.120        0.155      344.387       21.167      862.478
09/22/2014  23:39:00     -168.019     -107.969      -11.740       97.421       58.203       31.838     9490.795     3387.588     1013.666        2.696        0.695      199.719       40.862        0.042      344.445       21.265      862.464
09/22/2014  23:40:00     -181.132     -110.625       -9.787       72.079       57.909       33.020     5195.426     3353.509     1090.348        2.739        0.482      212.242       10.196        0.002      344.428       21.237      862.443
09/22/2014  23:41:00     -126.121     -164.262        7.406       88.836      102.991       45.478     7891.793    10607.072     2068.236        3.175        1.028      207.095       52.464        0.064      344.372       21.142      862.432
09/22/2014  23:42:00     -129.250     -102.892       -5.064       77.082       74.246       36.347     5941.571     5512.523     1321.069        2.004        0.639      165.204       42.879        0.067      344.313       21.042      862.432
09/22/2014  23:43:00     -187.466     -112.454       -2.033       82.021       77.496       45.163     6727.449     6005.639     2039.696        3.128        0.739      218.608       44.128        0.041      344.308       21.032      862.429
09/22/2014  23:44:00     -154.016      -33.843        3.854      108.057       66.435       42.240    11676.400     4413.658     1784.187        2.137        0.894      157.691       50.220        0.101      344.284       20.992      862.421
09/22/2014  23:45:00     -159.882      -58.553       10.930       99.311       73.426       42.010     9862.655     5391.314     1764.875        2.306        0.851      170.266       48.111        0.080      344.335       21.079      862.421
09/22/2014  23:46:00     -150.602      -88.691       -8.890       57.051       65.021       30.668     3254.859     4227.793      940.538        1.952        0.421      174.777       34.840        0.040      344.334       21.077      862.418
09/22/2014  23:47:00      -95.674      -35.573        3.145       48.869       42.691       25.810     2388.164     1822.540      666.172        0.765        0.244      102.073       20.930        0.042      344.282       20.991      862.412
09/22/2014  23:48:00     -165.342      -95.922       -9.865       69.227       82.737       32.129     4792.328     6845.416     1032.267        2.465        0.634      191.152       27.867        0.021      344.342       21.091      862.421
09/22/2014  23:49:00     -103.265      -85.289        1.379       77.788       57.159       32.334     6051.004     3267.208     1045.474        1.415        0.518      133.933       37.149        0.077      344.312       21.040      862.428
09/22/2014  23:50:00     -231.320     -114.605      -16.723       82.184       71.735       45.996     6754.147     5145.856     2115.586        4.047        0.701      258.153       42.757        0.027      344.362       21.122      862.426
09/22/2014  23:51:00     -150.081      -66.473       -0.856       69.837       67.814       34.552     4877.172     4598.781     1193.838        1.880        0.533      164.143       34.154        0.043      344.382       21.158      862.439
09/22/2014  23:52:00      -96.035      -49.705      -10.606       81.981       48.546       32.672     6720.821     2356.685     1067.456        1.097        0.507      108.136       34.338        0.101      344.285       20.993      862.448
09/22/2014  23:53:00      -27.893      -51.798        5.910       49.855       30.404       33.134     2485.539      924.386     1097.886        0.400        0.225       58.830       29.725        0.255      344.309       21.036      862.448
09/22/2014  23:54:00      -40.882      -17.254        4.092       21.648       30.489       13.428      468.655      929.556      180.314        0.178        0.079       44.374       10.519        0.056      344.283       20.991      862.461
09/22/2014  23:55:00      -42.106     -141.191       11.129       33.797       37.238       27.495     1142.244     1386.651      755.975        1.256        0.164      147.336       24.519        0.028      344.310       21.038      862.469
09/22/2014  23:56:00      -63.753      -83.898       -9.096       42.972       59.108       22.790     1846.606     3493.735      519.374        0.852        0.293      105.372       24.733        0.055      344.252       20.938      862.479
09/22/2014  23:57:00       -2.164      -98.352        9.981       21.608       37.220       18.732      466.916     1385.348      350.872        0.599        0.110       98.376        7.533        0.006      344.226       20.895      862.490
09/22/2014  23:58:00      -59.169      -19.869       -5.341       45.856       31.653       17.874     2102.770     1001.927      319.494        0.367        0.171       62.416        8.444        0.018      344.158       20.780      862.496
09/22/2014  23:59:00      -94.079       25.478        6.122       23.568       20.870       22.823      555.455      435.572      520.906        0.552        0.076       97.468       13.040        0.018      344.172       20.804      862.490
